[[{"header":{"parameterUnit":"m.s-1","parameterCategory":1,"la1":30.6,"la2":29.2853,"lo1":-89.7004,"lo2":-87.6739,"dy":0.0162,"dx":0.0183,"nx":112,"ny":82,"refTime":"2023-09-13T12:00:00:Z","depth":0,"parameterNumber":2,"parameterNumberName":"U-component_of_WINDS"},"data":[0.0,0.0,0.0,0.0,0.0,0.0,0.0,0.0,0.0,0.0,0.0,0.0,0.0,0.0,0.0,0.0,0.0,0.0,0.0,0.0,0.0,0.0,0.0,0.0,0.0,0.0,0.0,0.0,0.0,0.0,0.0,0.0,0.0,0.0,0.0,0.0,0.0,0.0,0.0,0.0,0.0,0.0,0.0,0.0,0.0,0.0,0.0,0.0,0.0,0.0,0.0,0.0,0.0,0.0,0.0,0.0,0.0,0.0,0.0,0.0,0.0,0.0,0.0,0.0,0.0,0.0,0.0,0.0,0.0,0.0,0.0,0.0,0.0,0.0,0.0,0.0,0.0,0.0,0.0,0.0,0.0,0.0,0.0,0.0,0.0,0.0,0.0,0.0,0.0,0.0,2.2359,2.2924,2.4358,2.5322,2.539,2.5466,2.4789,2.3162,0.0,0.0,0.0,0.0,0.0,0.0,0.0,0.0,0.0,0.0,0.0,0.0,0.0,0.0,0.0,0.0,0.0,0.0,0.0,0.0,0.0,0.0,0.0,0.0,0.0,0.0,0.0,0.0,0.0,0.0,0.0,0.0,0.0,0.0,0.0,0.0,0.0,0.0,0.0,0.0,0.0,0.0,0.0,0.0,0.0,0.0,0.0,0.0,0.0,0.0,0.0,0.0,0.0,0.0,0.0,0.0,0.0,0.0,0.0,0.0,0.0,0.0,0.0,0.0,0.0,0.0,0.0,0.0,0.0,0.0,0.0,0.0,0.0,0.0,0.0,0.0,0.0,0.0,0.0,0.0,0.0,0.0,0.0,0.0,0.0,0.0,0.0,0.0,0.0,0.0,0.0,0.0,0.0,0.0,0.0,0.0,0.0,0.0,0.0,0.0,0.0,0.0,0.0,0.0,2.2708,2.4441,2.5039,2.5303,2.5303,2.5428,2.4761,2.3043,0.0,0.0,0.0,0.0,0.0,0.0,0.0,0.0,0.0,0.0,0.0,0.0,0.0,0.0,0.0,0.0,0.0,0.0,0.0,0.0,0.0,0.0,0.0,0.0,0.0,0.0,0.0,0.0,0.0,0.0,0.0,0.0,0.0,0.0,0.0,0.0,0.0,0.0,0.0,0.0,0.0,0.0,0.0,0.0,0.0,0.0,0.0,0.0,0.0,0.0,0.0,0.0,0.0,0.0,0.0,0.0,0.0,0.0,0.0,0.0,0.0,0.0,0.0,0.0,0.0,0.0,0.0,0.0,0.0,0.0,0.0,0.0,0.0,0.0,0.0,0.0,0.0,0.0,0.0,0.0,0.0,0.0,0.0,0.0,0.0,0.0,0.0,0.0,0.0,0.0,0.0,0.0,0.0,0.0,0.0,0.0,0.0,0.0,0.0,0.0,0.0,0.0,0.0,2.1834,2.2911,2.4707,2.5149,2.5303,2.5341,2.5447,2.4761,2.3062,2.3043,0.0,0.0,0.0,0.0,0.0,0.0,0.0,0.0,0.0,0.0,0.0,0.0,0.0,0.0,0.0,0.0,0.0,0.0,0.0,0.0,0.0,0.0,0.0,0.0,0.0,0.0,0.0,0.0,0.0,0.0,0.0,0.0,0.0,0.0,0.0,0.0,0.0,0.0,0.0,0.0,0.0,0.0,0.0,0.0,0.0,0.0,0.0,0.0,0.0,0.0,0.0,0.0,0.0,0.0,0.0,0.0,0.0,0.0,0.0,0.0,0.0,0.0,0.0,0.0,0.0,0.0,0.0,0.0,0.0,0.0,0.0,0.0,0.0,0.0,0.0,0.0,0.0,0.0,0.0,0.0,0.0,0.0,0.0,0.0,0.0,0.0,0.0,0.0,0.0,0.0,0.0,0.0,0.0,0.0,0.0,0.0,0.0,0.0,0.0,0.0,0.0,0.0,2.2454,2.3449,2.4672,2.5103,2.5322,2.539,2.5465,2.4781,2.3107,2.3058,0.0,0.0,0.0,0.0,0.0,0.0,0.0,0.0,0.0,0.0,0.0,0.0,0.0,0.0,0.0,0.0,0.0,0.0,0.0,0.0,0.0,0.0,0.0,0.0,0.0,0.0,0.0,0.0,0.0,0.0,0.0,0.0,0.0,0.0,0.0,0.0,0.0,0.0,0.0,0.0,0.0,0.0,0.0,0.0,0.0,0.0,0.0,0.0,0.0,0.0,0.0,0.0,0.0,0.0,0.0,0.0,0.0,0.0,0.0,0.0,0.0,0.0,0.0,0.0,0.0,0.0,0.0,0.0,0.0,0.0,0.0,0.0,0.0,0.0,0.0,0.0,0.0,0.0,0.0,0.0,0.0,0.0,0.0,0.0,0.0,0.0,0.0,0.0,0.0,0.0,0.0,0.0,0.0,0.0,0.0,0.0,0.0,0.0,0.0,0.0,0.0,0.0,2.3337,2.4672,2.4785,2.5103,2.5322,2.539,2.5466,2.4779,2.3101,2.3065,0.0,0.0,0.0,0.0,0.0,0.0,0.0,0.0,0.0,0.0,0.0,0.0,0.0,0.0,0.0,0.0,0.0,0.0,0.0,0.0,0.0,0.0,0.0,0.0,0.0,0.0,0.0,0.0,0.0,0.0,0.0,0.0,0.0,0.0,0.0,0.0,0.0,0.0,0.0,0.0,0.0,0.0,0.0,0.0,0.0,0.0,0.0,0.0,0.0,0.0,0.0,0.0,0.0,0.0,0.0,0.0,0.0,0.0,0.0,0.0,0.0,0.0,0.0,0.0,0.0,0.0,0.0,0.0,0.0,0.0,0.0,0.0,0.0,0.0,0.0,0.0,0.0,0.0,0.0,0.0,0.0,0.0,0.0,0.0,0.0,0.0,0.0,0.0,0.0,0.0,0.0,0.0,0.0,0.0,0.0,0.0,0.0,0.0,0.0,0.0,0.0,0.0,2.2964,2.42,2.4747,2.5103,2.5341,2.5447,2.545,2.4763,2.3166,0.0,0.0,0.0,0.0,0.0,0.0,0.0,0.0,0.0,0.0,0.0,0.0,0.0,0.0,0.0,0.0,0.0,0.0,0.0,0.0,0.0,0.0,0.0,0.0,0.0,0.0,0.0,0.0,0.0,0.0,0.0,0.0,0.0,0.0,0.0,0.0,0.0,0.0,0.0,0.0,0.0,0.0,0.0,0.0,0.0,0.0,0.0,0.0,0.0,0.0,0.0,0.0,0.0,0.0,0.0,0.0,0.0,0.0,0.0,0.0,0.0,0.0,0.0,0.0,0.0,0.0,0.0,0.0,0.0,0.0,0.0,0.0,0.0,0.0,0.0,0.0,0.0,0.0,0.0,0.0,0.0,0.0,0.0,0.0,0.0,0.0,0.0,0.0,0.0,0.0,0.0,0.0,0.0,0.0,0.0,0.0,0.0,0.0,0.0,0.0,0.0,0.0,2.1351,2.2728,2.3956,2.4714,2.5037,2.5282,2.5486,2.5449,2.4736,2.3178,0.0,0.0,0.0,0.0,0.0,0.0,0.0,0.0,0.0,0.0,0.0,0.0,0.0,0.0,0.0,0.0,0.0,0.0,0.0,0.0,0.0,0.0,0.0,0.0,0.0,0.0,0.0,0.0,0.0,0.0,0.0,0.0,0.0,0.0,0.0,0.0,0.0,0.0,0.0,0.0,0.0,0.0,0.0,0.0,0.0,0.0,0.0,0.0,0.0,0.0,0.0,0.0,0.0,0.0,0.0,0.0,0.0,0.0,0.0,0.0,0.0,0.0,0.0,0.0,0.0,0.0,0.0,0.0,0.0,0.0,0.0,0.0,0.0,0.0,0.0,0.0,0.0,0.0,0.0,0.0,0.0,0.0,0.0,0.0,0.0,0.0,0.0,0.0,0.0,0.0,0.0,0.0,0.0,0.0,0.0,0.0,0.0,0.0,0.0,0.0,0.0,0.0,2.1251,2.2884,2.4209,2.4741,2.493,2.5145,2.5476,2.5449,2.472,0.0,0.0,0.0,0.0,0.0,0.0,0.0,0.0,0.0,0.0,0.0,0.0,0.0,0.0,0.0,0.0,0.0,0.0,0.0,0.0,0.0,0.0,0.0,0.0,0.0,0.0,0.0,0.0,0.0,0.0,0.0,0.0,0.0,0.0,0.0,0.0,0.0,0.0,0.0,0.0,0.0,0.0,0.0,0.0,0.0,0.0,0.0,0.0,0.0,0.0,0.0,0.0,0.0,0.0,0.0,0.0,0.0,0.0,0.0,0.0,0.0,0.0,0.0,0.0,0.0,0.0,0.0,0.0,0.0,0.0,0.0,0.0,0.0,0.0,0.0,0.0,0.0,0.0,0.0,0.0,0.0,0.0,0.0,0.0,0.0,0.0,0.0,0.0,0.0,0.0,0.0,0.0,0.0,0.0,0.0,0.0,0.0,0.0,0.0,0.0,0.0,0.0,0.0,2.1251,2.2884,2.4209,2.4741,2.493,2.5145,2.5476,2.541,2.4662,2.3105,0.0,0.0,0.0,0.0,0.0,0.0,0.0,0.0,0.0,0.0,0.0,0.0,0.0,0.0,0.0,0.0,0.0,0.0,0.0,0.0,0.0,0.0,0.0,0.0,0.0,0.0,0.0,0.0,0.0,0.0,0.0,0.0,0.0,0.0,0.0,0.0,0.0,0.0,0.0,0.0,0.0,0.0,0.0,0.0,0.0,0.0,0.0,0.0,0.0,0.0,0.0,0.0,0.0,0.0,0.0,0.0,0.0,0.0,0.0,0.0,0.0,0.0,0.0,0.0,0.0,0.0,0.0,0.0,0.0,0.0,0.0,0.0,0.0,0.0,0.0,0.0,0.0,0.0,0.0,0.0,0.0,0.0,0.0,0.0,0.0,0.0,0.0,0.0,0.0,0.0,0.0,0.0,0.0,0.0,0.0,0.0,0.0,0.0,0.0,0.0,0.0,0.0,2.0888,2.2545,2.3912,2.4529,2.4785,2.5075,2.5466,2.5371,2.4796,2.3589,0.0,0.0,0.0,0.0,0.0,0.0,0.0,0.0,0.0,0.0,0.0,0.0,0.0,0.0,0.0,0.0,0.0,0.0,0.0,0.0,0.0,0.0,0.0,0.0,0.0,0.0,0.0,0.0,0.0,0.0,0.0,0.0,0.0,0.0,0.0,0.0,0.0,0.0,0.0,0.0,0.0,0.0,0.0,0.0,0.0,0.0,0.0,0.0,0.0,0.0,0.0,0.0,0.0,0.0,0.0,0.0,0.0,0.0,0.0,0.0,0.0,0.0,0.0,0.0,0.0,0.0,0.0,0.0,0.0,0.0,0.0,0.0,0.0,0.0,0.0,0.0,0.0,0.0,0.0,0.0,0.0,0.0,0.0,0.0,0.0,0.0,0.0,0.0,0.0,0.0,0.0,0.0,0.0,0.0,0.0,0.0,0.0,0.0,0.0,0.0,0.0,0.0,2.0349,2.2048,2.348,2.4221,2.461,2.498,2.5466,2.5371,2.5005,2.4351,0.0,0.0,0.0,0.0,0.0,0.0,0.0,0.0,0.0,0.0,0.0,0.0,0.0,0.0,0.0,0.0,0.0,0.0,0.0,0.0,0.0,0.0,0.0,0.0,0.0,0.0,0.0,0.0,0.0,0.0,0.0,0.0,0.0,0.0,0.0,0.0,0.0,0.0,0.0,0.0,0.0,0.0,0.0,0.0,0.0,0.0,0.0,0.0,0.0,0.0,0.0,0.0,0.0,0.0,0.0,0.0,0.0,0.0,0.0,0.0,1.3637,1.2786,0.0,0.0,0.0,0.0,0.0,0.0,0.0,0.0,0.0,0.0,0.0,0.0,0.0,0.0,0.0,0.0,0.0,0.0,0.0,0.0,0.0,0.0,0.0,0.0,0.0,0.0,0.0,0.0,0.0,0.0,0.0,0.0,0.0,0.0,0.0,0.0,0.0,0.0,0.0,0.0,2.0349,2.2048,2.348,2.4221,2.461,2.498,2.5466,2.5371,2.5005,2.4351,2.3751,0.0,0.0,0.0,0.0,0.0,0.0,0.0,0.0,0.0,0.0,0.0,0.0,0.0,0.0,0.0,0.0,0.0,0.0,0.0,0.0,0.0,0.0,0.0,0.0,0.0,0.0,0.0,0.0,0.0,0.0,0.0,0.0,0.0,0.0,0.0,0.0,0.0,0.0,0.0,0.0,0.0,0.0,0.0,0.0,0.0,0.0,0.0,0.0,0.0,0.0,0.0,0.0,0.0,0.0,0.0,0.0,0.0,0.0,0.0,1.325,1.3249,0.0,0.0,0.0,0.0,0.0,0.0,0.0,0.0,0.0,0.0,0.0,0.0,0.0,0.0,0.0,0.0,0.0,0.0,0.0,0.0,0.0,0.0,0.0,0.0,0.0,0.0,0.0,0.0,0.0,0.0,0.0,0.0,0.0,0.0,0.0,0.0,0.0,0.0,0.0,0.0,1.9942,2.1503,2.2837,2.3381,2.354,2.379,2.4254,2.4553,2.4592,2.4265,2.385,0.0,0.0,0.0,0.0,0.0,0.0,0.0,0.0,0.0,0.0,0.0,0.0,0.0,0.0,0.0,0.0,0.0,0.0,0.0,0.0,0.0,0.0,0.0,0.0,0.0,0.0,0.0,0.0,0.0,0.0,0.0,0.0,0.0,0.0,0.0,0.0,0.0,0.0,0.0,0.0,0.0,0.0,0.0,0.0,0.0,0.0,0.0,0.0,0.0,0.0,0.0,0.0,0.0,1.0479,1.1147,1.1283,1.135,1.1713,1.2482,1.2943,1.3886,1.4955,1.3646,0.0,0.0,0.0,0.0,0.0,0.0,0.0,0.0,0.0,0.0,0.0,0.0,0.0,0.0,0.0,0.0,0.0,0.0,0.0,0.0,0.0,0.0,1.3767,1.2857,1.4103,1.535,1.4866,0.0,0.0,0.0,0.0,0.0,0.0,0.0,0.0,0.0,0.0,0.0,1.9438,2.0931,2.2089,2.2282,2.229,2.2488,2.2959,2.354,2.3962,2.4188,2.3764,2.3501,0.0,0.0,0.0,0.0,0.0,0.0,0.0,0.0,0.0,0.0,0.0,0.0,0.0,0.0,0.0,0.0,0.0,0.0,0.0,0.0,0.0,0.0,0.0,0.0,0.0,0.0,0.0,0.0,0.0,0.0,0.0,0.0,1.2025,1.189,0.0,0.0,0.0,0.0,0.0,0.0,0.0,0.0,0.0,0.0,0.0,0.0,0.0,0.6474,0.7042,0.7901,0.8404,0.8587,1.0416,1.1746,1.2452,1.2594,1.298,1.3543,1.3603,0.0,1.3011,1.3266,0.0,0.0,0.0,0.0,0.0,0.0,0.0,0.0,0.0,0.0,0.0,0.0,0.0,0.0,0.0,0.0,0.0,0.0,0.0,0.0,0.0,0.0,1.3041,1.2545,1.2906,1.3534,1.4188,1.4398,1.4433,1.4326,1.4676,1.4849,0.0,0.0,0.0,0.0,0.0,0.0,1.9151,2.0822,2.1893,2.1569,2.2002,2.2493,2.2967,2.2975,2.3322,2.4149,2.3758,2.3507,2.3496,2.3179,0.0,0.0,0.0,0.0,0.0,0.0,0.0,0.0,0.0,0.0,0.0,0.0,0.0,0.0,0.0,0.0,0.0,0.0,0.0,0.0,0.0,0.0,0.0,0.0,0.0,0.0,0.0,0.0,0.0,1.0818,1.045,0.9925,0.8557,0.7221,0.0,0.0,0.0,0.0,0.0,0.0,0.0,0.0,0.0,0.6016,0.5951,0.6301,0.7107,0.7668,0.8027,0.8178,0.962,1.0472,1.0787,1.0861,1.1161,1.1713,1.1713,1.1772,1.2,1.2941,1.303,1.2529,0.0,0.0,0.0,0.0,1.3013,1.3372,1.4343,1.4677,1.4411,1.3146,0.0,0.0,0.0,0.0,0.0,0.0,0.0,1.0995,0.0,0.0,1.1759,1.1764,1.2139,1.2572,1.2917,1.3357,1.3821,1.4495,1.4686,1.4597,1.4196,1.4914,0.0,0.0,0.0,1.8811,1.8672,2.0026,2.0912,2.0731,2.083,2.1051,2.1449,2.1831,2.2461,2.3418,2.359,2.3827,2.4219,2.3611,2.2912,0.0,0.0,0.0,0.0,0.0,0.0,0.0,0.0,0.0,0.0,0.0,0.0,0.0,0.0,0.0,0.0,0.0,0.0,0.0,0.0,0.0,0.0,0.0,0.0,0.0,0.0,0.0,0.0,0.9937,0.9577,0.8527,0.7872,0.6758,0.0,0.0,0.0,0.0,0.0,0.0,0.4568,0.4675,0.52,0.6192,0.5951,0.62,0.6974,0.7187,0.7382,0.748,0.8225,0.866,0.8789,0.8789,0.9132,0.9748,0.9748,1.0233,1.1211,1.2564,1.3114,1.3115,1.2355,1.2049,1.2166,1.2715,1.2755,1.2758,1.4007,1.4174,1.3522,1.2115,1.2226,1.2449,1.0316,0.0,0.0,0.0,0.0,0.9717,1.0272,1.0463,1.0569,1.0814,1.1203,1.1535,1.176,1.2176,1.2842,1.4198,1.4501,1.4493,1.4217,1.4972,0.0,1.5798,1.7417,1.8579,1.8451,1.9412,2.003,1.9846,1.9759,1.985,2.023,2.0825,2.1676,2.2828,2.3225,2.3834,2.4766,2.4023,2.3454,2.3117,0.0,0.0,0.0,0.0,0.0,0.0,0.0,0.0,0.0,0.0,0.0,0.0,0.0,0.0,0.0,0.0,0.0,0.0,0.0,0.0,0.0,0.0,0.0,0.0,0.0,0.0,0.0,0.0,0.0,0.8856,0.8611,0.0,0.0,0.0,0.0,0.3845,0.377,0.3934,0.4499,0.4519,0.4983,0.5986,0.601,0.602,0.6027,0.6112,0.604,0.5895,0.5964,0.6456,0.7438,0.7438,0.792,0.8894,0.8894,0.9394,1.0309,1.203,1.2069,1.1206,1.1927,1.161,1.0841,1.1867,1.23,1.2607,1.4009,1.3094,1.1341,1.1885,1.0521,0.8808,0.9551,0.8965,0.0,0.0,0.9387,0.9038,0.9887,0.9939,0.9782,0.9751,0.9809,1.002,1.0793,1.0879,1.1283,0.0,1.3844,1.4467,1.4709,0.0,1.5661,1.7251,1.7906,1.8362,1.871,1.9378,1.9578,1.8932,1.9199,1.9604,2.0068,2.0264,2.1092,2.2789,2.2565,2.3114,2.4728,2.4389,2.3824,2.3117,2.3254,0.0,0.0,0.0,0.0,0.0,0.0,0.0,0.0,0.0,0.0,0.0,0.0,0.0,0.0,0.0,0.0,0.0,0.0,0.0,0.0,0.0,0.0,0.0,0.0,0.0,0.0,0.0,0.0,0.8027,0.8195,0.0,0.5151,0.485,0.471,0.4487,0.476,0.5033,0.5358,0.5367,0.5483,0.5881,0.5881,0.5881,0.5881,0.5793,0.5671,0.5515,0.5416,0.5709,0.6442,0.6442,0.7199,0.8526,0.8745,0.9274,1.0162,1.1186,1.1798,1.2076,1.1794,1.1798,1.1926,1.1759,1.1727,1.1829,1.2312,1.1492,1.0211,1.0267,0.932,0.8408,0.988,1.003,0.9691,0.9899,0.984,0.9695,0.9801,0.9619,0.9399,0.9399,0.9112,0.8944,0.9246,0.969,1.0213,1.0785,1.2406,1.3841,1.4479,1.508,1.5627,1.6157,1.6983,1.7531,1.7622,1.8431,1.8904,1.8824,1.9318,1.9756,2.0012,2.0196,2.1027,2.274,2.2731,2.3317,2.4728,2.4752,2.4482,2.3998,2.4285,2.3771,0.0,0.0,0.0,0.0,0.0,0.0,0.0,0.0,0.0,0.0,0.0,0.0,0.0,0.0,0.0,0.0,0.0,0.0,0.0,0.0,0.0,0.0,0.0,0.0,0.0,0.8963,0.8777,0.6833,0.7476,0.7075,0.4693,0.4879,0.5172,0.5091,0.541,0.563,0.5725,0.563,0.5576,0.5576,0.5528,0.5504,0.5504,0.541,0.5443,0.5592,0.5479,0.574,0.6349,0.6349,0.6942,0.7951,0.8171,0.8733,0.956,0.9938,1.0896,1.2025,1.1606,1.1765,1.2173,1.1628,1.1363,1.1182,1.0704,1.0052,0.9279,0.8771,0.8185,0.7928,0.906,0.9439,0.9402,0.9525,0.9464,0.9349,0.9227,0.9144,0.8956,0.8641,0.8495,0.835,0.8243,0.8992,0.9694,0.9694,1.1279,1.2976,1.3916,1.4446,1.4983,1.5539,1.6312,1.6916,1.7089,1.7818,1.838,1.8717,1.9176,1.9582,1.9903,1.987,2.0567,2.2285,2.2122,2.2728,2.4423,2.422,2.4111,2.4189,2.442,2.3974,2.2865,0.0,0.0,0.0,0.0,0.0,0.0,0.0,0.0,0.0,0.0,0.0,0.0,0.0,0.0,0.0,0.0,0.0,0.0,0.0,0.0,0.0,0.0,0.0,0.7827,0.7516,0.6932,0.5519,0.6523,0.6635,0.4849,0.5381,0.5718,0.5579,0.5569,0.5569,0.5569,0.5287,0.5125,0.5125,0.4992,0.4918,0.4918,0.4914,0.5268,0.6044,0.6036,0.6391,0.7101,0.7101,0.7101,0.7161,0.7171,0.764,0.8405,0.8469,0.9459,1.092,1.1242,1.1369,1.1369,1.1369,1.1256,1.0797,0.927,0.8778,0.8621,0.7485,0.7121,0.7121,0.7181,0.7181,0.7359,0.817,0.8166,0.7975,0.8143,0.8511,0.8561,0.7548,0.7835,0.827,0.7976,0.8859,0.9662,0.9707,1.0704,1.1903,1.3012,1.3178,1.3795,1.5618,1.6091,0.0,1.7246,1.7567,1.7954,1.8469,1.8664,1.9023,1.9698,1.9233,1.9662,2.1481,2.0718,2.1304,2.3813,2.2932,2.2805,2.3632,2.3638,2.3516,2.3354,0.0,0.0,0.0,0.0,0.0,0.0,0.0,0.0,0.0,0.0,0.0,0.0,0.0,0.0,0.0,0.0,0.0,0.0,0.0,0.0,0.0,0.8137,0.8404,0.755,0.7898,0.7702,0.6248,0.6637,0.6453,0.5009,0.5024,0.5145,0.5108,0.5101,0.5101,0.5101,0.5023,0.4975,0.4975,0.4942,0.5157,0.5695,0.5628,0.5906,0.6649,0.6506,0.6824,0.7544,0.7544,0.7825,0.833,0.8527,0.8783,0.9028,0.9788,1.0329,1.0773,1.0842,1.0979,1.1092,1.1443,1.1271,1.0583,0.9045,0.8521,0.845,0.8145,0.8063,0.8181,0.8786,0.8968,0.8982,0.8953,0.8895,0.8747,0.8456,0.8448,0.8366,0.7873,0.7734,0.7834,0.8115,0.8601,0.909,0.9464,1.013,1.1186,1.2891,1.3178,1.3717,1.5251,1.551,0.0,1.6114,1.6394,1.6659,1.6906,1.727,1.7881,1.8855,1.8952,1.9696,2.1413,2.1951,2.2706,2.3844,2.4351,2.4703,2.4899,2.4191,2.3291,0.0,0.0,0.0,0.0,0.0,0.0,0.0,0.0,0.0,0.0,0.0,0.0,0.0,0.0,0.0,0.0,0.0,0.0,0.0,0.0,0.0,0.0,0.9098,0.9119,0.7875,0.7514,0.7022,0.6104,0.6022,0.5731,0.4996,0.4918,0.4918,0.4918,0.486,0.4823,0.4823,0.4762,0.4728,0.4728,0.4728,0.5071,0.5756,0.5705,0.6211,0.7218,0.7139,0.745,0.8156,0.8156,0.8374,0.8818,0.924,0.9477,0.9538,1.0408,1.0756,1.0779,0.0,0.0,0.0,0.0,1.076,0.9925,0.9067,0.8657,0.8558,0.8558,0.8558,0.8677,0.9144,0.9312,0.9279,0.9105,0.8971,0.8798,0.8386,0.8412,0.8435,0.8015,0.8072,0.8216,0.8435,0.8627,0.8959,0.9661,0.9895,0.0,1.2291,1.2596,1.3035,1.4199,1.4479,1.4681,1.507,1.5356,1.5683,1.6116,1.6807,1.7537,1.8316,1.8648,0.0,0.0,0.0,2.2343,2.3391,2.4389,0.0,0.0,0.0,2.3193,2.2096,1.8715,0.0,0.0,0.847,0.4501,0.0,0.0,0.0,0.0,0.0,0.0,0.0,0.0,0.0,0.0,0.0,0.0,0.0,0.0,0.0,0.0,1.0593,1.046,0.8526,0.6856,0.5741,0.5563,0.53,0.5125,0.5108,0.5104,0.5104,0.5104,0.4972,0.4894,0.4894,0.4815,0.0,0.0,0.0,0.5062,0.576,0.5756,0.6465,0.783,0.783,0.8209,0.891,0.891,0.8956,0.9061,0.9666,0.9909,0.9969,1.0669,1.0965,1.1082,1.1469,1.1724,1.1724,1.101,1.0176,0.9508,0.9398,0.0,0.0,0.891,0.8857,0.8804,0.891,0.889,0.8862,0.9001,0.8769,0.8516,0.8403,0.8558,0.8654,0.8231,0.8629,0.9021,0.8904,0.8846,0.917,1.0175,1.0057,1.0156,1.1474,1.1676,1.2001,1.2878,1.3225,1.3587,1.406,1.4402,1.4852,1.5607,0.0,0.0,1.7914,1.8345,1.9343,2.1126,2.0803,2.1309,2.3001,2.3784,2.4186,2.4129,2.3649,2.2996,2.2173,1.942,1.5555,1.0679,0.6478,0.2945,0.0,0.0,0.0,0.0,0.0,0.0,0.0,0.0,0.0,0.0,0.0,0.0,0.0,0.0,0.0,0.9914,1.0584,1.0517,0.8654,0.7631,0.6987,0.6674,0.6562,0.6449,0.629,0.6276,0.6276,0.6276,0.6234,0.6215,0.6215,0.6228,0.6209,0.6209,0.6209,0.6529,0.7283,0.7283,0.7717,0.8593,0.8593,0.0,0.9614,0.9614,0.9917,1.0415,1.0559,1.0618,1.0661,1.1316,1.1981,1.2372,1.1387,1.1652,1.2497,1.1242,1.0978,1.1217,1.0664,1.0118,0.9614,0.9614,0.9263,0.891,0.9465,0.9387,0.0,1.0191,0.9864,0.9408,0.9819,0.9476,0.9033,0.9039,0.8896,0.8994,0.9728,0.9592,0.9717,1.1211,1.1034,1.0866,1.1566,1.1308,1.1303,1.2223,1.2645,1.2895,1.2987,1.3477,1.382,1.382,1.4921,1.6045,1.7049,1.7932,1.896,2.0184,2.1463,2.2931,2.4655,2.4732,2.4449,2.3821,2.3123,2.189,2.0067,1.7415,1.4283,1.0661,0.7447,0.3781,0.0,0.0,0.0,0.0,0.0,0.0,0.0,0.0,0.0,0.0,0.0,1.0378,1.0912,0.0,1.1853,1.1486,1.1634,1.1243,0.9863,0.921,0.8314,0.7074,0.6809,0.6704,0.6598,0.6588,0.6588,0.6588,0.6588,0.6588,0.6588,0.6891,0.7095,0.7095,0.7458,0.7982,0.8678,0.8678,0.9058,0.9814,0.9814,0.9961,1.0312,1.0312,1.0466,1.0813,1.1166,1.1316,1.1366,1.208,1.2559,1.2832,1.2157,1.2049,1.2246,1.1575,1.1316,1.1266,1.0914,1.0568,1.0312,1.0312,1.0064,0.9835,0.9965,1.0011,1.0029,1.0132,0.9872,0.9694,1.0058,0.9735,0.9397,0.9726,0.9805,1.0001,1.0494,1.0411,1.062,1.189,1.1514,1.1081,1.1567,1.1277,1.1213,1.1843,1.225,1.2488,1.2623,1.2905,1.317,1.3329,1.4374,1.5475,1.6552,1.8453,1.9876,2.0519,2.1756,2.2967,2.4103,2.405,2.3834,2.3458,2.2546,2.1238,1.9505,1.7043,1.4216,1.1099,0.8619,0.496,0.0,0.0,0.0,0.0,0.0,0.0,0.0,0.0,1.0432,1.1372,1.1313,1.1344,1.2317,1.2317,1.2374,1.2908,1.2572,1.1911,1.1035,1.0401,0.9347,0.7581,0.7159,0.702,0.702,0.702,0.702,0.702,0.7176,0.7224,0.7224,0.7882,0.8233,0.8233,0.8788,0.9357,0.9893,0.9893,1.0214,1.0813,1.0813,1.0864,1.1015,1.1015,1.1157,1.1408,1.2092,1.2346,1.2395,1.2987,1.3248,1.3248,1.3248,1.2871,1.2346,1.212,1.1674,1.1225,1.1225,1.1115,1.1014,1.099,1.0914,1.0756,1.0548,1.0688,1.0805,1.0283,1.0214,1.0258,1.0474,1.0302,1.0214,1.0625,1.094,1.1169,1.1271,1.1264,1.1469,1.2305,1.1841,1.1345,1.1509,1.1497,1.1442,1.1451,1.1791,1.2097,1.2323,1.2514,1.2762,1.3208,1.4246,1.5377,1.6558,1.9026,2.0653,2.101,2.1601,2.2201,2.2803,2.2873,2.2868,2.2771,2.1789,2.0643,1.9345,1.697,1.4373,1.1562,0.9706,0.6282,1.384,1.2899,1.2822,1.393,1.3266,1.2778,0.0,1.3937,1.3273,1.3632,1.3884,1.3844,1.32,1.3267,1.3174,1.2525,1.2131,1.161,1.0792,1.0107,0.9548,0.8994,0.8708,0.854,0.854,0.854,0.854,0.854,0.9093,0.9444,0.9444,1.01,1.0442,1.0442,1.0493,1.0602,1.0704,1.0704,1.0704,1.0813,1.0813,1.1116,1.1665,1.1665,1.2346,1.3521,1.4133,1.4365,1.4365,1.4468,1.4479,1.4479,1.4479,1.4468,1.4226,1.318,1.2725,1.2676,1.2676,1.2282,1.179,1.1688,1.131,1.0976,1.1447,1.1389,1.1363,1.2243,1.2377,1.2253,1.2569,1.2446,1.2257,1.2179,1.1925,1.1799,1.2246,1.1954,1.1781,1.2316,1.2339,1.2021,1.1367,1.187,1.1939,1.0736,1.1023,1.1405,1.1431,1.2123,1.263,1.2687,1.4024,1.5635,1.7485,1.8718,1.9793,2.077,2.0685,2.0984,2.1812,2.209,2.1907,2.1268,2.0501,1.9672,1.8854,1.6181,1.375,1.1571,1.0221,0.7571,1.4487,1.4126,1.4367,1.4961,1.515,1.5209,1.5336,1.4885,1.4405,1.4321,1.4162,1.3895,1.3527,1.328,1.2939,1.2392,1.1911,1.1423,1.0889,1.0718,1.0566,1.0437,1.0591,1.0355,0.9449,0.971,0.9969,0.9969,1.0218,1.0364,1.0364,1.1015,1.1366,1.1366,1.1792,1.1999,1.1999,1.1999,1.1999,1.1999,1.1999,1.2325,1.2938,1.2938,1.3464,1.4329,1.4606,1.4698,1.4698,1.4698,1.4698,1.4698,1.4698,1.4698,1.4652,1.4107,1.3931,1.3931,1.3931,1.3772,1.3521,1.3476,1.3309,1.3135,1.3129,1.316,1.3144,1.2794,1.2786,1.2811,1.2421,1.2235,1.2125,1.2076,1.2141,1.2246,1.2473,1.2551,1.2645,1.2826,1.3081,1.3057,1.2361,1.2622,1.2602,1.1654,1.1563,1.1645,1.1796,1.228,1.2886,1.3627,1.4811,1.6046,1.7294,1.8288,1.9038,1.95,1.9415,1.9632,2.0287,2.0228,2.005,1.9778,1.8702,1.791,1.7345,1.5306,1.3466,1.1949,1.1264,0.941,1.4871,1.4962,0.0,1.5694,1.647,1.6887,1.6277,1.6024,1.5809,1.5455,1.5091,1.4611,1.4033,1.3846,1.345,1.2684,1.2305,1.2052,1.1738,1.1697,1.1724,1.1817,1.2282,1.2138,1.1014,1.0982,1.092,1.0821,1.0965,1.1065,1.1065,1.1904,1.2355,1.2355,1.3025,1.3382,1.3382,1.3382,1.3382,1.3382,1.3382,1.361,1.405,1.4226,1.4549,1.4971,1.5107,1.5197,1.5197,1.5197,1.5197,1.5197,1.5197,1.5197,1.5197,1.5197,1.4971,1.4698,1.4698,1.471,1.471,1.471,1.4699,1.4687,1.4338,1.4474,1.4485,1.3451,1.3519,1.3682,1.2837,1.262,1.2631,1.2454,1.2567,1.2685,1.2685,1.2943,1.316,1.2998,1.3478,1.3682,1.3035,1.322,1.3277,1.2794,1.234,1.2087,1.2096,1.2376,1.3092,1.4373,1.5326,1.6213,1.7034,1.7955,1.8528,1.8603,1.8528,1.8635,1.8988,1.8812,1.8709,1.876,1.7541,1.677,1.6494,1.4802,1.3454,1.2404,1.2039,1.0728,1.4772,1.4893,1.5176,1.659,1.7094,1.7442,1.7953,1.8108,1.8018,1.7785,1.7703,1.7121,1.5146,1.5473,1.5493,1.3565,1.3656,1.3893,1.3586,1.2987,1.2722,1.3072,1.3503,1.3723,1.3696,1.2318,1.1306,1.0838,1.1416,1.1765,1.1765,1.3034,1.3721,1.3721,1.4329,1.4663,1.4663,1.4663,1.4663,1.4663,1.4663,1.4652,1.4698,1.5276,1.5543,1.5588,1.6194,1.6436,1.6436,1.6436,1.6436,1.6436,1.6436,1.6436,1.6436,1.6436,1.57,1.4698,1.4698,1.4752,1.4787,1.4733,1.4741,1.4787,1.4733,1.4687,1.4698,1.4653,1.5083,1.5421,1.4867,1.4776,1.4689,1.4149,1.3586,1.3163,1.3163,1.3198,1.3048,1.2542,1.3207,1.3658,1.2842,1.346,1.3993,1.3793,1.3196,1.2546,1.1901,1.2276,1.3092,1.4373,1.5172,1.6021,1.7014,1.7778,1.833,1.8585,1.8351,1.8225,1.8222,1.8346,1.8425,1.8416,1.7471,1.6973,1.6973,1.4955,1.3616,1.2853,1.2208,1.1296,1.5912,1.6534,1.7437,1.8596,1.9001,1.8866,1.8249,1.8429,1.8495,1.7549,1.6599,1.5672,1.4793,1.4897,1.4673,1.3322,1.4142,1.4722,1.4179,1.4323,1.4595,1.4719,1.5334,1.5645,1.5358,1.4327,1.3495,1.3023,1.3338,1.3511,1.3511,1.4068,1.4376,1.4376,1.4606,1.4698,1.4698,1.4698,1.4698,1.4698,1.5096,1.5276,1.532,1.592,1.6194,1.6194,1.6423,1.671,1.7034,1.7034,1.7034,1.7034,1.7034,1.7034,1.6993,1.6637,1.6484,1.6361,1.5996,1.5898,1.5917,1.5915,1.5898,1.593,1.5915,1.5876,1.5804,1.5453,1.5526,1.5455,1.4555,1.435,1.4223,1.3634,1.3336,1.3198,1.3198,1.3459,1.3617,1.3422,1.411,1.4626,1.4337,1.4442,1.4409,1.3874,1.3394,1.2984,1.277,1.2816,1.3563,1.5421,1.561,1.6126,1.7433,1.7774,1.7971,1.8061,1.7992,1.7822,1.7608,1.7429,1.7229,1.6992,1.5919,1.5328,1.5342,1.4088,1.3167,1.2623,1.2356,1.1622,1.7036,1.7948,1.8975,1.9617,1.9917,1.9807,1.8924,1.9033,1.9079,1.8276,1.7098,1.6147,1.5648,1.5807,1.5436,1.383,1.491,1.5659,1.5012,1.525,1.5638,1.6095,1.686,1.7393,1.7314,1.6878,1.6105,1.4848,1.5163,1.5315,1.5114,1.544,1.5521,1.5326,1.5521,1.5576,1.5344,1.5344,1.5344,1.5332,1.5732,1.6039,1.6232,1.6612,1.6879,1.7076,1.7076,1.7271,1.7585,1.7585,1.7585,1.7585,1.7585,1.7585,1.7544,1.7188,1.7312,1.7463,1.6752,1.6522,1.6522,1.6522,1.6522,1.6522,1.6522,1.6522,1.6446,1.6082,1.5994,1.586,1.5376,1.5107,1.49,1.4706,1.435,1.4015,1.4015,1.4272,1.4405,1.4157,1.484,1.5394,1.5133,1.5139,1.4944,1.4259,1.4014,1.3868,1.3756,1.3668,1.4316,1.6171,1.6152,1.6475,1.771,1.7681,1.7618,1.7618,1.7502,1.7361,1.7126,1.6815,1.6528,1.6285,1.5256,1.4627,1.4501,1.3802,1.3207,1.2745,1.2684,1.2185,1.8201,1.8985,1.9711,1.9655,1.9935,2.014,1.9912,1.9833,1.9825,1.9871,1.9131,1.8254,1.7305,1.792,1.7783,1.5269,1.6015,1.6768,1.6351,1.5909,1.6096,1.7396,1.8209,1.8945,1.9465,1.9849,1.891,1.6373,1.6855,1.7048,1.6553,1.7069,1.7087,1.6513,1.7115,1.7162,1.6609,1.6572,1.6602,1.6602,1.6565,1.6837,1.7353,1.7353,1.7626,1.8106,1.8106,1.8145,1.8145,1.8145,1.8145,1.8145,1.8145,1.8145,1.8145,1.8106,1.8145,1.7987,1.6951,1.6595,1.6595,1.6595,1.6595,1.6595,1.6595,1.6595,1.6595,1.6552,1.6552,1.6667,1.7149,1.6903,1.6661,1.7129,1.6375,1.5541,1.5541,1.5574,1.5374,1.4772,1.546,1.5915,1.5278,1.5536,1.5589,1.4932,1.508,1.5086,1.4756,1.4697,1.5217,1.6559,1.669,1.6982,1.7743,1.7502,1.7296,1.7296,1.6977,1.6789,1.6789,1.6474,1.6301,1.6274,1.5507,1.4907,1.4533,1.4117,1.3682,1.3245,1.3106,1.2849,1.919,1.9634,2.0182,2.0567,2.0227,1.9954,2.0335,2.0133,1.9812,1.9514,1.8261,1.7021,1.6619,1.7398,1.7881,1.6967,1.8389,1.9608,1.9438,1.907,1.9044,1.9706,1.9953,2.0136,2.0322,2.0986,2.0906,1.9796,1.8838,1.8254,1.8125,1.8019,1.7879,1.7731,1.7897,1.7928,1.7777,1.7784,1.7783,1.7783,1.7731,1.7747,1.7907,1.7907,1.7987,1.8106,1.8106,1.8341,1.8688,1.8688,1.8688,1.8688,1.8688,1.8688,1.865,1.8263,1.8341,1.8612,1.7947,1.7706,1.7706,1.7706,1.7706,1.7706,1.7706,1.7706,1.7626,1.7188,1.7394,1.7518,1.6904,1.6898,1.7046,1.6786,1.6473,1.625,1.625,1.6491,1.6651,1.646,1.6495,1.6498,1.632,1.6025,1.5739,1.5574,1.56,1.5442,1.484,1.4702,1.5183,1.6638,1.6509,1.6742,1.7721,1.7502,1.7296,1.7296,1.6977,1.6686,1.6436,1.6355,1.6191,1.5926,1.5374,1.5043,1.4937,1.4246,1.3835,1.3715,1.2983,1.2591,1.9992,2.0434,2.0779,2.0852,2.0842,2.078,2.0484,2.031,2.0064,1.9639,1.8202,1.708,1.7337,1.8442,1.8922,1.7678,1.991,2.1418,2.0495,2.0357,2.0501,2.0915,2.1047,2.1256,2.1486,2.2071,2.2421,2.2348,2.1055,2.0068,1.9592,1.9393,1.907,1.8581,1.8568,1.8586,1.8575,1.8884,1.8882,1.8611,1.8549,1.8514,1.8458,1.8458,1.8574,1.8817,1.8817,1.8968,1.9244,1.9244,1.9244,1.9244,1.9244,1.9244,1.9207,1.8893,1.9006,1.9207,1.8893,1.8817,1.8727,1.8263,1.8106,1.8106,1.8106,1.8106,1.8027,1.7747,1.7867,1.8023,1.7653,1.7786,1.8001,1.7913,1.7661,1.7459,1.7459,1.7646,1.7783,1.7783,1.7448,1.7145,1.7145,1.6607,1.6189,1.6189,1.5978,1.5664,1.5304,1.5298,1.5729,1.6709,1.6588,1.6773,1.7516,1.7272,1.7076,1.7076,1.6763,1.6421,1.608,1.6095,1.5983,1.5799,1.5551,1.5329,1.5104,1.447,1.4185,1.4238,1.3238,1.296,2.0727,2.1179,2.1393,2.0991,2.1606,2.1998,2.0742,2.0618,2.0588,2.0079,1.8723,1.7904,1.8695,1.9912,2.0195,1.8412,2.101,2.2697,2.1166,2.1241,2.1529,2.185,2.2039,2.2327,2.2711,2.2973,2.3339,2.3841,2.2975,2.1945,2.0882,2.081,2.0384,1.9393,1.9355,1.9391,1.9434,2.0007,1.9963,1.9321,1.9293,1.9208,1.9006,1.9006,1.9244,1.969,1.969,1.969,1.969,1.969,1.969,1.969,1.969,1.969,1.969,1.969,1.969,1.969,1.969,1.969,1.9566,1.8612,1.8302,1.8302,1.8302,1.8302,1.8302,1.8224,1.8263,1.8419,1.8817,1.8968,1.9132,1.9603,1.9256,1.8837,1.8837,1.8837,1.8837,1.8837,1.8298,1.7817,1.7817,1.7279,1.6846,1.6846,1.6443,1.6112,1.6068,1.6174,1.6367,1.6686,1.6738,1.6866,1.7199,1.6926,1.6738,1.6738,1.6421,1.608,1.5799,1.5799,1.5799,1.5799,1.5888,1.5714,1.5325,1.4931,1.4814,1.4902,1.3906,1.3709,2.187,2.1757,2.1581,2.1933,2.2171,2.2226,2.201,2.1789,0.0,2.0499,1.9621,1.9111,1.9284,1.9831,2.07,2.1822,2.2947,2.4033,2.5257,2.4766,2.4241,2.4226,2.3852,2.3505,2.3058,2.3067,2.3115,2.3276,2.304,2.251,2.1405,2.1416,2.1387,2.1254,2.1227,2.122,2.1252,2.1375,2.1084,2.0426,2.0396,2.0108,1.9566,1.9566,1.9603,1.969,1.969,1.969,1.969,1.969,1.969,1.969,1.969,1.969,1.969,1.969,1.969,1.969,1.969,1.969,1.969,1.9479,1.9406,1.9406,1.9406,1.9406,1.9332,1.8893,1.908,1.9332,1.9006,1.9244,1.9566,1.969,1.96,1.951,1.951,1.951,1.951,1.951,1.8986,1.8538,1.8538,1.7951,1.7518,1.7518,1.7761,1.7808,1.7417,1.6488,1.6011,1.6355,1.6382,1.6528,1.6866,1.6581,1.6382,1.6382,1.6067,1.5856,1.5799,1.5799,1.5799,1.5799,1.6293,1.6502,1.641,1.6117,1.5999,1.6003,1.5064,1.4676,2.2274,2.2121,2.2046,2.2598,2.3188,2.3389,2.251,0.0,0.0,2.1001,2.0369,2.0065,2.0158,2.0995,2.174,2.1901,2.4062,2.5733,2.5796,2.6033,2.6079,2.5695,2.4933,2.4318,2.4042,2.3753,2.3761,2.4099,2.3875,2.3335,2.2541,2.2286,2.2165,2.2208,2.2222,2.2193,2.2193,2.2511,2.2364,2.1733,2.1396,2.0872,2.0228,2.0228,2.0034,1.9705,2.0064,2.0019,1.969,1.969,1.969,1.969,1.969,1.969,1.969,1.969,1.969,1.969,1.969,1.9929,2.0168,1.9794,1.969,1.969,1.969,1.969,1.9639,1.9406,1.9479,1.9639,1.9369,1.953,1.969,1.969,1.969,1.969,1.969,1.969,1.969,1.969,1.9435,1.9211,1.9211,1.8672,1.8238,1.8238,1.8312,1.8315,1.8098,1.7712,1.7228,1.6588,1.6686,1.6884,1.7035,1.7062,1.7136,1.7264,1.6841,1.6499,1.6278,1.5978,1.5799,1.5799,1.6383,1.6712,1.6712,1.6704,1.6853,1.7092,1.5864,1.5465,2.3109,2.2955,2.2949,2.3389,2.4167,2.4381,2.2698,2.2982,0.0,2.142,2.1055,2.1073,2.1267,2.2104,2.2599,0.0,2.4613,2.6639,2.5875,2.6675,2.7168,2.6854,2.5837,2.5121,2.4996,2.4507,2.4461,2.503,2.49,2.4458,2.3662,2.3179,2.2944,2.309,2.2979,2.2947,2.3093,2.3451,2.3295,2.2709,2.2158,2.156,2.0917,2.0917,2.0632,2.0154,2.0692,2.0617,2.0109,2.0109,2.0034,1.9899,1.9899,1.9809,1.969,1.969,1.969,1.969,1.969,2.0139,2.0602,1.9914,1.9884,2.0064,1.9779,1.9794,1.9869,1.9735,1.969,1.969,1.969,1.969,1.969,1.969,1.969,1.969,1.969,1.969,1.969,1.969,1.9782,1.9854,1.9854,1.9381,1.9034,1.9034,1.8912,1.8796,1.8796,1.9148,1.8908,1.7548,1.7469,1.7541,1.7541,1.77,1.7889,1.8099,1.7531,1.7029,1.6712,1.6248,1.5979,1.5979,1.6726,1.713,1.713,1.7359,1.7704,1.8057,1.6793,1.642,2.5695,2.5176,2.4607,2.4657,2.4745,2.4381,2.2698,0.0,2.3453,2.1775,2.2043,2.2494,2.2543,2.2382,0.0,0.0,0.0,2.5394,2.7753,2.7617,2.7444,2.7896,2.6979,2.6101,2.5573,2.5189,2.5043,2.509,2.5855,2.5754,2.4476,2.3908,2.3833,2.4431,2.3822,2.3806,2.4432,2.3865,2.3295,2.2724,2.2664,2.2248,2.1605,2.1605,2.1575,2.1515,2.1575,2.156,0.0,2.1515,2.1156,2.0617,2.0617,2.0243,1.969,1.969,1.969,1.969,1.969,2.0139,2.0602,1.9914,2.0513,2.1276,2.0049,2.0124,2.0483,1.9854,1.969,1.969,1.969,1.969,1.969,1.969,1.969,1.969,1.969,1.969,1.969,1.969,2.0,2.0246,2.0246,2.02,2.0153,2.0153,2.0141,2.0128,2.0128,2.0526,2.0527,1.9778,1.884,1.8314,1.8314,1.7943,1.7719,1.7747,1.7133,1.6742,1.6712,1.6652,1.6622,1.6622,1.7861,1.8523,1.8523,1.8637,1.8749,1.8806,1.8163,1.7928,2.7797,2.7786,2.7565,2.7913,2.6823,2.5348,2.438,0.0,2.31,2.1757,2.2255,2.2909,2.2739,2.2567,0.0,0.0,0.0,0.0,2.6732,2.7416,2.7858,2.8084,2.7419,2.6866,2.664,2.5975,2.5648,2.5924,2.6679,2.6739,2.5825,2.5579,2.5556,2.5809,2.5151,2.4941,2.5211,2.4941,2.4477,2.3849,2.3739,2.3208,2.2319,2.2595,2.2343,2.1749,2.2428,2.2508,0.0,2.2126,2.2145,2.2155,2.184,2.1481,2.1155,2.127,2.1054,2.0691,2.085,2.1335,2.1784,2.1111,2.1784,2.2532,2.0827,2.0213,2.0213,2.0737,2.0303,1.9869,2.0677,2.0602,2.0198,1.9794,1.969,1.969,1.969,1.9909,2.0,1.9747,2.0019,2.0314,2.0314,2.0314,2.0382,2.0682,2.0943,2.1102,2.1102,2.1477,2.1665,2.1412,2.0339,1.9578,1.9384,1.9155,1.9106,1.9229,1.8401,1.7891,1.7891,1.7518,1.7294,1.7294,1.8238,1.8702,1.8702,1.9167,1.9369,1.9369,1.8817,1.8574,2.9228,2.9392,2.9443,2.9802,2.7967,2.5847,0.0,0.0,2.2824,2.1719,2.2372,2.3017,2.2848,2.28,2.2899,0.0,0.0,2.5036,2.5844,2.6918,2.7745,2.8059,2.762,2.741,2.7596,2.6997,2.6751,2.7099,2.7424,2.7365,2.6901,2.6886,2.6782,2.6602,2.5959,2.5704,2.5899,2.5704,2.5375,2.4911,2.48,2.4222,2.3251,2.361,2.3203,2.2319,2.3092,2.3176,0.0,2.2731,2.2954,2.3211,2.2707,2.2362,2.2176,2.2189,2.1857,2.1445,2.1633,2.2128,2.2604,2.1904,2.2443,2.3071,2.171,2.0961,2.067,2.1167,2.0766,2.0476,2.153,2.1461,2.0987,2.0518,2.0411,2.0411,2.0411,2.0814,2.0995,2.0512,2.0933,2.1239,2.0778,2.0873,2.1036,2.115,2.1306,2.146,2.1582,2.1899,2.2152,2.2282,2.1535,2.09,2.0499,2.0333,2.0321,2.0485,1.9595,1.9076,1.9076,1.8617,1.8373,1.8373,1.903,1.9299,1.9178,1.9647,1.9818,1.969,1.9332,1.9132,2.9766,2.9676,2.9508,2.9508,2.7537,2.531,0.0,2.3552,2.2824,2.1719,2.2372,2.3078,2.3078,2.3078,2.3131,2.3366,2.3741,0.0,2.5746,2.6258,2.6879,2.7971,2.762,2.7596,2.8418,2.8366,2.8361,2.8584,2.7949,2.7625,2.761,2.761,2.726,2.6617,2.5959,2.5914,2.6572,2.5929,2.5615,2.56,2.56,2.5241,2.4567,2.4612,2.4238,2.358,2.358,2.358,0.0,2.358,2.3496,2.3367,2.2884,2.2565,2.2359,2.1901,2.1695,2.168,2.1695,2.2128,2.2604,2.1904,2.2143,2.2724,2.2709,2.2694,2.234,2.0742,2.0876,2.1596,2.1997,2.2098,2.2082,2.2082,2.2082,2.2082,2.2082,2.2662,2.2951,2.221,2.3046,2.339,2.1845,2.2188,2.2419,2.1697,2.1244,2.115,2.1552,2.1612,2.1794,2.2237,2.231,2.2089,2.1612,2.1213,2.0991,2.0991,2.0366,1.9981,1.9981,1.9965,1.9965,1.9965,2.0623,2.0748,2.0265,2.028,2.0089,1.969,1.969,1.969,3.0071,3.0125,2.9826,2.9826,2.7629,2.5284,2.4564,2.3187,2.1907,2.1556,2.2071,2.2686,2.3002,2.3078,2.3391,2.4202,2.4493,0.0,2.614,2.7034,2.7708,2.8059,2.8497,2.8733,2.8673,2.8872,2.8897,2.8629,2.8397,2.8068,2.764,2.7625,2.752,2.726,2.7066,2.7051,2.726,2.7051,2.6722,2.6273,2.6685,2.6289,2.5285,2.5211,2.4832,2.4268,2.4204,2.4158,2.4199,2.4536,2.4885,2.5125,2.4594,2.4264,2.3983,2.3662,2.3213,2.2812,2.2957,2.3131,2.3351,2.3498,2.3451,2.3348,2.3592,2.2885,2.1979,2.18,2.2583,2.3382,2.2955,2.3208,2.3285,2.2322,2.2501,2.271,2.2228,2.2947,2.3503,2.2971,2.3405,2.3753,2.3258,2.2912,2.2742,2.2802,2.2291,2.1945,2.2061,2.2077,2.2135,2.2282,2.231,2.2237,2.2106,2.1675,2.1399,2.1399,2.094,2.0671,2.0671,2.0399,2.0188,2.0188,2.0119,2.005,1.9874,1.9874,1.9803,1.969,1.969,1.969,0.0,2.9636,2.947,2.947,2.6972,0.0,0.0,2.2565,2.1242,2.1443,2.1933,2.2472,2.2977,2.3078,2.3439,2.4368,2.4682,2.5209,2.637,2.7231,2.8003,2.8554,2.9197,2.9551,2.9694,2.9547,2.9307,2.8973,2.8502,2.8023,2.764,2.7625,2.7625,2.7625,2.7625,2.7625,2.7625,2.7625,2.7245,2.6602,2.72,2.6667,2.5241,2.5409,2.5133,2.4544,2.4425,2.4496,0.0,2.5067,2.554,2.5961,2.5411,2.5211,2.5212,2.4853,2.4406,2.403,2.4168,2.4184,2.4266,2.4576,2.4471,2.423,2.4442,2.3288,2.2125,2.3043,2.3796,2.427,2.4137,2.4425,2.4505,2.3621,2.3752,2.3965,2.3506,2.4232,2.4797,2.4214,2.458,2.478,2.4229,2.3946,2.3792,2.3802,2.319,2.2733,2.2733,2.2479,2.231,2.231,2.231,2.231,2.231,2.2032,2.1853,2.1853,2.1645,2.1493,2.1493,2.1213,2.0975,2.0797,2.055,2.0261,1.9945,1.9782,1.969,1.969,1.969,1.969,0.0,2.8154,2.8234,2.8275,2.5664,2.3002,0.0,0.0,0.0,2.133,2.187,2.2435,2.2965,2.3078,2.3351,2.4004,2.4506,2.5222,2.6364,2.7087,2.7972,2.9272,2.9781,3.0238,3.1042,3.0233,2.9624,2.9579,2.8382,2.7619,2.7625,2.7625,2.7625,2.766,2.7615,2.7615,2.766,2.771,2.7379,2.6733,2.7349,2.6642,2.4792,2.5363,2.5226,2.4549,2.4486,2.4736,2.5221,2.5259,2.554,2.5961,2.5449,2.5577,2.5941,2.5411,2.5221,2.5221,2.5221,2.5221,2.5221,2.5221,2.5221,2.5259,2.5259,2.397,2.2842,2.4446,2.4606,2.4535,2.543,2.5693,2.5676,2.5625,2.5642,2.5659,2.5625,2.6184,2.6488,2.5812,2.6234,2.6251,2.4896,2.5169,2.5372,2.4661,2.3934,2.346,2.341,2.2852,2.2429,2.2327,2.2361,2.2361,2.231,2.231,2.231,2.231,2.231,2.231,2.231,2.2282,2.2049,2.1628,2.1582,2.1165,2.0348,1.9929,1.9747,1.9747,1.9711,1.969,2.5145,0.0,2.4949,2.5346,2.3949,2.2397,0.0,0.0,0.0,0.0,0.0,2.1983,2.2962,2.3078,2.359,2.4996,2.4996,2.5347,2.6866,2.8627,2.949,2.899,3.0486,3.1141,3.0125,3.0177,3.0088,2.9609,2.8816,2.8128,2.7655,2.7625,2.781,2.8271,2.7716,2.7701,2.8271,2.8732,2.8588,2.791,2.8068,2.7567,2.6592,2.623,2.5967,2.5742,2.5227,2.5089,2.5221,2.5652,2.5888,2.5977,2.5852,2.5888,2.5941,2.5411,2.5221,2.5221,2.5221,2.5221,2.5221,2.5221,2.5503,2.5815,2.5815,2.5222,2.4697,2.5504,2.5625,2.5713,2.6286,2.6437,2.6302,2.5744,2.6031,2.6285,2.5727,2.6184,2.664,2.6471,2.6573,2.6573,2.6234,2.5862,2.5541,2.5372,2.4695,2.4036,2.346,2.3731,2.3545,2.2429,2.2801,2.2919,2.2361,2.231,2.231,2.231,2.231,2.231,2.231,2.1974,2.1718,2.1582,2.1306,2.1023,2.0829,2.0398,2.0158,2.0158,1.9839,1.969,2.3846,2.3957,2.3826,2.4142,2.3032,2.1857,2.1556,0.0,0.0,0.0,0.0,2.1832,2.2924,2.3565,2.428,2.541,2.5799,2.6352,2.7494,2.8582,2.9521,3.013,3.0693,3.1108,3.1395,3.0628,2.9939,2.9609,2.8682,2.8101,2.8024,2.7993,2.8271,2.8873,2.8453,2.8262,2.8386,2.8386,2.8051,2.7348,2.7641,2.7243,2.6294,2.6222,2.6174,2.6069,2.5702,2.5672,2.5892,2.621,2.6332,2.6332,2.6332,2.6332,2.6297,2.6016,2.5892,2.5892,2.5892,2.5892,2.5892,2.5892,2.6087,2.6332,2.6332,2.6139,2.5944,2.6245,2.6156,2.612,2.659,2.6691,2.659,2.6201,2.6404,2.659,2.6184,2.642,2.6793,2.7148,2.6928,2.681,2.7148,2.659,2.6218,2.6573,2.5693,2.4983,2.4915,2.4661,2.4201,2.3393,2.3359,2.3376,2.3308,2.2699,2.231,2.231,2.231,2.231,2.231,2.2061,2.1823,2.1612,2.1213,2.0991,2.0991,2.0516,2.0314,2.028,1.9874,1.9854,2.3095,2.3472,2.3625,2.3683,2.2566,2.1468,2.138,0.0,0.0,0.0,0.0,0.0,2.3163,2.4104,2.4958,2.5724,2.6804,2.7805,2.848,2.873,2.9552,3.1557,3.087,3.1025,3.2974,3.1001,2.9633,2.9726,2.8387,2.7841,2.8451,2.8342,2.8559,2.9175,2.8951,2.8657,2.8227,2.7718,2.7122,2.643,2.7025,2.6623,2.5465,2.6018,2.62,2.612,2.612,0.0,2.6691,2.6691,2.6691,2.6691,2.6691,2.6691,2.6691,2.6691,2.6691,2.6691,2.6691,2.6691,2.6691,2.6691,2.6691,2.6691,2.6691,2.6691,2.6691,2.6691,2.6401,2.6191,2.659,2.6691,2.6691,2.6691,2.6691,2.6691,2.6691,2.6691,2.6911,2.7637,2.73,2.7114,2.7858,2.7469,2.7249,2.7909,2.6928,2.6268,2.664,2.5693,2.4864,2.4557,2.4036,2.39,2.432,2.319,2.2479,2.2479,2.2361,2.2361,2.2462,2.2361,2.2157,2.1883,2.1433,2.1197,2.1197,2.0715,2.0516,2.0483,2.0104,2.0192,2.1763,2.2179,2.2609,2.3,2.2298,2.1368,2.0957,0.0,0.0,0.0,0.0,0.0,0.0,2.4318,2.4757,2.6703,2.7959,2.9149,3.0555,3.1763,3.2398,3.1748,3.2451,3.2509,3.1545,3.035,2.9818,3.0299,2.855,2.7674,2.8291,2.7735,2.7688,2.8265,2.7623,2.7437,2.7878,2.8451,2.835,2.7559,2.766,2.7257,2.647,2.6588,2.6605,2.659,0.0,2.6624,2.6691,2.6691,2.6691,2.6691,2.6691,2.6691,2.6691,2.6691,2.6691,2.6691,2.6691,2.6691,2.6691,2.6691,2.6691,2.6691,2.6691,2.6691,2.6691,2.6691,2.6657,2.6624,2.6691,2.6691,2.6691,2.6691,2.6691,2.6691,2.6691,2.6691,2.6911,2.7637,2.7688,2.7892,2.867,2.8704,2.8706,2.8789,2.8602,2.8027,2.6843,2.7063,2.659,2.4709,2.4949,2.4797,2.3663,2.3359,2.3224,2.3224,2.2649,2.2581,2.3207,2.2632,2.2569,2.3102,2.2454,2.2106,2.2106,2.1628,2.1399,2.1383,2.0991,2.086,2.0492,2.0991,2.1549,2.2076,2.2065,2.1945,2.1995,0.0,0.0,0.0,0.0,0.0,0.0,0.0,2.6942,2.9139,2.9616,3.0047,3.1027,3.1648,3.1988,3.1954,3.2079,3.2139,3.1901,3.0496,2.9667,2.9863,2.8678,2.8072,2.8158,2.8257,2.8371,2.8569,2.7818,2.7506,2.7789,2.7774,2.7571,2.7215,2.7215,2.7029,2.6691,2.6691,2.6691,2.6691,0.0,2.6691,2.6691,2.6691,2.6691,2.6691,2.6691,2.6691,2.6691,2.6691,2.6691,2.6691,2.6691,2.6691,2.6691,2.6691,2.6691,2.6691,2.6691,2.6691,2.6691,2.6691,2.6996,2.7199,2.6793,2.7317,2.7824,2.7402,2.7621,2.7926,2.7926,2.7926,2.8146,2.8907,2.8721,2.8687,2.9448,2.9245,2.9127,2.9533,2.9245,2.8873,2.8586,2.8129,2.7418,2.6404,2.5879,2.549,2.5203,2.4441,2.3816,2.3427,2.3088,2.3224,2.3951,2.3291,2.3054,2.3393,2.3071,2.2699,2.231,2.1823,2.181,2.2172,2.1359,2.1407,1.951,2.0125,2.0819,2.1192,0.0,2.2133,2.289,0.0,0.0,0.0,0.0,0.0,0.0,2.7155,2.8724,3.0633,3.0722,3.0963,3.195,3.1776,3.1854,3.2664,3.197,3.1649,3.2184,3.0642,2.9524,2.9332,2.8591,2.8164,2.8031,2.839,2.8565,2.8467,2.7858,2.7554,2.7554,2.6979,2.6691,2.6691,2.6691,2.6691,2.6691,2.6691,2.6691,2.6691,2.6691,2.6691,2.6691,2.6691,2.6691,2.6691,2.6691,2.6691,2.6691,2.6691,2.6691,2.6691,2.6691,2.681,2.6928,2.6759,2.681,2.6928,2.6742,2.6826,2.6962,2.6962,2.7638,2.8146,2.7199,2.796,2.8822,2.823,2.8552,2.9011,2.9011,2.9011,2.9211,2.9973,2.9634,2.9482,3.0226,2.9888,2.9702,3.0277,2.9871,2.9651,3.0057,2.9093,2.8178,2.7823,2.681,2.6218,2.642,2.5406,2.4509,2.3951,2.3917,2.4171,2.4712,2.4036,2.3646,2.3646,2.3477,2.3038,2.231,2.2095,2.2325,2.2839,2.1984,2.2118,1.907,1.9861,2.0731,2.0769,2.0806,0.0,2.2774,2.2711,0.0,2.4983,0.0,0.0,0.0,2.767,2.8426,2.9476,3.0494,3.1977,3.4271,3.408,3.3839,3.4267,3.3184,3.2154,3.1601,3.0372,2.9535,2.934,2.8065,2.7462,2.7784,2.7214,2.6877,2.686,2.681,2.6776,2.6776,2.6725,2.6691,2.6691,2.6691,2.6691,2.6691,2.6691,2.6691,2.6691,2.6691,2.6691,2.6691,2.6691,2.6691,2.6691,2.6691,2.6691,2.6691,2.6691,2.6691,2.6691,2.6691,2.7165,2.7621,2.6911,2.7165,2.757,2.6911,2.7182,2.7705,2.7705,2.8805,2.96,2.8129,2.8366,2.9011,2.8943,2.8941,2.9011,2.9011,2.9011,2.9211,2.9973,3.0074,3.026,3.0987,3.1072,3.1055,3.1106,3.1072,3.0801,3.0192,3.0006,2.9397,2.7941,2.7688,2.7131,2.5795,2.5592,2.5507,2.5456,2.5456,2.5473,2.5524,2.4797,2.4438,2.4438,2.3748,2.3038,2.231,2.2958,2.3313,2.3363,2.3266,2.327,1.8518,1.9823,2.1091,2.0806,2.097,0.0,0.0,2.4029,2.4406,2.6264,2.6917,0.0,0.0,2.8825,2.9834,3.0453,3.1696,3.2973,3.4125,3.4272,3.4031,3.3319,3.2452,3.1644,3.0956,2.9729,2.9063,2.9275,2.8423,2.7867,2.7805,2.7554,2.7182,2.6708,2.6691,2.6691,2.6691,2.6691,2.6691,2.6691,2.6691,2.6691,2.6691,2.6691,2.6691,2.6691,2.6691,2.6691,2.6691,2.6691,2.6691,2.6691,2.6691,2.6979,2.7334,2.686,2.6996,2.7334,2.686,2.7182,2.7739,2.7486,2.7553,2.7858,2.8061,2.7977,2.7891,2.8416,2.9296,2.9871,2.8822,2.9448,3.0243,2.9786,3.0023,3.0362,3.0362,3.0362,3.0446,3.0734,3.0784,3.0869,3.114,3.119,3.119,3.119,3.119,3.1106,3.0818,3.0378,2.9888,2.9296,2.8822,2.7926,2.6404,2.6708,2.6776,2.6302,2.5862,2.5812,2.6268,2.5575,2.5186,2.5186,2.4915,2.4408,2.3663,2.3934,2.4306,2.4763,2.4289,2.4323,1.8417,1.9823,2.1179,0.0,0.0,0.0,2.4556,2.4946,2.5385,2.7394,2.7959,2.8059,2.7871,0.0,3.0063,3.0743,3.1987,3.3142,3.3999,3.3809,3.3215,3.2302,3.145,3.0657,2.9968,2.9064,2.856,2.8608,2.8164,2.7735,2.745,2.7469,2.7232,2.6708,2.6691,2.6691,2.6691,2.6691,2.6691,2.6691,2.6691,2.6691,2.6691,2.6691,2.6691,2.6691,2.6691,2.6691,2.6691,2.6691,2.6691,2.6691,2.6691,2.7012,2.7402,2.6894,2.7012,2.7418,2.7148,2.7537,2.8197,2.8197,2.8197,2.8281,2.8822,2.8619,2.8349,2.9127,2.9871,3.0328,2.982,3.0429,3.1072,3.0565,3.0835,3.119,3.119,3.119,3.119,3.119,3.119,3.119,3.119,3.119,3.119,3.119,3.119,3.119,3.119,3.0768,3.0362,3.0125,2.9431,2.8552,2.7503,2.7672,2.7588,2.708,2.6353,2.6167,2.6674,2.6218,2.5845,2.5609,2.5609,2.5236,2.4506,2.4712,2.5101,2.5592,2.5067,2.5118,1.8882,1.9836,2.0803,0.0,0.0,0.0,2.5071,2.5184,2.5598,2.8348,2.8473,2.7934,2.7369,2.7733,2.853,2.9866,3.0976,3.2312,3.4174,3.2766,3.1482,3.1452,3.0357,2.931,2.8652,2.8473,2.8046,2.7254,2.6999,2.6829,2.6708,2.6691,2.6691,2.6691,2.6691,2.6691,2.6691,2.6691,2.6691,2.6691,2.6691,2.6691,2.6691,2.6691,2.6691,2.6691,2.6691,2.6691,2.6691,2.6691,2.6691,2.6691,2.6691,2.6691,2.6708,2.6691,2.6708,2.6826,2.7571,2.8332,2.8991,2.8991,2.8991,2.8991,2.9045,2.9045,2.9144,2.9905,3.0632,3.119,3.119,3.119,3.119,3.119,3.119,3.119,3.119,3.119,3.119,3.119,3.119,3.119,3.119,3.119,3.119,3.119,3.119,3.119,3.119,3.119,3.092,3.0192,2.9448,2.9045,2.9011,2.8281,2.7806,2.7789,2.7114,2.6708,2.6691,2.6691,2.6353,2.5625,2.5625,2.5253,2.4523,2.5253,2.5625,2.5625,2.5625,2.5625,1.9083,2.0112,0.0,2.0966,0.0,0.0,0.0,2.4356,0.0,0.0,2.7645,2.7356,2.6804,2.8011,2.9122,2.9339,3.0847,3.2048,3.2348,3.1898,3.1195,3.0268,2.8981,2.815,2.7904,2.7359,2.7063,2.7259,2.7039,2.7061,2.7451,2.6979,2.6691,2.6691,2.6691,2.6691,2.6691,2.6691,2.6691,2.6691,2.6691,2.6691,2.6691,2.6691,2.6691,2.6691,2.6691,2.6691,2.6691,2.6691,2.6691,2.6691,2.6691,2.7012,2.7418,2.6894,2.7385,2.8264,2.7926,2.8687,2.977,2.977,2.977,2.9871,3.0378,3.0192,2.9922,3.0666,3.1021,3.119,3.119,3.119,3.119,3.119,3.119,3.119,3.119,3.119,3.119,3.119,3.119,3.119,3.119,3.119,3.119,3.119,3.119,3.119,3.119,3.119,3.092,3.0192,3.0362,3.0125,2.9113,2.9262,2.8958,2.7857,2.757,2.7249,2.6708,2.6691,2.659,2.637,2.637,2.6268,2.6031,2.6268,2.637,2.637,2.637,2.637,1.9849,2.0577,0.0,2.1556,2.2573,2.3477,2.3477,0.0,0.0,0.0,2.6766,2.664,2.6624,2.7559,2.8505,2.9114,3.0131,3.0942,3.1053,3.0447,2.9669,2.8876,2.7604,2.6879,2.7106,2.6669,2.6562,2.7122,2.6923,2.6983,2.7333,2.6945,2.6691,2.6691,2.6691,2.6556,2.6268,2.6539,2.6539,2.6268,2.6556,2.6691,2.6691,2.6691,2.6691,2.6691,2.6691,2.6691,2.6691,2.6691,2.6691,2.6691,2.6691,2.6962,2.7317,2.686,2.7283,2.8044,2.7875,2.8433,2.9296,2.9905,2.9702,2.9448,3.0784,3.048,2.9871,3.0903,3.119,3.119,3.119,3.119,3.119,3.119,3.119,3.119,3.119,3.119,3.119,3.119,3.119,3.119,3.119,3.119,3.119,3.119,3.119,3.119,3.119,3.119,3.1021,3.0581,3.0937,3.0835,2.9939,3.0006,2.9719,2.8789,2.8127,2.7621,2.7165,2.686,2.6843,2.7131,2.6843,2.6843,2.7148,2.6843,2.6691,2.6691,2.6691,2.6691,2.0941,2.1154,2.1179,2.2686,2.3489,0.0,2.3991,2.4669,2.546,2.6038,0.0,2.5752,2.6425,2.672,2.735,2.8852,2.9087,2.9291,3.0037,2.8607,2.7505,2.7445,2.6321,2.5773,2.624,2.6157,2.626,2.6667,2.6567,2.6522,2.659,2.6522,2.6522,2.659,2.6522,2.6184,2.5507,2.6167,2.6167,2.5507,2.6251,2.659,2.659,2.6657,2.6691,2.6691,2.6691,2.6691,2.6691,2.6691,2.6691,2.6691,2.6691,2.6691,2.6691,2.6691,2.6742,2.6894,2.7588,2.7874,2.8228,2.9651,2.9211,2.8518,3.0565,3.0243,2.9465,3.0818,3.119,3.119,3.119,3.119,3.119,3.119,3.119,3.119,3.119,3.119,3.119,3.119,3.119,3.119,3.119,3.119,3.119,3.119,3.119,3.119,3.119,3.119,3.119,3.119,3.119,3.119,3.119,3.0581,3.0176,3.0108,2.8769,2.7941,2.7789,2.7165,2.7114,2.7772,2.7215,2.7199,2.7789,2.7131,2.6759,2.6691,2.6691,2.6691,2.1355,2.1719,0.0,0.0,2.2912,2.3439,2.3891,2.3489,2.3175,2.374,2.4577,2.5288,2.5398,2.6832,2.7938,2.7781,2.8305,2.8411,2.7575,2.7066,2.6617,2.6093,2.5667,2.5503,2.5589,2.5288,2.5141,2.5231,2.5079,2.522,2.5812,2.5287,2.5236,2.5828,2.527,2.4881,2.4729,2.4881,2.4881,2.4729,2.5473,2.5845,2.5862,2.6437,2.6691,2.6691,2.6691,2.6691,2.6691,2.6691,2.6691,2.6691,2.6691,2.6691,2.6691,2.6691,2.7063,2.7604,2.7722,2.8566,2.9668,3.0006,3.0277,3.0565,3.1055,3.097,3.0784,3.1106,3.119,3.119,3.119,3.119,3.119,3.119,3.119,3.119,3.119,3.119,3.119,3.119,3.119,3.119,3.119,3.119,3.119,3.119,3.119,3.119,3.119,3.119,3.119,3.119,3.119,3.119,3.119,3.1055,3.0717,3.0142,2.9803,2.9076,2.784,2.7672,2.762,2.7789,2.8264,2.8264,2.7789,2.762,2.7283,2.6691,2.6691,2.6691,2.1594,0.0,0.0,2.2924,0.0,2.3489,2.3251,2.2743,2.2347,2.2373,2.3163,2.3997,2.4709,2.5737,2.6505,2.6484,2.6891,2.6931,2.6213,2.5854,2.5603,2.5515,2.4848,2.4574,2.5075,2.4603,2.4364,2.4663,2.4553,2.4661,2.505,2.4726,2.4692,2.505,2.4678,2.4337,2.3998,2.4337,2.4337,2.3968,2.4712,2.5067,2.5101,2.6201,2.6302,2.5676,2.6387,2.6285,2.5659,2.6031,2.5964,2.5676,2.6031,2.6167,2.6218,2.6573,2.6945,2.7283,2.7283,2.7807,2.8586,2.933,2.933,2.9313,3.0751,3.07,3.0277,3.0987,3.119,3.119,3.119,3.119,3.119,3.119,3.119,3.119,3.119,3.119,3.119,3.119,3.119,3.119,3.119,3.119,3.119,3.119,3.119,3.119,3.119,3.119,3.119,3.119,3.119,3.119,3.119,3.119,3.1038,3.0649,3.0311,2.9583,2.8433,2.8383,2.8383,2.8383,2.8772,2.8789,2.8383,2.801,2.7435,2.6691,2.6691,2.6691,2.1644,0.0,2.2159,2.374,2.4255,0.0,2.3001,2.2782,2.2658,2.2177,2.2364,2.2983,2.4162,2.4471,2.4728,2.5342,2.5255,2.5182,2.5379,2.4822,2.4605,2.5102,2.42,2.3818,2.4521,2.4034,2.3815,2.4289,2.4201,2.4201,2.432,2.4201,2.4201,2.432,2.4201,2.3816,2.3224,2.3816,2.3799,2.3224,2.3951,2.432,2.4371,2.5693,2.5642,2.4574,2.5778,2.5625,2.4557,2.5152,2.505,2.4574,2.5169,2.549,2.5676,2.6285,2.659,2.6691,2.6691,2.6776,2.7097,2.8366,2.8095,2.774,3.0243,3.0243,2.9617,3.0852,3.119,3.119,3.119,3.119,3.1157,3.1038,3.1106,3.119,3.119,3.1292,3.1343,3.1207,3.119,3.1241,3.136,3.1275,3.1241,3.136,3.1275,3.119,3.119,3.119,3.119,3.119,3.119,3.119,3.119,3.119,3.119,3.119,3.0632,2.9905,2.9062,2.911,2.9042,2.8789,2.8943,2.8924,2.8789,2.8129,2.7435,2.6691,2.6691,2.6691,2.1393,0.0,2.3213,0.0,2.5242,2.5608,0.0,0.0,2.4207,2.412,2.3786,2.3569,2.376,2.4212,2.461,2.4716,2.3804,2.3447,2.4425,2.3958,2.374,2.4205,2.4475,2.4386,2.3884,2.361,2.3469,2.3545,2.2953,2.2868,2.3511,2.2936,2.2885,2.3528,2.2936,2.2547,2.2462,2.2547,2.2547,2.2462,2.319,2.3545,2.3579,2.4391,2.4709,2.4523,2.4726,2.4692,2.4523,2.4625,2.4608,2.4523,2.4625,2.5033,2.5625,2.571,2.615,2.6691,2.6691,2.7131,2.7671,2.7909,2.8738,2.9736,3.0125,3.0565,3.0937,3.114,3.119,3.119,3.119,3.119,3.1038,3.0395,3.0734,3.119,3.119,3.1681,3.1952,3.1309,3.119,3.1393,3.2019,3.1613,3.141,3.2036,3.1596,3.119,3.119,3.119,3.119,3.119,3.119,3.119,3.119,3.119,3.119,3.119,3.1106,3.0429,2.9079,2.96,2.933,2.801,2.8636,2.8653,2.7977,2.784,2.7435,2.6691,2.6691,2.6691,2.1631,2.2774,2.3927,0.0,2.602,2.6352,2.5499,2.5467,2.5313,2.4287,2.413,2.4069,2.3732,2.357,2.3535,2.3535,2.2742,2.2405,2.3125,2.2972,2.3073,2.3783,2.3684,2.3555,2.3543,2.3072,2.2784,2.2784,2.2496,2.2446,2.2767,2.2496,2.2462,2.2784,2.2479,2.231,2.231,2.231,2.2388,2.2527,2.2683,2.2864,2.3007,2.3175,2.3274,2.3308,2.415,2.4019,2.3291,2.3697,2.363,2.3342,2.4201,2.4678,2.5067,2.5913,2.642,2.6691,2.6691,2.6911,2.7249,2.7689,2.8245,2.8991,2.9854,3.0328,3.0666,3.1072,3.119,3.119,3.119,3.119,3.1123,3.0784,3.0954,3.119,3.119,3.1444,3.1698,3.1782,3.2138,3.2544,3.2848,3.229,3.1918,3.2263,3.1664,3.119,3.119,3.1546,3.1647,3.1241,3.1562,3.163,3.1241,3.119,3.119,3.119,3.119,3.0717,2.9651,2.9533,2.8958,2.7806,2.8586,2.8602,2.7789,2.7789,2.7435,2.6691,2.6691,2.6691,0.0,0.0,2.4313,2.5673,2.676,2.7278,0.0,0.0,2.6483,2.4582,2.4397,2.4373,2.3729,2.3101,2.2709,2.2832,2.2149,2.1843,2.2567,2.2514,2.271,2.3522,2.3124,2.2898,2.311,2.2632,2.231,2.231,2.231,2.231,2.231,2.231,2.231,2.231,2.231,2.231,2.231,2.2377,2.2463,2.2599,2.2554,2.2581,2.2695,2.25,2.2398,2.2466,2.3502,2.3308,2.2344,2.2885,2.2801,2.2412,2.3511,2.4154,2.4642,2.5727,2.637,2.6691,2.6691,2.6691,2.6793,2.7351,2.7672,2.8026,2.9414,2.9956,3.026,3.0987,3.119,3.119,3.119,3.119,3.114,3.097,3.1055,3.1292,3.1681,3.1613,3.1749,3.2662,3.3152,3.3457,3.3643,3.2899,3.2341,3.2544,3.1935,3.141,3.1207,3.1833,3.2002,3.1275,3.1783,3.1947,3.1402,3.1351,3.1351,3.1351,3.1269,3.0869,3.0142,2.9567,2.8805,2.7806,2.8586,2.8501,2.7537,2.7537,2.7249,2.6691,2.6691,2.6691,0.0,2.2897,0.0,2.553,2.753,2.9014,0.0,2.836,2.7927,2.5911,2.5015,2.4373,2.3729,2.3101,2.2817,2.3216,2.2154,2.1851,2.3405,2.3096,2.2874,2.3354,2.338,2.3093,2.2429,2.2327,2.231,2.231,2.231,2.231,2.231,2.231,2.231,2.231,2.231,2.231,2.231,2.2615,2.2615,2.2338,2.2883,2.2996,2.2695,2.2695,2.2669,2.266,2.2483,2.2378,2.231,2.2344,2.2344,2.231,2.2395,2.3274,2.4523,2.4608,2.549,2.6691,2.6691,2.6691,2.6708,2.6742,2.7232,2.7977,2.8789,2.955,3.026,3.0987,3.119,3.119,3.119,3.119,3.1021,3.0328,3.0683,3.1579,3.2983,3.273,3.2645,3.41,3.3846,3.3626,3.432,3.3237,3.2527,3.3237,3.2713,3.1968,3.1275,3.1833,3.2002,3.1275,3.1579,3.1787,3.1789,3.1789,3.1789,3.1789,3.1411,3.0869,3.0142,3.0074,2.9347,2.7823,2.8586,2.8247,2.6759,2.6759,2.6725,2.6691,2.6691,2.6691,0.0,0.0,0.0,2.5292,2.6517,2.7487,2.7768,2.7928,2.7619,2.6482,2.5719,2.5061,2.4388,2.3385,2.2681,2.2671,2.1883,2.1525,2.2246,2.2155,2.2175,2.2642,2.2699,2.2598,2.2344,2.231,2.231,2.231,2.231,2.231,2.231,2.231,2.231,2.231,2.231,2.231,2.231,2.2581,2.2781,2.2883,2.3111,2.3236,2.3323,2.2898,2.2695,2.2695,2.2426,2.231,2.231,2.231,2.231,2.2361,2.2818,2.3613,2.4574,2.5033,2.5828,2.6691,2.6691,2.6691,2.6691,2.6691,2.7199,2.784,2.8146,2.911,3.0176,3.0429,3.0835,3.119,3.119,3.119,3.1123,3.0869,3.1004,3.1596,3.3085,3.3186,3.3305,3.4303,3.4675,3.4912,3.5165,3.3981,3.3254,3.3998,3.2662,3.1664,3.1867,3.2121,3.2002,3.1275,3.1737,3.1922,3.1462,3.1411,3.1411,3.1411,3.1291,3.1072,3.0818,3.0362,2.9854,2.9296,2.9076,2.823,2.6691,2.7182,2.7165,2.6708,2.7199,2.7418,2.2572,0.0,0.0,0.0,2.5749,2.6469,2.6862,2.7081,2.7051,2.6393,2.5914,2.5452,2.4957,2.4197,2.3392,2.2636,2.2283,2.2031,2.1867,2.1823,2.1957,2.2254,2.231,2.231,2.231,2.231,2.231,2.231,2.231,2.231,2.231,2.231,2.231,2.231,2.231,2.231,2.231,2.2695,2.2923,2.3045,2.3259,2.3482,2.3671,2.3021,2.2772,2.2848,2.248,2.231,2.231,2.231,2.231,2.2361,2.2835,2.3477,2.4171,2.4678,2.549,2.6336,2.6336,2.6488,2.6691,2.6691,2.7029,2.7486,2.7705,2.8721,2.9786,3.004,3.0632,3.119,3.119,3.119,3.119,3.119,3.1376,3.1901,3.3136,3.3406,3.3694,3.4675,3.5267,3.5622,3.5622,3.4387,3.366,3.4387,3.2814,3.1732,3.2222,3.251,3.2374,3.1647,3.2366,3.2622,3.1871,3.1803,3.1701,3.1428,3.1252,3.119,3.119,3.0734,3.0362,3.0108,2.9854,2.8975,2.7469,2.796,2.796,2.7469,2.7977,2.8213,0.0,0.0,0.0,0.0,2.5381,2.6333,2.5719,2.6108,2.6456,2.5811,2.5706,2.5681,2.5515,2.549,2.4973,2.3358,2.3466,2.3405,2.2478,2.2378,2.2378,2.2378,2.2378,2.2361,2.2344,2.2344,2.2327,2.231,2.231,2.231,2.231,2.231,2.231,2.231,2.231,2.231,2.231,2.2908,2.3045,2.2746,2.3392,2.3714,2.3692,2.3021,2.288,2.3183,2.2544,2.231,2.231,2.231,2.231,2.231,2.231,2.275,2.3393,2.3393,2.4323,2.5609,2.5609,2.6082,2.6691,2.6691,2.6691,2.6826,2.7571,2.8332,2.911,2.9871,3.0598,3.1173,3.119,3.119,3.119,3.119,3.1749,3.2493,3.3237,3.3423,3.3863,3.5334,3.5622,3.5622,3.5622,3.4387,3.366,3.4387,3.322,3.2256,3.2313,3.2916,3.3085,3.2357,3.3362,3.3775,3.3069,3.3,3.2671,3.1875,3.1445,3.1207,3.119,3.119,3.0869,3.0159,3.0835,3.048,2.9042,2.9025,2.9045,2.9011,2.9045,2.9025,2.2768,0.0,0.0,0.0,0.0,0.0,2.4837,2.6168,2.7242,2.6995,2.7749,2.8237,2.7688,2.7467,2.6916,2.5415,2.4786,2.4365,2.3941,2.3883,2.3883,2.3883,2.3883,2.3663,2.3139,2.3105,2.2868,2.2344,2.231,2.231,2.231,2.231,2.231,2.231,2.231,2.2371,2.2573,2.3014,2.3277,2.3414,2.361,2.3816,2.4016,2.3117,2.288,2.3183,2.2544,2.231,2.231,2.231,2.231,2.231,2.231,2.275,2.3393,2.3393,2.4323,2.5609,2.5609,2.6082,2.6691,2.6691,2.6691,2.6725,2.6945,2.7537,2.8298,2.9076,2.9837,3.0531,3.1055,3.119,3.119,3.119,3.1749,3.2493,3.3237,3.3829,3.4472,3.5436,3.5622,3.5622,3.5622,3.4387,3.366,3.4387,3.278,3.1681,3.2246,3.2459,3.251,3.2347,3.3073,3.3512,3.3308,3.3274,3.2951,3.2224,3.2049,3.1749,3.1207,3.119,3.1106,3.0903,3.1089,3.0987,3.0581,3.0057,2.9516,2.8991,2.955,3.0074,0.0,0.0,0.0,0.0,0.0,0.0,2.3789,2.4894,2.6058,2.6514,2.7243,2.7874,2.8188,2.8216,2.7949,2.7344,2.6864,2.6066,2.4681,2.4506,2.4506,2.4506,2.4506,2.4337,2.3883,2.3579,2.3224,2.2801,2.2479,2.231,2.231,2.231,2.231,2.231,2.231,2.2388,2.2537,2.2989,2.33,2.3482,2.3631,2.3795,2.3958,2.3093,2.2822,2.3007,2.2508,2.231,2.231,2.231,2.231,2.231,2.231,2.2564,2.2936,2.2936,2.368,2.4729,2.5033,2.5625,2.6285,2.659,2.6691,2.6691,2.6691,2.7232,2.7977,2.8755,2.9736,3.0666,3.1089,3.119,3.119,3.119,3.1749,3.2493,3.3237,3.3981,3.4726,3.547,3.5622,3.5622,3.5622,3.4641,3.4117,3.4861,3.3339,3.2374,3.3102,3.3203,3.3203,3.3203,3.388,3.4201,3.3897,3.3863,3.349,3.2644,3.2576,3.2234,3.1466,3.1449,3.1389,3.119,3.119,3.119,3.119,3.0768,3.0345,2.9922,3.0362,3.0784,0.0,0.0,0.0,0.0,2.2694,0.0,2.3002,2.3522,2.4371,2.5377,2.5826,2.6535,2.8033,2.8372,2.86,2.9036,2.911,2.8112,2.5285,2.4946,2.498,2.4864,2.4963,2.4946,2.4777,2.4137,2.3663,2.341,2.2733,2.231,2.231,2.231,2.231,2.231,2.231,2.2293,2.2349,2.2908,2.3212,2.3259,2.3566,2.3692,2.3671,2.3021,2.2738,2.2764,2.2443,2.231,2.231,2.231,2.231,2.231,2.231,2.231,2.231,2.231,2.2818,2.3613,2.4255,2.5033,2.5828,2.6387,2.6623,2.6674,2.659,2.7097,2.7875,2.8738,2.9989,3.1089,3.1173,3.119,3.119,3.119,3.1749,3.2493,3.3237,3.3981,3.4726,3.547,3.5622,3.5622,3.5622,3.4996,3.4726,3.5402,3.4303,3.3643,3.4286,3.4438,3.4489,3.4489,3.5209,3.5379,3.4675,3.4737,3.436,3.3311,3.3214,3.2798,3.1981,3.186,3.1603,3.119,3.119,3.123,3.1252,3.123,3.119,3.119,3.119,3.119,0.0,0.0,0.0,0.0,2.2858,0.0,2.3923,2.5604,2.7026,2.6802,2.8527,3.0012,2.9748,3.0191,3.0432,2.9973,2.9888,2.9262,2.7418,2.7706,2.7875,2.7249,2.7723,2.7621,2.6387,2.6133,2.5304,2.3528,2.2733,2.231,2.231,2.231,2.231,2.231,2.231,2.2398,2.2625,2.2996,2.3346,2.3588,2.3671,2.3692,2.3671,2.3021,2.2695,2.2712,2.2426,2.231,2.231,2.231,2.231,2.231,2.231,2.231,2.231,2.231,2.3139,2.432,2.4455,2.5355,2.6404,2.5964,2.6218,2.659,2.5998,2.6336,2.7199,2.8586,2.9617,3.0446,3.1055,3.119,3.119,3.119,3.1749,3.2493,3.3237,3.3981,3.4726,3.547,3.5622,3.5622,3.5622,3.4996,3.4539,3.4692,3.3964,3.3457,3.3609,3.4134,3.4489,3.4489,3.5566,3.6002,3.5447,3.6173,3.6134,3.4931,3.4579,3.3968,3.2887,3.2154,3.1603,3.119,3.119,3.1351,3.1696,3.1351,3.119,3.119,3.119,3.119,0.0,0.0,0.0,2.1734,2.2763,0.0,0.0,2.5369,2.6552,2.655,2.7657,2.88,2.9428,2.9837,3.0209,3.0581,3.0649,3.026,2.9127,2.9296,2.9397,2.9008,2.9313,2.8941,2.7402,2.6911,2.593,2.4069,2.2919,2.2462,2.2835,2.2513,2.231,2.231,2.231,2.236,2.25,2.2789,2.3117,2.3437,2.361,2.361,2.3437,2.3093,2.2789,2.25,2.2377,2.2388,2.2473,2.2349,2.2388,2.249,2.2349,2.231,2.231,2.231,2.3004,2.3985,2.4388,2.5203,2.615,2.615,2.6404,2.6623,2.6251,2.6928,2.7994,2.8772,2.9786,3.0734,3.1106,3.119,3.119,3.119,3.1461,3.1935,3.2679,3.3423,3.4167,3.4912,3.5368,3.5622,3.5622,3.5301,3.5064,3.5064,3.4742,3.437,3.3998,3.459,3.5026,3.4915,3.5801,3.6416,3.6399,3.6904,3.6854,3.6058,3.5829,3.5134,3.3807,3.3125,3.226,3.1207,3.119,3.1389,3.1789,3.1603,3.162,3.186,3.186,3.186,1.9797,2.036,2.1011,2.1162,2.2519,2.3839,0.0,0.0,0.0,2.6033,2.6272,2.6845,2.8482,2.889,2.9381,3.0581,3.0903,3.0835,3.0378,3.0429,3.0429,3.0142,3.0243,2.9786,2.8364,2.7452,2.6302,2.4814,2.3477,2.2919,2.3376,2.2699,2.231,2.231,2.231,2.231,2.231,2.2625,2.2923,2.3189,2.3628,2.361,2.3282,2.3212,2.2908,2.236,2.2321,2.2436,2.2669,2.2463,2.25,2.2669,2.2398,2.231,2.231,2.231,2.2868,2.3697,2.4272,2.5067,2.5896,2.6336,2.6488,2.6505,2.6657,2.7554,2.8638,2.8943,2.9854,3.0835,3.1123,3.119,3.119,3.119,3.119,3.1393,3.2121,3.2763,3.3406,3.4134,3.4878,3.5453,3.5588,3.5622,3.5622,3.5622,3.5504,3.5182,3.4573,3.4912,3.5171,3.5163,3.585,3.6509,3.702,3.734,3.7327,3.6958,3.6895,3.614,3.4551,3.3665,3.2612,3.1329,3.1329,3.1582,3.2057,3.2057,3.223,3.2484,3.2484,3.2484,2.003,1.9924,2.0081,2.1321,2.2157,2.3029,2.4388,0.0,2.6332,2.659,0.0,2.767,2.7891,0.0,0.0,2.9194,2.9803,3.0429,3.0987,3.163,3.1546,3.026,3.0683,3.0751,2.9939,2.8552,2.708,2.5592,2.4695,2.3985,2.3427,2.2699,2.231,2.231,2.231,2.231,2.231,2.2857,2.3165,2.3212,2.3837,2.3976,2.3631,2.3346,2.2996,2.2634,2.2398,2.2436,2.2695,2.2686,2.2669,2.2669,2.2398,2.231,2.231,2.231,2.3173,2.4404,2.4472,2.5389,2.6471,2.5913,2.5727,2.5845,2.6488,2.681,2.7232,2.8638,2.9146,2.9533,3.0852,3.119,3.119,3.119,3.119,3.1393,3.2121,3.2381,3.2628,3.3389,3.4117,3.4827,3.5504,3.5622,3.5622,3.5622,3.5047,3.459,3.4506,3.3998,3.3863,3.4507,3.5449,3.6169,3.647,3.7756,3.8314,3.7819,3.753,3.6635,3.4921,3.2691,3.1572,3.1733,3.1716,3.2161,3.3045,3.3045,3.284,3.2484,3.2484,3.2484,1.9098,1.9814,2.067,2.0846,2.1951,2.3281,2.4264,2.4911,2.5427,2.5981,0.0,0.0,0.0,0.0,0.0,0.0,2.9245,2.9624,3.0043,3.035,3.0772,3.1331,3.1647,3.119,2.9617,2.8467,2.7385,2.6319,2.5558,2.4814,2.4069,2.3342,2.275,2.2327,2.231,2.231,2.231,2.2544,2.2857,2.3189,2.35,2.3544,2.3414,2.3477,2.3189,2.2695,2.2573,2.2832,2.3253,2.2695,2.2652,2.2947,2.248,2.231,2.231,2.231,2.297,2.3917,2.4371,2.5186,2.6082,2.6201,2.6234,2.6302,2.6607,2.6996,2.7571,2.867,2.9296,2.9871,3.092,3.119,3.119,3.119,3.119,3.1275,3.1579,3.1985,3.2374,3.2696,3.3694,3.459,3.4912,3.5334,3.547,3.503,3.5064,3.4827,3.3981,3.4618,3.5208,3.5357,3.6413,3.7273,3.7685,3.8318,3.8578,3.8382,3.7809,3.6845,3.5385,3.3842,3.3019,3.2897,3.2897,3.3239,3.3918,3.3918,3.3665,3.3255,3.3255,3.3255,1.8936,0.0,0.0,0.0,0.0,0.0,0.0,0.0,2.434,2.4898,2.4847,0.0,0.0,0.0,0.0,0.0,0.0,2.8455,2.8648,2.9076,2.9916,3.1389,3.1686,3.1138,2.9578,2.8994,2.8264,2.7097,2.6319,2.549,2.4557,2.3596,2.2852,2.2327,2.231,2.231,2.231,2.236,2.2669,2.3189,2.3189,2.33,2.3459,2.3437,2.3212,2.2822,2.266,2.2965,2.35,2.2738,2.2773,2.3277,2.266,2.2398,2.2398,2.2338,2.2767,2.3477,2.4002,2.4814,2.5693,2.6218,2.6539,2.6691,2.6691,2.7232,2.7977,2.8755,2.9533,3.0277,3.1004,3.119,3.119,3.119,3.119,3.119,3.119,3.1613,3.1985,3.1985,3.3017,3.388,3.388,3.4675,3.5131,3.4573,3.4793,3.4583,3.3461,3.4754,3.5749,3.5667,3.6843,3.783,3.8446,3.8627,3.8707,3.8707,3.7827,3.6875,3.5973,3.5033,3.4333,3.3904,3.4118,3.4225,3.425,3.4467,3.4306,3.3807,3.3807,3.3807,0.0,0.0,0.0,2.0705,0.0,0.0,0.0,0.0,2.3427,0.0,0.0,2.2412,0.0,0.0,0.0,0.0,0.0,0.0,0.0,2.8473,2.9574,2.9762,3.0195,3.0465,3.045,3.084,3.0176,2.7908,2.708,2.6015,2.4591,2.3122,2.2327,2.231,2.231,2.231,2.231,2.2563,2.2873,2.3189,2.3189,2.3544,2.4151,2.3165,2.2898,2.3141,2.2571,2.2677,2.3189,2.2822,2.3069,2.3628,2.2947,2.2695,2.266,2.2415,2.2767,2.3393,2.3427,2.4391,2.5609,2.5642,2.6116,2.6691,2.6691,2.7232,2.7977,2.8755,2.9533,3.0277,3.1004,3.119,3.119,3.119,3.119,3.119,3.119,3.1207,3.1241,3.1241,3.1833,3.2381,3.2381,3.3558,3.4523,3.4489,3.3914,3.3352,3.3045,3.3731,3.4428,3.4801,3.6036,3.7115,3.7873,3.8382,3.8707,3.8707,3.7521,3.6805,3.6768,3.5558,3.4738,3.4393,3.5146,3.4969,3.3817,3.4605,3.4568,3.3807,3.3807,3.3807,0.0,0.0,2.1094,2.048,0.0,0.0,0.0,0.0,0.0,0.0,0.0,0.0,0.0,0.0,0.0,0.0,0.0,0.0,0.0,2.8088,2.908,2.9574,3.0173,3.0108,2.9024,2.9534,2.8932,2.6539,2.6573,2.6048,2.4591,2.4492,2.4052,2.3054,2.3038,2.2801,2.231,2.2388,2.2563,2.2873,2.3093,2.3323,2.3544,2.3414,2.3282,2.3189,2.2989,2.3153,2.3482,2.3165,2.33,2.3631,2.2972,2.2695,2.2686,2.2415,2.2767,2.3528,2.4526,2.5507,2.6336,2.6336,2.6488,2.6793,2.7283,2.7621,2.806,2.9364,2.9922,3.0277,3.1004,3.119,3.119,3.119,3.119,3.119,3.119,3.119,3.1291,3.1545,3.1969,3.2394,3.2715,3.3184,3.3391,3.31,3.3254,3.3325,3.3031,3.4381,3.5561,3.6003,3.7279,3.8172,3.8396,3.8596,3.8707,3.8707,3.829,3.7825,3.7296,3.6334,3.6024,3.6437,3.62,3.5857,3.5459,3.5734,3.5147,3.3807,3.3807,3.3807,2.0283,2.0893,0.0,2.0643,2.1177,0.0,2.2243,0.0,2.1136,0.0,0.0,0.0,0.0,0.0,0.0,0.0,0.0,0.0,0.0,2.7439,2.8084,2.9053,2.9656,2.9729,2.9145,2.9161,2.8524,2.6911,2.6742,2.6167,2.4949,2.5084,2.4644,2.3427,2.3393,2.3054,2.231,2.231,2.2409,2.2695,2.2923,2.3141,2.3392,2.3477,2.3459,2.3369,2.3236,2.3392,2.3671,2.3346,2.3459,2.3816,2.3141,2.2947,2.2996,2.248,2.2767,2.3528,2.4492,2.5473,2.6268,2.5998,2.6268,2.6843,2.7588,2.801,2.8433,2.9431,3.0091,3.048,3.0429,3.0598,3.0818,3.0818,3.0921,3.1086,3.1359,3.1545,3.175,3.2004,3.2223,3.2562,3.3155,3.3227,3.311,3.2751,3.3362,3.3822,3.3661,3.5438,3.6771,3.6957,3.8021,3.8707,3.8707,3.8707,3.8707,3.8707,3.8707,3.8469,3.7936,3.7422,3.7129,3.7055,3.7129,3.6578,3.5404,3.6285,3.5716,3.3807,3.41,3.4082]},{"header":{"parameterUnit":"m.s-1","parameterCategory":1,"la1":30.6,"la2":29.2853,"lo1":-89.7004,"lo2":-87.6739,"dy":0.0162,"dx":0.0183,"nx":112,"ny":82,"refTime":"2023-09-13T12:00:00:Z","depth":0,"parameterNumber":3,"parameterNumberName":"V-component_of_WINDS"},"data":[0.0,0.0,0.0,0.0,0.0,0.0,0.0,0.0,0.0,0.0,0.0,0.0,0.0,0.0,0.0,0.0,0.0,0.0,0.0,0.0,0.0,0.0,0.0,0.0,0.0,0.0,0.0,0.0,0.0,0.0,0.0,0.0,0.0,0.0,0.0,0.0,0.0,0.0,0.0,0.0,0.0,0.0,0.0,0.0,0.0,0.0,0.0,0.0,0.0,0.0,0.0,0.0,0.0,0.0,0.0,0.0,0.0,0.0,0.0,0.0,0.0,0.0,0.0,0.0,0.0,0.0,0.0,0.0,0.0,0.0,0.0,0.0,0.0,0.0,0.0,0.0,0.0,0.0,0.0,0.0,0.0,0.0,0.0,0.0,0.0,0.0,0.0,0.0,0.0,0.0,0.6201,0.524,0.479,0.4522,0.4477,0.449,0.3926,0.2537,0.0,0.0,0.0,0.0,0.0,0.0,0.0,0.0,0.0,0.0,0.0,0.0,0.0,0.0,0.0,0.0,0.0,0.0,0.0,0.0,0.0,0.0,0.0,0.0,0.0,0.0,0.0,0.0,0.0,0.0,0.0,0.0,0.0,0.0,0.0,0.0,0.0,0.0,0.0,0.0,0.0,0.0,0.0,0.0,0.0,0.0,0.0,0.0,0.0,0.0,0.0,0.0,0.0,0.0,0.0,0.0,0.0,0.0,0.0,0.0,0.0,0.0,0.0,0.0,0.0,0.0,0.0,0.0,0.0,0.0,0.0,0.0,0.0,0.0,0.0,0.0,0.0,0.0,0.0,0.0,0.0,0.0,0.0,0.0,0.0,0.0,0.0,0.0,0.0,0.0,0.0,0.0,0.0,0.0,0.0,0.0,0.0,0.0,0.0,0.0,0.0,0.0,0.0,0.0,0.6404,0.553,0.4867,0.4519,0.4519,0.4484,0.359,0.1409,0.0,0.0,0.0,0.0,0.0,0.0,0.0,0.0,0.0,0.0,0.0,0.0,0.0,0.0,0.0,0.0,0.0,0.0,0.0,0.0,0.0,0.0,0.0,0.0,0.0,0.0,0.0,0.0,0.0,0.0,0.0,0.0,0.0,0.0,0.0,0.0,0.0,0.0,0.0,0.0,0.0,0.0,0.0,0.0,0.0,0.0,0.0,0.0,0.0,0.0,0.0,0.0,0.0,0.0,0.0,0.0,0.0,0.0,0.0,0.0,0.0,0.0,0.0,0.0,0.0,0.0,0.0,0.0,0.0,0.0,0.0,0.0,0.0,0.0,0.0,0.0,0.0,0.0,0.0,0.0,0.0,0.0,0.0,0.0,0.0,0.0,0.0,0.0,0.0,0.0,0.0,0.0,0.0,0.0,0.0,0.0,0.0,0.0,0.0,0.0,0.0,0.0,0.0,0.6675,0.6032,0.6103,0.5117,0.4519,0.4525,0.4487,0.359,0.1411,-0.0402,0.0,0.0,0.0,0.0,0.0,0.0,0.0,0.0,0.0,0.0,0.0,0.0,0.0,0.0,0.0,0.0,0.0,0.0,0.0,0.0,0.0,0.0,0.0,0.0,0.0,0.0,0.0,0.0,0.0,0.0,0.0,0.0,0.0,0.0,0.0,0.0,0.0,0.0,0.0,0.0,0.0,0.0,0.0,0.0,0.0,0.0,0.0,0.0,0.0,0.0,0.0,0.0,0.0,0.0,0.0,0.0,0.0,0.0,0.0,0.0,0.0,0.0,0.0,0.0,0.0,0.0,0.0,0.0,0.0,0.0,0.0,0.0,0.0,0.0,0.0,0.0,0.0,0.0,0.0,0.0,0.0,0.0,0.0,0.0,0.0,0.0,0.0,0.0,0.0,0.0,0.0,0.0,0.0,0.0,0.0,0.0,0.0,0.0,0.0,0.0,0.0,0.0,0.6651,0.5901,0.6553,0.5336,0.4522,0.4477,0.4147,0.3153,0.1312,-0.0604,0.0,0.0,0.0,0.0,0.0,0.0,0.0,0.0,0.0,0.0,0.0,0.0,0.0,0.0,0.0,0.0,0.0,0.0,0.0,0.0,0.0,0.0,0.0,0.0,0.0,0.0,0.0,0.0,0.0,0.0,0.0,0.0,0.0,0.0,0.0,0.0,0.0,0.0,0.0,0.0,0.0,0.0,0.0,0.0,0.0,0.0,0.0,0.0,0.0,0.0,0.0,0.0,0.0,0.0,0.0,0.0,0.0,0.0,0.0,0.0,0.0,0.0,0.0,0.0,0.0,0.0,0.0,0.0,0.0,0.0,0.0,0.0,0.0,0.0,0.0,0.0,0.0,0.0,0.0,0.0,0.0,0.0,0.0,0.0,0.0,0.0,0.0,0.0,0.0,0.0,0.0,0.0,0.0,0.0,0.0,0.0,0.0,0.0,0.0,0.0,0.0,0.0,0.7302,0.6553,0.6583,0.5336,0.4522,0.4477,0.3183,0.1787,0.0454,-0.136,0.0,0.0,0.0,0.0,0.0,0.0,0.0,0.0,0.0,0.0,0.0,0.0,0.0,0.0,0.0,0.0,0.0,0.0,0.0,0.0,0.0,0.0,0.0,0.0,0.0,0.0,0.0,0.0,0.0,0.0,0.0,0.0,0.0,0.0,0.0,0.0,0.0,0.0,0.0,0.0,0.0,0.0,0.0,0.0,0.0,0.0,0.0,0.0,0.0,0.0,0.0,0.0,0.0,0.0,0.0,0.0,0.0,0.0,0.0,0.0,0.0,0.0,0.0,0.0,0.0,0.0,0.0,0.0,0.0,0.0,0.0,0.0,0.0,0.0,0.0,0.0,0.0,0.0,0.0,0.0,0.0,0.0,0.0,0.0,0.0,0.0,0.0,0.0,0.0,0.0,0.0,0.0,0.0,0.0,0.0,0.0,0.0,0.0,0.0,0.0,0.0,0.0,0.7186,0.6428,0.6573,0.5336,0.4525,0.4487,0.2227,0.0324,-0.091,0.0,0.0,0.0,0.0,0.0,0.0,0.0,0.0,0.0,0.0,0.0,0.0,0.0,0.0,0.0,0.0,0.0,0.0,0.0,0.0,0.0,0.0,0.0,0.0,0.0,0.0,0.0,0.0,0.0,0.0,0.0,0.0,0.0,0.0,0.0,0.0,0.0,0.0,0.0,0.0,0.0,0.0,0.0,0.0,0.0,0.0,0.0,0.0,0.0,0.0,0.0,0.0,0.0,0.0,0.0,0.0,0.0,0.0,0.0,0.0,0.0,0.0,0.0,0.0,0.0,0.0,0.0,0.0,0.0,0.0,0.0,0.0,0.0,0.0,0.0,0.0,0.0,0.0,0.0,0.0,0.0,0.0,0.0,0.0,0.0,0.0,0.0,0.0,0.0,0.0,0.0,0.0,0.0,0.0,0.0,0.0,0.0,0.0,0.0,0.0,0.0,0.0,0.8572,0.766,0.6869,0.6622,0.555,0.4743,0.4494,0.1724,-0.0702,-0.2385,0.0,0.0,0.0,0.0,0.0,0.0,0.0,0.0,0.0,0.0,0.0,0.0,0.0,0.0,0.0,0.0,0.0,0.0,0.0,0.0,0.0,0.0,0.0,0.0,0.0,0.0,0.0,0.0,0.0,0.0,0.0,0.0,0.0,0.0,0.0,0.0,0.0,0.0,0.0,0.0,0.0,0.0,0.0,0.0,0.0,0.0,0.0,0.0,0.0,0.0,0.0,0.0,0.0,0.0,0.0,0.0,0.0,0.0,0.0,0.0,0.0,0.0,0.0,0.0,0.0,0.0,0.0,0.0,0.0,0.0,0.0,0.0,0.0,0.0,0.0,0.0,0.0,0.0,0.0,0.0,0.0,0.0,0.0,0.0,0.0,0.0,0.0,0.0,0.0,0.0,0.0,0.0,0.0,0.0,0.0,0.0,0.0,0.0,0.0,0.0,0.0,0.0,0.902,0.8784,0.8159,0.6745,0.5928,0.523,0.4549,0.1724,-0.1133,0.0,0.0,0.0,0.0,0.0,0.0,0.0,0.0,0.0,0.0,0.0,0.0,0.0,0.0,0.0,0.0,0.0,0.0,0.0,0.0,0.0,0.0,0.0,0.0,0.0,0.0,0.0,0.0,0.0,0.0,0.0,0.0,0.0,0.0,0.0,0.0,0.0,0.0,0.0,0.0,0.0,0.0,0.0,0.0,0.0,0.0,0.0,0.0,0.0,0.0,0.0,0.0,0.0,0.0,0.0,0.0,0.0,0.0,0.0,0.0,0.0,0.0,0.0,0.0,0.0,0.0,0.0,0.0,0.0,0.0,0.0,0.0,0.0,0.0,0.0,0.0,0.0,0.0,0.0,0.0,0.0,0.0,0.0,0.0,0.0,0.0,0.0,0.0,0.0,0.0,0.0,0.0,0.0,0.0,0.0,0.0,0.0,0.0,0.0,0.0,0.0,0.0,0.0,0.902,0.8784,0.8159,0.6745,0.5928,0.523,0.4549,0.1721,-0.1131,-0.3815,0.0,0.0,0.0,0.0,0.0,0.0,0.0,0.0,0.0,0.0,0.0,0.0,0.0,0.0,0.0,0.0,0.0,0.0,0.0,0.0,0.0,0.0,0.0,0.0,0.0,0.0,0.0,0.0,0.0,0.0,0.0,0.0,0.0,0.0,0.0,0.0,0.0,0.0,0.0,0.0,0.0,0.0,0.0,0.0,0.0,0.0,0.0,0.0,0.0,0.0,0.0,0.0,0.0,0.0,0.0,0.0,0.0,0.0,0.0,0.0,0.0,0.0,0.0,0.0,0.0,0.0,0.0,0.0,0.0,0.0,0.0,0.0,0.0,0.0,0.0,0.0,0.0,0.0,0.0,0.0,0.0,0.0,0.0,0.0,0.0,0.0,0.0,0.0,0.0,0.0,0.0,0.0,0.0,0.0,0.0,0.0,0.0,0.0,0.0,0.0,0.0,0.0,0.974,0.957,0.8881,0.7208,0.6352,0.5559,0.4605,0.1719,-0.1191,-0.4,0.0,0.0,0.0,0.0,0.0,0.0,0.0,0.0,0.0,0.0,0.0,0.0,0.0,0.0,0.0,0.0,0.0,0.0,0.0,0.0,0.0,0.0,0.0,0.0,0.0,0.0,0.0,0.0,0.0,0.0,0.0,0.0,0.0,0.0,0.0,0.0,0.0,0.0,0.0,0.0,0.0,0.0,0.0,0.0,0.0,0.0,0.0,0.0,0.0,0.0,0.0,0.0,0.0,0.0,0.0,0.0,0.0,0.0,0.0,0.0,0.0,0.0,0.0,0.0,0.0,0.0,0.0,0.0,0.0,0.0,0.0,0.0,0.0,0.0,0.0,0.0,0.0,0.0,0.0,0.0,0.0,0.0,0.0,0.0,0.0,0.0,0.0,0.0,0.0,0.0,0.0,0.0,0.0,0.0,0.0,0.0,0.0,0.0,0.0,0.0,0.0,0.0,1.082,1.0754,0.9967,0.7811,0.6999,0.6055,0.4605,0.1719,-0.131,-0.4294,0.0,0.0,0.0,0.0,0.0,0.0,0.0,0.0,0.0,0.0,0.0,0.0,0.0,0.0,0.0,0.0,0.0,0.0,0.0,0.0,0.0,0.0,0.0,0.0,0.0,0.0,0.0,0.0,0.0,0.0,0.0,0.0,0.0,0.0,0.0,0.0,0.0,0.0,0.0,0.0,0.0,0.0,0.0,0.0,0.0,0.0,0.0,0.0,0.0,0.0,0.0,0.0,0.0,0.0,0.0,0.0,0.0,0.0,0.0,0.0,2.1718,1.9596,0.0,0.0,0.0,0.0,0.0,0.0,0.0,0.0,0.0,0.0,0.0,0.0,0.0,0.0,0.0,0.0,0.0,0.0,0.0,0.0,0.0,0.0,0.0,0.0,0.0,0.0,0.0,0.0,0.0,0.0,0.0,0.0,0.0,0.0,0.0,0.0,0.0,0.0,0.0,0.0,1.082,1.0754,0.9967,0.7811,0.6999,0.6055,0.4605,0.1719,-0.131,-0.4294,-0.5211,0.0,0.0,0.0,0.0,0.0,0.0,0.0,0.0,0.0,0.0,0.0,0.0,0.0,0.0,0.0,0.0,0.0,0.0,0.0,0.0,0.0,0.0,0.0,0.0,0.0,0.0,0.0,0.0,0.0,0.0,0.0,0.0,0.0,0.0,0.0,0.0,0.0,0.0,0.0,0.0,0.0,0.0,0.0,0.0,0.0,0.0,0.0,0.0,0.0,0.0,0.0,0.0,0.0,0.0,0.0,0.0,0.0,0.0,0.0,2.4919,2.318,0.0,0.0,0.0,0.0,0.0,0.0,0.0,0.0,0.0,0.0,0.0,0.0,0.0,0.0,0.0,0.0,0.0,0.0,0.0,0.0,0.0,0.0,0.0,0.0,0.0,0.0,0.0,0.0,0.0,0.0,0.0,0.0,0.0,0.0,0.0,0.0,0.0,0.0,0.0,0.0,1.163,1.1015,0.993,0.8165,0.6973,0.5821,0.4605,0.1663,-0.1343,-0.4333,-0.5397,0.0,0.0,0.0,0.0,0.0,0.0,0.0,0.0,0.0,0.0,0.0,0.0,0.0,0.0,0.0,0.0,0.0,0.0,0.0,0.0,0.0,0.0,0.0,0.0,0.0,0.0,0.0,0.0,0.0,0.0,0.0,0.0,0.0,0.0,0.0,0.0,0.0,0.0,0.0,0.0,0.0,0.0,0.0,0.0,0.0,0.0,0.0,0.0,0.0,0.0,0.0,0.0,0.0,3.1094,3.1048,3.0999,3.0974,3.0713,3.0134,2.8401,2.7252,2.6434,2.3875,0.0,0.0,0.0,0.0,0.0,0.0,0.0,0.0,0.0,0.0,0.0,0.0,0.0,0.0,0.0,0.0,0.0,0.0,0.0,0.0,0.0,0.0,2.2465,2.2841,2.3472,2.3637,2.2248,0.0,0.0,0.0,0.0,0.0,0.0,0.0,0.0,0.0,0.0,0.0,1.2563,1.1305,0.9835,0.8442,0.6921,0.5555,0.4515,0.1594,-0.1413,-0.4319,-0.5596,-0.6242,0.0,0.0,0.0,0.0,0.0,0.0,0.0,0.0,0.0,0.0,0.0,0.0,0.0,0.0,0.0,0.0,0.0,0.0,0.0,0.0,0.0,0.0,0.0,0.0,0.0,0.0,0.0,0.0,0.0,0.0,0.0,0.0,2.1918,2.2014,0.0,0.0,0.0,0.0,0.0,0.0,0.0,0.0,0.0,0.0,0.0,0.0,0.0,3.0133,3.0807,3.2289,3.309,3.3204,3.4068,3.4356,3.4211,3.4138,3.3595,3.2697,3.2439,0.0,2.7745,2.6318,0.0,0.0,0.0,0.0,0.0,0.0,0.0,0.0,0.0,0.0,0.0,0.0,0.0,0.0,0.0,0.0,0.0,0.0,0.0,0.0,0.0,0.0,2.6887,2.6302,2.6757,2.7145,2.6544,2.3727,2.1197,2.0845,1.9924,1.8835,0.0,0.0,0.0,0.0,0.0,0.0,1.2857,1.1423,0.9747,0.8064,0.6727,0.5452,0.4153,0.1556,-0.1324,-0.4312,-0.5704,-0.6299,-0.6186,-0.7087,0.0,0.0,0.0,0.0,0.0,0.0,0.0,0.0,0.0,0.0,0.0,0.0,0.0,0.0,0.0,0.0,0.0,0.0,0.0,0.0,0.0,0.0,0.0,0.0,0.0,0.0,0.0,0.0,0.0,2.1231,2.2539,2.269,2.2886,2.2728,0.0,0.0,0.0,0.0,0.0,0.0,0.0,0.0,0.0,2.957,3.0976,3.2043,3.2733,3.3889,3.4428,3.4393,3.4687,3.4521,3.3953,3.3929,3.3358,3.2401,3.2401,3.1485,2.9888,2.9066,2.8103,2.7022,0.0,0.0,0.0,0.0,2.5131,2.5825,2.6416,2.6478,2.6267,2.5941,0.0,0.0,0.0,0.0,0.0,0.0,0.0,2.3987,0.0,0.0,2.6257,2.6895,2.6792,2.6506,2.6339,2.4729,2.3231,2.2862,2.1875,2.0464,1.8501,1.7081,0.0,0.0,0.0,1.4111,1.3442,1.1796,0.9918,0.7906,0.6418,0.5102,0.3879,0.1383,-0.0932,-0.2875,-0.4746,-0.5996,-0.6433,-0.6938,-0.7224,0.0,0.0,0.0,0.0,0.0,0.0,0.0,0.0,0.0,0.0,0.0,0.0,0.0,0.0,0.0,0.0,0.0,0.0,0.0,0.0,0.0,0.0,0.0,0.0,0.0,0.0,0.0,0.0,2.245,2.3705,2.375,2.4591,2.4576,0.0,0.0,0.0,0.0,0.0,0.0,2.884,2.9515,3.026,3.1128,3.2506,3.3454,3.3899,3.4553,3.4732,3.4451,3.4261,3.3791,3.3091,3.3091,3.2653,3.1883,3.1883,3.173,3.144,3.0903,3.0525,3.0163,2.9107,2.8558,2.8317,2.8225,2.8314,2.8655,2.9867,2.955,2.867,2.8891,2.746,2.5524,2.4753,0.0,0.0,0.0,0.0,2.4826,2.6245,2.5896,2.5515,2.6765,2.6393,2.5758,2.5656,2.5244,2.4802,2.4346,2.332,2.1793,1.9389,1.8082,0.0,1.6076,1.5683,1.5045,1.3778,1.213,1.0206,0.7918,0.6373,0.4995,0.3704,0.1502,-0.0378,-0.1696,-0.4043,-0.5722,-0.6578,-0.7059,-0.7451,-0.7791,0.0,0.0,0.0,0.0,0.0,0.0,0.0,0.0,0.0,0.0,0.0,0.0,0.0,0.0,0.0,0.0,0.0,0.0,0.0,0.0,0.0,0.0,0.0,0.0,0.0,0.0,0.0,0.0,0.0,2.6468,2.8839,0.0,0.0,0.0,0.0,2.7802,2.864,2.9879,3.1516,3.1652,3.2373,3.3949,3.4083,3.4141,3.418,3.4224,3.382,3.3013,3.2981,3.2828,3.254,3.254,3.2365,3.2071,3.2071,3.1969,3.1727,3.1136,3.0638,3.0174,2.9707,2.9286,2.8997,2.9373,2.9512,2.9701,3.0919,3.0661,2.9935,3.0563,2.8906,2.671,2.7159,2.641,0.0,0.0,2.7071,2.6819,2.7537,2.7123,2.6515,2.6609,2.6588,2.6447,2.6056,2.5321,2.4757,0.0,2.3739,2.2277,2.1007,0.0,1.8499,1.7026,1.6336,1.5339,1.3656,1.2404,1.0686,0.8085,0.6752,0.5391,0.3719,0.2085,0.0276,-0.1693,-0.4182,-0.587,-0.6568,-0.7925,-0.8436,-0.7791,-0.7109,0.0,0.0,0.0,0.0,0.0,0.0,0.0,0.0,0.0,0.0,0.0,0.0,0.0,0.0,0.0,0.0,0.0,0.0,0.0,0.0,0.0,0.0,0.0,0.0,0.0,0.0,0.0,0.0,2.7098,2.8818,0.0,2.7132,2.7505,2.8144,2.8734,3.0055,3.1337,3.2451,3.2509,3.2767,3.3353,3.3353,3.3353,3.3353,3.2852,3.216,3.1275,3.0717,3.0068,2.936,2.936,2.9144,2.8783,2.9289,2.9412,2.9304,3.0119,3.0534,3.0656,3.0724,3.0534,3.0275,3.0633,3.075,3.0815,3.1256,3.0943,3.0298,3.0032,2.9336,2.8614,2.8492,2.8128,2.7751,2.7761,2.7595,2.7377,2.7111,2.6429,2.5823,2.5823,2.5034,2.4243,2.4087,2.3109,2.2282,2.2359,2.2265,2.1936,2.1166,2.0379,1.9212,1.7327,1.6909,1.5994,1.3706,1.2141,1.0371,0.8039,0.6464,0.5201,0.4208,0.2346,0.0597,-0.0794,-0.3296,-0.5276,-0.6568,-0.6632,-0.702,-0.7739,-0.6564,-0.5817,0.0,0.0,0.0,0.0,0.0,0.0,0.0,0.0,0.0,0.0,0.0,0.0,0.0,0.0,0.0,0.0,0.0,0.0,0.0,0.0,0.0,0.0,0.0,0.0,0.0,2.7584,2.8932,2.7926,2.9437,2.9756,2.7671,2.8769,2.9709,3.0021,3.1076,3.1929,3.2468,3.1929,3.1621,3.1621,3.1352,3.1218,3.1218,3.0679,3.0098,2.9454,2.8859,2.8211,2.7499,2.7499,2.7335,2.7059,2.7585,2.7699,2.7569,2.8658,2.9143,2.9393,3.0837,3.1258,3.1101,3.1309,3.1219,3.0931,3.0438,3.0043,2.9656,2.8914,2.8781,2.8832,2.8517,2.8415,2.8304,2.7664,2.7292,2.696,2.6423,2.5645,2.4945,2.4745,2.3824,2.2942,2.2648,2.1708,2.0909,2.0909,2.1101,2.1071,2.0439,2.0067,1.9177,1.7258,1.6965,1.6053,1.3593,1.2246,1.0665,0.8333,0.6932,0.5754,0.4778,0.2881,0.1258,0.0097,-0.2521,-0.4572,-0.5863,-0.5703,-0.6068,-0.705,-0.6202,-0.4714,-0.2555,0.0,0.0,0.0,0.0,0.0,0.0,0.0,0.0,0.0,0.0,0.0,0.0,0.0,0.0,0.0,0.0,0.0,0.0,0.0,0.0,0.0,0.0,0.0,2.7522,2.8801,2.973,2.907,3.1021,3.1556,2.9368,3.1318,3.2429,3.1641,3.1583,3.1583,3.1583,2.9987,2.9063,2.9063,2.8313,2.789,2.789,2.7871,2.7746,2.7548,2.751,2.7409,2.7214,2.7214,2.7214,2.7198,2.7236,2.7088,2.686,2.686,2.6528,2.6363,2.9868,3.1237,3.1237,3.1237,3.0717,2.9866,2.8532,2.8053,2.7979,2.7455,2.7289,2.7289,2.7274,2.7274,2.7226,2.6933,2.63,2.5685,2.5632,2.4894,2.4008,2.3403,2.3081,2.2721,2.1914,2.1255,2.0838,2.0817,2.0344,1.9712,1.9022,1.8908,1.8389,1.6895,1.6445,0.0,1.3233,1.2705,1.1549,0.8958,0.8115,0.7065,0.5417,0.3826,0.2371,0.0985,-0.1858,-0.3804,-0.4414,-0.5294,-0.5739,-0.5728,-0.5948,-0.3462,0.1735,0.0,0.0,0.0,0.0,0.0,0.0,0.0,0.0,0.0,0.0,0.0,0.0,0.0,0.0,0.0,0.0,0.0,0.0,0.0,0.0,0.0,3.1465,3.192,2.9458,3.0538,3.089,2.9082,2.9937,3.0037,2.8409,2.8863,2.9179,2.8967,2.8929,2.8929,2.8929,2.8486,2.8217,2.8217,2.8025,2.7827,2.7682,2.7058,2.6638,2.6422,2.5854,2.5469,2.5265,2.5265,2.52,2.5078,2.5672,2.5874,2.5852,2.6179,2.6222,2.617,2.7175,2.752,2.7453,2.7288,2.7211,2.7214,2.7228,2.7233,2.7214,2.7063,2.7005,2.697,2.6841,2.6801,2.6652,2.6002,2.565,2.5226,2.4045,2.3529,2.3144,2.2387,2.169,2.1092,2.0734,1.99,1.9165,1.8982,1.8658,1.8525,1.8845,1.8908,1.8203,1.6142,1.5783,0.0,1.1978,1.1215,1.0159,0.8109,0.689,0.5896,0.5096,0.4028,0.2856,0.1497,-0.0287,-0.1987,-0.351,-0.4403,-0.3968,-0.2014,-0.1162,0.117,0.0,0.0,0.0,0.0,0.0,0.0,0.0,0.0,0.0,0.0,0.0,0.0,0.0,0.0,0.0,0.0,0.0,0.0,0.0,0.0,0.0,0.0,3.3372,3.3447,3.0726,3.1298,3.1352,2.9672,2.927,2.881,2.7975,2.789,2.789,2.789,2.7563,2.7351,2.7351,2.7005,2.6813,2.6813,2.6813,2.671,2.6511,2.6003,2.5625,2.538,2.4895,2.4559,2.4375,2.4375,2.4321,2.4226,2.4549,2.4689,2.4686,2.482,2.4884,2.4938,0.0,0.0,0.0,0.0,2.5816,2.5856,2.6148,2.6061,2.5764,2.5764,2.5764,2.5745,2.5645,2.5585,2.5493,2.5016,2.4649,2.4171,2.3199,2.2648,2.2118,2.1295,2.0625,2.0083,1.9632,1.8713,1.7969,1.7979,1.7313,0.0,1.7311,1.7741,1.7299,1.5227,1.4798,1.3811,1.1254,1.0554,0.9658,0.8035,0.7091,0.6296,0.5556,0.4649,0.0,0.0,0.0,-0.0195,-0.1482,-0.2027,0.0,0.0,0.0,0.493,0.876,1.3349,0.0,0.0,2.2209,2.5524,0.0,0.0,0.0,0.0,0.0,0.0,0.0,0.0,0.0,0.0,0.0,0.0,0.0,0.0,0.0,0.0,3.4647,3.4483,3.1544,3.1249,3.0976,3.0016,2.8595,2.7654,2.7558,2.7539,2.7539,2.7539,2.6828,2.6406,2.6406,2.5666,0.0,0.0,0.0,2.516,2.4949,2.493,2.4776,2.4461,2.4461,2.4357,2.4151,2.4151,2.4113,2.4074,2.3774,2.3631,2.3628,2.3277,2.3117,2.3234,2.4736,2.5285,2.5285,2.5626,2.5506,2.5095,2.5136,0.0,0.0,2.4151,2.417,2.419,2.4151,2.4096,2.4023,2.4075,2.3453,2.2776,2.2777,2.2008,2.1023,2.0246,1.9846,1.9456,1.8669,1.7741,1.7156,1.7535,1.6331,1.5271,1.5296,1.5997,1.5926,1.424,1.3755,1.2893,1.0936,1.0416,0.9691,0.8298,0.0,0.0,0.6344,0.5391,0.4599,0.4011,0.2693,0.1817,0.1457,0.1455,0.1585,0.1846,0.465,0.8257,1.2609,1.6956,1.982,2.1301,2.4389,2.689,0.0,0.0,0.0,0.0,0.0,0.0,0.0,0.0,0.0,0.0,0.0,0.0,0.0,0.0,0.0,3.5152,3.5446,3.467,3.2298,3.0324,2.8552,2.702,2.6565,2.611,2.5465,2.5408,2.5408,2.5408,2.5237,2.5162,2.5162,2.4977,2.4902,2.4902,2.4902,2.4799,2.4588,2.4588,2.4476,2.4266,2.4266,0.0,2.3795,2.3795,2.3649,2.3392,2.3305,2.33,2.3259,2.2947,2.2652,2.2552,2.3348,2.337,2.3017,2.3569,2.3543,2.3256,2.3537,2.3692,2.3795,2.3795,2.3976,2.4151,2.3876,2.3381,0.0,2.3298,2.2418,2.1509,2.2054,2.1159,2.0052,1.9834,1.9298,1.8647,1.801,1.7304,1.683,1.6938,1.6281,1.5591,1.5349,1.5006,1.4467,1.3515,1.3094,1.2345,1.0897,1.0156,0.9234,0.7939,0.7278,0.6687,0.6037,0.5611,0.508,0.4336,0.4611,0.5031,0.5466,0.5483,0.6323,0.8086,1.0054,1.2196,1.458,1.7415,2.0304,2.3259,2.4743,2.6075,0.0,0.0,0.0,0.0,0.0,0.0,0.0,0.0,0.0,0.0,0.0,3.0572,3.3091,0.0,3.4423,3.5882,3.528,3.3846,3.152,2.9433,2.7624,2.617,2.5635,2.5238,2.4842,2.4804,2.4804,2.4804,2.4804,2.4804,2.4804,2.464,2.4542,2.4542,2.4393,2.4206,2.4007,2.4007,2.3908,2.3692,2.3692,2.361,2.3437,2.3437,2.3369,2.3189,2.3021,2.2947,2.2923,2.2599,2.2426,2.2338,2.2624,2.266,2.2554,2.284,2.2947,2.2972,2.3141,2.3323,2.3437,2.3437,2.3566,2.3599,2.3056,2.2887,2.2793,2.2234,2.1537,2.0909,2.0736,1.9851,1.895,1.8784,1.8345,1.7859,1.7551,1.6824,1.6275,1.6517,1.5704,1.4907,1.4607,1.3864,1.3129,1.2644,1.225,1.1494,0.9951,0.9419,0.88,0.7812,0.7324,0.6971,0.6687,0.6219,0.5652,0.4974,0.5424,0.6047,0.6855,0.6896,0.7802,0.9717,1.155,1.3336,1.5102,1.7726,2.0398,2.301,2.4007,2.5518,0.0,0.0,0.0,0.0,0.0,0.0,0.0,0.0,3.0512,3.2564,3.2625,3.2945,3.5026,3.5026,3.4944,3.5707,3.4541,3.2724,3.032,2.8576,2.7147,2.6008,2.5174,2.4685,2.4685,2.4685,2.4685,2.4685,2.462,2.4586,2.4586,2.4259,2.4081,2.4081,2.3821,2.3603,2.3448,2.3448,2.3352,2.3189,2.3189,2.3165,2.3093,2.3093,2.3003,2.288,2.2504,2.2388,2.2361,2.2158,2.2049,2.2049,2.2049,2.2181,2.2388,2.2556,2.2789,2.3014,2.3014,2.2915,2.2834,2.3041,2.3012,2.2806,2.2364,2.2535,2.2653,2.156,2.0943,2.0463,1.9803,1.8876,1.8053,1.7859,1.7508,1.7199,1.7109,1.6313,1.5713,1.5964,1.5088,1.4135,1.3595,1.2881,1.227,1.1858,1.1436,1.0703,0.9286,0.8926,0.8568,0.7976,0.7654,0.7458,0.7372,0.6831,0.6265,0.5728,0.594,0.6471,0.7244,0.7598,0.8493,1.0079,1.2016,1.3858,1.5526,1.8278,2.0527,2.221,2.3145,2.4964,2.3379,2.5453,2.8798,3.3424,3.3252,3.3505,0.0,3.8554,3.6717,3.7709,3.8407,3.8297,3.6515,3.6699,3.6442,3.4412,3.333,3.1898,2.9452,2.7769,2.6413,2.5574,2.4763,2.4284,2.4284,2.4284,2.4284,2.4284,2.3999,2.3821,2.3821,2.3508,2.3315,2.3315,2.3293,2.3264,2.3218,2.3218,2.3218,2.3189,2.3189,2.3045,2.2772,2.2772,2.2388,2.1744,2.1352,2.1197,2.1197,2.115,2.1166,2.1166,2.1166,2.115,2.129,2.2044,2.2377,2.2405,2.2405,2.1932,2.149,2.2452,2.2317,2.1895,2.2467,2.2233,2.1829,2.2088,2.0908,1.9704,2.0312,1.9165,1.7835,1.7888,1.7352,1.6773,1.6474,1.5863,1.5284,1.5007,1.4836,1.4262,1.2735,1.2618,1.2418,1.1513,1.088,1.0451,1.0247,0.9387,0.8761,0.8679,0.7975,0.7416,0.7243,0.7045,0.6767,0.635,0.6871,0.7328,0.7564,0.9037,1.0508,1.1789,1.3893,1.5648,1.6977,1.9542,2.1275,2.2227,2.3093,2.4195,2.5868,2.8487,3.1164,3.3212,3.4431,3.5831,3.844,3.8031,3.7525,3.908,3.8909,3.8175,3.7165,3.6486,3.555,3.4045,3.2724,3.1384,2.9916,2.8104,2.6822,2.6495,2.5569,2.4694,2.3987,2.3735,2.3628,2.3628,2.35,2.3414,2.3414,2.3093,2.2923,2.2923,2.2773,2.2686,2.2686,2.2686,2.2686,2.2686,2.2686,2.2466,2.2074,2.2074,2.1757,2.1244,2.1055,2.0991,2.0991,2.0991,2.0991,2.0991,2.0991,2.0991,2.1023,2.1415,2.1554,2.1554,2.1554,2.1308,2.1121,2.1566,2.1508,2.1226,2.1114,2.1164,2.1036,1.9986,1.9409,1.8993,1.8502,1.7802,1.7237,1.7247,1.6865,1.6474,1.6328,1.5921,1.5546,1.5422,1.5181,1.463,1.3549,1.2844,1.217,1.1353,1.0596,1.0034,0.9855,0.9212,0.8733,0.8598,0.8168,0.7956,0.811,0.8047,0.7934,0.773,0.7992,0.8435,0.9032,1.003,1.1286,1.2721,1.448,1.5776,1.6677,1.8567,1.9871,2.0593,2.1638,2.2718,2.7107,2.9685,0.0,3.272,3.5119,3.7271,3.7435,3.7522,3.7931,3.9234,3.8558,3.7571,3.704,3.5836,3.4586,3.3478,3.2055,3.0792,2.9992,2.824,2.7125,2.7341,2.634,2.5306,2.445,2.3821,2.3419,2.3206,2.3117,2.3069,2.3069,2.2626,2.2405,2.2405,2.2113,2.1945,2.1945,2.1945,2.1945,2.1945,2.1945,2.1781,2.143,2.129,2.107,2.0797,2.0698,2.0632,2.0632,2.0632,2.0632,2.0632,2.0632,2.0632,2.0632,2.0632,2.0797,2.0991,2.0991,2.0815,2.0623,2.0911,2.0799,2.0496,2.0288,2.0575,2.0687,1.9122,1.8954,1.9005,1.7832,1.729,1.6992,1.6831,1.6452,1.6163,1.6163,1.5983,1.5754,1.5559,1.5301,1.4801,1.3856,1.2991,1.2166,1.1419,1.0633,0.9964,0.9579,0.9116,0.8706,0.8424,0.8408,0.853,0.8773,0.8854,0.8837,0.8724,0.8837,0.9241,0.9884,1.0697,1.1634,1.2773,1.4524,1.5638,1.6068,1.764,1.8688,1.9285,2.054,2.1517,2.5976,2.7717,2.9466,3.3456,3.5839,3.7618,3.9167,3.9505,3.9309,3.8578,3.8401,3.7787,3.59,3.5164,3.4193,3.2349,3.1035,2.9963,2.9136,2.7692,2.6975,2.7717,2.6789,2.6083,2.6031,2.4979,2.3972,2.3242,2.2898,2.2721,2.2721,2.2017,2.1642,2.1642,2.1244,2.1039,2.1039,2.1039,2.1039,2.1039,2.1039,2.1023,2.0991,2.055,2.0348,2.0314,1.9909,1.9762,1.9762,1.9762,1.9762,1.9762,1.9762,1.9762,1.9762,1.9762,2.0277,2.0991,2.0991,2.0304,1.9623,2.0655,2.0289,1.9623,2.0655,2.0975,2.0991,2.0927,2.0571,2.0097,1.9463,1.8494,1.7505,1.6862,1.6263,1.5827,1.5827,1.5799,1.5619,1.4947,1.4993,1.4583,1.3011,1.2885,1.2655,1.1728,1.1073,1.0481,0.9942,0.9251,0.8706,0.8424,0.876,0.8926,0.881,0.9205,0.9239,0.8716,0.9199,0.9487,0.9536,1.0915,1.1682,1.1732,1.4147,1.5417,1.5417,1.7433,1.857,1.8965,2.0418,2.0914,2.4738,2.7114,2.9602,3.1888,3.3928,3.5669,3.6601,3.7166,3.7504,3.7633,3.6006,3.439,3.382,3.3069,3.2012,3.0456,3.1031,3.1214,2.9894,2.9043,2.8644,2.8888,2.8389,2.7794,2.7283,2.5979,2.4854,2.411,2.3219,2.271,2.271,2.1767,2.1213,2.1213,2.1055,2.0991,2.0991,2.0991,2.0991,2.0991,2.0682,2.055,2.0516,2.0104,1.9909,1.9909,1.9747,1.9479,1.9169,1.9169,1.9169,1.9169,1.9169,1.9169,1.9207,1.9566,1.9645,1.9671,2.0019,1.9897,1.9656,2.0008,1.9897,1.9671,2.0008,2.0139,2.0047,1.9602,1.9345,1.9,1.7894,1.733,1.6876,1.6248,1.5963,1.5799,1.5799,1.5551,1.5256,1.5038,1.4612,1.4124,1.3606,1.3004,1.2361,1.1693,1.0895,1.0282,1.0112,0.9142,0.8808,0.9636,0.9287,0.9217,0.9763,0.9954,0.9961,0.9755,0.9922,1.0186,1.0475,1.1318,1.1897,1.2233,1.3899,1.4802,1.4816,1.6065,1.6853,1.7216,1.8405,1.9152,2.4217,2.6484,2.8804,3.0064,3.1566,3.2964,3.3792,3.4336,3.4957,3.6063,3.4294,3.2564,3.2807,3.2231,3.1129,2.9324,3.0234,3.0733,2.9462,2.8833,2.8802,2.9643,2.935,2.8946,2.8674,2.7408,2.6025,2.471,2.3687,2.3029,2.2834,2.1949,2.1363,2.1094,2.0976,2.0764,2.0548,2.0548,2.0548,2.0532,2.0227,1.9984,1.9778,1.9536,1.9332,1.9132,1.9132,1.893,1.8612,1.8612,1.8612,1.8612,1.8612,1.8612,1.865,1.9006,1.8893,1.8727,1.9442,1.969,1.969,1.969,1.969,1.969,1.969,1.969,1.96,1.9166,1.9061,1.8817,1.7766,1.7302,1.699,1.6404,1.5937,1.5634,1.5634,1.5372,1.5114,1.4918,1.452,1.4106,1.3927,1.3218,1.2484,1.1964,1.1247,1.0641,1.0272,0.9526,0.9297,1.0056,0.9561,0.9512,1.0225,1.0467,1.0534,1.0534,1.0725,1.0954,1.1282,1.1774,1.2174,1.2496,1.3676,1.4374,1.4501,1.5195,1.574,1.6166,1.722,1.7813,2.4264,2.5774,2.713,2.8201,2.9005,2.9858,3.1106,3.1434,3.2038,3.3903,3.3136,3.2264,3.2717,3.2496,3.1431,2.9021,2.9041,2.9042,2.8178,2.7418,2.7739,2.9829,2.957,2.9453,3.0117,2.9016,2.7387,2.5092,2.4296,2.3681,2.3099,2.2549,2.1969,2.1327,2.0948,2.0453,1.9794,1.975,1.9698,1.9698,1.9654,1.9369,1.8855,1.8855,1.8574,1.8106,1.8106,1.8066,1.8066,1.8066,1.8066,1.8066,1.8066,1.8066,1.8066,1.8106,1.8066,1.8224,1.9244,1.9603,1.9603,1.9603,1.9603,1.9603,1.9603,1.9603,1.9603,1.9639,1.9639,1.9515,1.8962,1.8366,1.7711,1.7204,1.6162,1.5339,1.5339,1.5305,1.5174,1.4644,1.4607,1.4519,1.4,1.3506,1.3023,1.2529,1.2103,1.1524,1.0525,1.0339,1.0167,0.9754,0.9685,0.9805,1.0244,1.0725,1.1019,1.1019,1.1505,1.1811,1.1811,1.2246,1.2508,1.2544,1.3421,1.4084,1.447,1.4876,1.5329,1.5785,1.6851,1.6974,2.4017,2.5358,2.6782,2.7543,2.8227,2.8897,2.9726,3.0707,3.1401,3.1381,3.0543,2.9932,3.0135,3.0908,3.1286,3.0768,3.2502,3.3287,3.1565,3.0667,3.0038,2.9632,2.9442,2.9436,2.9569,2.8884,2.7997,2.6875,2.5227,2.4224,2.4053,2.2653,2.1786,2.1605,2.1519,2.1365,2.1186,2.0279,1.9837,1.9837,1.8931,1.8458,1.8302,1.8302,1.8224,1.8106,1.8106,1.7867,1.7504,1.7504,1.7504,1.7504,1.7504,1.7504,1.7544,1.7947,1.7867,1.7585,1.8263,1.8496,1.8496,1.8496,1.8496,1.8496,1.8496,1.8496,1.8574,1.9006,1.8817,1.846,1.8206,1.7729,1.7121,1.6496,1.6118,1.5899,1.5899,1.5649,1.5392,1.5282,1.4722,1.4215,1.4062,1.3566,1.3148,1.301,1.2917,1.2617,1.1964,1.1029,1.0631,1.1169,1.0619,1.0209,1.0283,1.0725,1.1019,1.1019,1.1505,1.1957,1.233,1.2437,1.265,1.3012,1.3602,1.3967,1.4052,1.4752,1.5165,1.5299,1.6176,1.6483,2.4145,2.5122,2.6123,2.6214,2.6917,2.7701,2.8065,2.9006,2.9886,3.0097,2.9413,2.8996,2.9728,3.0845,3.1491,3.093,3.265,3.362,3.2171,3.105,3.0251,2.987,2.937,2.9122,2.9438,2.8633,2.8061,2.7969,2.6352,2.5116,2.4521,2.3525,2.2727,2.2143,2.2128,2.1858,2.1274,2.0339,1.9724,1.9442,1.8794,1.8193,1.7747,1.7747,1.7626,1.7394,1.7394,1.7229,1.6951,1.6951,1.6951,1.6951,1.6951,1.6951,1.6993,1.7312,1.7188,1.6993,1.7312,1.7394,1.7463,1.7947,1.8106,1.8106,1.8106,1.8106,1.8185,1.8458,1.8341,1.8023,1.773,1.7402,1.7008,1.6415,1.6112,1.5928,1.5928,1.575,1.5595,1.5595,1.4968,1.445,1.445,1.3997,1.3584,1.3584,1.3348,1.3085,1.2785,1.1952,1.148,1.1754,1.1347,1.0893,1.0629,1.1057,1.1356,1.1356,1.1847,1.2318,1.2791,1.2803,1.2943,1.3198,1.3459,1.3682,1.3901,1.4533,1.508,1.5538,1.5917,1.622,2.4702,2.5241,2.5495,2.5016,2.5749,2.6567,2.6549,2.7237,2.8207,2.9215,2.8968,2.8932,3.0211,3.1407,3.1852,3.0794,3.1743,3.2414,3.1827,3.0477,2.9769,3.0212,2.9247,2.8706,2.92,2.8243,2.7814,2.8412,2.738,2.6153,2.4776,2.4581,2.3867,2.2607,2.2562,2.2014,2.0841,2.0182,1.9533,1.8904,1.8794,1.8148,1.7188,1.7188,1.6951,1.6522,1.6522,1.6522,1.6522,1.6522,1.6522,1.6522,1.6522,1.6522,1.6522,1.6522,1.6522,1.6522,1.6522,1.6522,1.6637,1.7585,1.7907,1.7907,1.7907,1.7907,1.7907,1.7987,1.7947,1.7787,1.7394,1.7229,1.7076,1.6595,1.6158,1.5806,1.5806,1.5806,1.5806,1.5806,1.5354,1.5016,1.5016,1.4563,1.4198,1.4198,1.3675,1.3341,1.3423,1.2923,1.2389,1.1957,1.1884,1.17,1.1169,1.1579,1.1884,1.1884,1.2318,1.2791,1.3198,1.3198,1.3198,1.3198,1.3273,1.354,1.392,1.4482,1.5207,1.6121,1.6068,1.6338,2.6063,2.5929,2.5719,2.6138,2.6422,2.6606,2.6582,2.7515,0.0,2.7203,2.7892,2.8737,2.8997,3.0391,3.1876,3.3126,3.402,3.4482,3.4132,3.2866,3.1449,2.9917,2.9063,2.8387,2.7971,2.7735,2.767,2.7739,2.758,2.6826,2.551,2.442,2.3238,2.1913,2.1885,2.1783,2.1532,2.0462,1.9661,1.9048,1.8124,1.7326,1.6637,1.6637,1.6595,1.6522,1.6522,1.6522,1.6522,1.6522,1.6522,1.6522,1.6522,1.6522,1.6522,1.6522,1.6522,1.6522,1.6522,1.6522,1.6522,1.671,1.6795,1.6795,1.6795,1.6795,1.6879,1.7312,1.7105,1.6879,1.7188,1.6951,1.6637,1.6522,1.6446,1.6371,1.6371,1.6371,1.6371,1.6371,1.5932,1.5555,1.5555,1.513,1.4765,1.4765,1.4254,1.4038,1.455,1.3713,1.2908,1.2437,1.2401,1.2174,1.17,1.2102,1.2401,1.2401,1.2838,1.3129,1.3198,1.3198,1.3198,1.3198,1.3672,1.397,1.4078,1.5362,1.6069,1.6285,1.7027,1.7413,2.6311,2.6363,2.6273,2.6931,2.7634,2.7874,2.6826,0.0,0.0,2.652,2.7277,2.8391,2.8922,3.0124,3.1485,3.2933,3.3889,3.446,3.4388,3.3321,3.2061,3.0758,2.9714,2.8981,2.8652,2.8308,2.7943,2.76,2.7225,2.6608,2.559,2.4003,2.2853,2.2208,2.1553,2.1245,2.1245,2.0358,1.9613,1.9059,1.8194,1.7513,1.6974,1.6974,1.681,1.6534,1.6835,1.6798,1.6522,1.6522,1.6522,1.6522,1.6522,1.6522,1.6522,1.6522,1.6522,1.6522,1.6522,1.6722,1.6923,1.6609,1.6522,1.6522,1.6522,1.6522,1.6552,1.6795,1.671,1.6552,1.6837,1.668,1.6522,1.6522,1.6522,1.6522,1.6522,1.6522,1.6522,1.6522,1.6308,1.612,1.612,1.5668,1.5304,1.5304,1.4566,1.4118,1.4396,1.3653,1.316,1.3313,1.3095,1.2839,1.2605,1.2568,1.2796,1.3307,1.3277,1.3361,1.3659,1.3348,1.3198,1.3198,1.3808,1.4085,1.4085,1.5306,1.6063,1.6434,1.7013,1.748,2.6701,2.7116,2.735,2.7874,2.8801,2.9056,2.7051,2.7755,0.0,2.6334,2.6949,2.8092,2.8872,2.9735,3.0681,0.0,3.2663,3.334,3.4182,3.3236,3.2377,3.2003,3.0791,2.9939,2.9789,2.8949,2.8139,2.7556,2.6586,2.5661,2.4935,2.328,2.2351,2.22,2.1149,2.0662,2.0793,2.0118,1.9547,1.897,1.8593,1.8091,1.7551,1.7551,1.7313,1.6911,1.7363,1.73,1.6873,1.6873,1.681,1.6697,1.6697,1.6622,1.6522,1.6522,1.6522,1.6522,1.6522,1.6898,1.7287,1.671,1.6685,1.6835,1.6597,1.6609,1.6672,1.6559,1.6522,1.6522,1.6522,1.6522,1.6522,1.6522,1.6522,1.6522,1.6522,1.6522,1.6522,1.6522,1.638,1.6293,1.6293,1.5976,1.5691,1.5691,1.4909,1.4358,1.4358,1.3785,1.3549,1.4021,1.371,1.3459,1.3459,1.3217,1.342,1.4205,1.3758,1.3668,1.4085,1.3634,1.3408,1.3408,1.4097,1.4437,1.4437,1.5426,1.6152,1.6692,1.7015,1.7455,2.8165,2.8708,2.9325,2.9385,2.949,2.9056,2.7051,0.0,2.8075,2.6066,2.6859,2.8027,2.8088,2.8391,0.0,0.0,0.0,3.1359,3.4425,3.3502,3.2706,3.3245,3.2153,3.1106,3.0477,2.8723,2.757,2.7501,2.563,2.4016,2.2924,2.2101,2.1459,2.0866,2.0256,2.0153,2.0683,2.0114,1.9547,1.8983,1.8933,1.8668,1.8129,1.8129,1.8103,1.8053,1.8103,1.8091,0.0,1.8053,1.7752,1.73,1.73,1.6986,1.6522,1.6522,1.6522,1.6522,1.6522,1.6898,1.7287,1.671,1.7212,1.7852,1.6823,1.6886,1.7187,1.666,1.6522,1.6522,1.6522,1.6522,1.6522,1.6522,1.6522,1.6522,1.6522,1.6522,1.6522,1.6522,1.6051,1.5676,1.5676,1.564,1.5604,1.5604,1.5525,1.5445,1.5445,1.4913,1.4373,1.3978,1.3941,1.3926,1.3926,1.4401,1.4737,1.4826,1.4312,1.4048,1.4085,1.4035,1.4009,1.4009,1.5054,1.5542,1.5542,1.6634,1.718,1.7233,1.7771,1.8007,2.8163,2.8774,2.9174,2.9543,2.9145,2.84,2.7195,0.0,2.753,2.5929,2.6759,2.779,2.7955,2.8118,0.0,0.0,0.0,0.0,3.2864,3.3111,3.32,3.3469,3.2677,3.2018,3.1749,2.9488,2.7384,2.5699,2.434,2.3244,2.2449,2.2137,2.1924,2.1656,2.1104,2.0928,2.1154,2.0928,2.0539,2.0012,1.9224,1.8794,1.8645,1.8216,1.8093,1.8169,1.8081,1.7824,0.0,1.7521,1.7147,1.6619,1.7063,1.6633,1.5869,1.6618,1.6672,1.6532,1.7264,1.7903,1.8279,1.7714,1.8279,1.8907,1.7476,1.6961,1.6961,1.74,1.7036,1.6672,1.735,1.7287,1.6948,1.6609,1.6522,1.6522,1.6522,1.6194,1.6051,1.6423,1.5996,1.5588,1.5588,1.5588,1.5499,1.5096,1.4732,1.4503,1.4503,1.4014,1.3538,1.3315,1.3398,1.3582,1.3891,1.4239,1.466,1.5295,1.5169,1.5079,1.5079,1.4765,1.4576,1.4576,1.5304,1.5693,1.5693,1.6443,1.6837,1.6837,1.7394,1.7626,2.8102,2.9137,2.9831,3.0327,2.96,2.8581,0.0,0.0,2.72,2.5884,2.6662,2.7675,2.784,2.7905,2.8152,0.0,0.0,3.0643,3.1773,3.2509,3.3066,3.344,3.2916,3.2378,3.2168,2.9462,2.6751,2.44,2.3526,2.2962,2.2573,2.256,2.2472,2.2322,2.1782,2.1568,2.1732,2.1568,2.1292,2.0903,1.9993,1.9527,1.951,1.8949,1.8706,1.8645,1.8533,1.827,0.0,1.792,1.7376,1.6632,1.7345,1.6928,1.5964,1.7026,1.7231,1.7058,1.7912,1.8568,1.8883,1.838,1.8832,1.9359,1.8216,1.7589,1.7267,1.7371,1.6967,1.6581,1.7203,1.707,1.6694,1.6248,1.6163,1.6163,1.6163,1.5899,1.5821,1.6098,1.5774,1.536,1.5096,1.5165,1.5074,1.4536,1.4236,1.4003,1.3815,1.342,1.3113,1.2929,1.3003,1.325,1.3827,1.4105,1.4562,1.5297,1.5241,1.5174,1.5174,1.4809,1.4614,1.4614,1.5137,1.5489,1.5669,1.6052,1.6337,1.6522,1.6879,1.7076,2.8247,3.0067,3.2062,3.2062,3.1262,3.0163,0.0,2.8068,2.72,2.5884,2.6662,2.7625,2.7625,2.7625,2.7936,2.8855,2.88,0.0,3.1652,3.1712,3.2033,3.3335,3.2916,3.2168,3.1286,2.8119,2.5537,2.4092,2.3452,2.3078,2.3065,2.3065,2.2874,2.2334,2.1782,2.1744,2.2297,2.1757,2.1493,2.1481,2.1481,2.1179,2.0706,2.0652,2.0338,1.9786,1.9786,1.9786,0.0,1.9786,1.9027,1.793,1.8697,1.8191,1.7157,1.7894,1.8204,1.8191,1.8204,1.8568,1.8883,1.838,1.8581,1.8983,1.897,1.8958,1.8497,1.6279,1.5946,1.6127,1.5474,1.533,1.5319,1.5319,1.5319,1.5319,1.5319,1.5648,1.5847,1.5408,1.5182,1.483,1.3984,1.4136,1.4282,1.3889,1.4329,1.4468,1.3862,1.3768,1.3552,1.2968,1.2881,1.3142,1.3768,1.4376,1.4698,1.4698,1.4194,1.3926,1.3926,1.3915,1.3915,1.3915,1.444,1.5005,1.562,1.5632,1.5908,1.6522,1.6522,1.6522,2.7315,2.8463,2.9309,2.9309,2.8736,2.7958,2.7161,2.6556,2.6108,2.5689,2.6303,2.7036,2.7535,2.7625,2.8,2.923,2.9319,0.0,3.1429,3.2362,3.3021,3.344,3.2783,3.1633,2.9953,2.7881,2.5905,2.4129,2.3828,2.3552,2.309,2.3078,2.299,2.2874,2.2711,2.2698,2.2874,2.2698,2.2422,2.2046,2.1513,2.1289,2.1217,2.0324,2.0109,2.0363,1.9426,1.9044,1.8992,1.8489,1.775,1.7027,1.7787,1.7308,1.6483,1.7993,1.8382,1.8227,1.9008,1.9409,1.942,1.8775,1.899,1.9332,1.8021,1.8041,1.8199,1.6955,1.725,1.762,1.6148,1.6025,1.6154,1.5486,1.5537,1.5681,1.5348,1.5332,1.5483,1.5714,1.5418,1.4987,1.4746,1.4526,1.421,1.3701,1.3527,1.3382,1.319,1.32,1.3104,1.2929,1.2881,1.2968,1.3152,1.3742,1.4097,1.4097,1.4325,1.4474,1.4474,1.4821,1.5075,1.5075,1.5648,1.602,1.6238,1.6238,1.6324,1.6522,1.6522,1.6522,0.0,2.7758,2.8583,2.8583,2.7931,0.0,0.0,2.5958,2.5315,2.5555,2.6138,2.6782,2.7505,2.7625,2.7934,2.9041,2.9415,3.0043,3.1287,3.2452,3.3078,3.2992,3.2003,3.0735,2.9053,2.7194,2.5589,2.4419,2.3916,2.3514,2.309,2.3078,2.3078,2.3078,2.3078,2.3078,2.3078,2.3078,2.2862,2.2322,2.2026,2.1691,2.1179,2.0576,2.0171,1.9875,1.9083,1.8543,0.0,1.7797,1.7146,1.6539,1.7302,1.7005,1.6295,1.7727,1.8142,1.8026,1.8713,1.898,1.8874,1.8436,1.8608,1.8761,1.7596,1.7549,1.7678,1.6896,1.7289,1.7634,1.5976,1.5786,1.5914,1.5266,1.5351,1.5489,1.5192,1.5142,1.527,1.55,1.5359,1.5111,1.4775,1.4602,1.4366,1.3812,1.3389,1.3125,1.3125,1.2978,1.2881,1.2881,1.2881,1.2881,1.2881,1.3238,1.3457,1.3457,1.3789,1.4025,1.4025,1.4376,1.4687,1.4903,1.5276,1.5688,1.6151,1.638,1.6522,1.6522,1.6522,1.6522,0.0,2.7667,2.9237,2.9279,2.8378,2.7535,0.0,0.0,0.0,2.542,2.6063,2.6737,2.749,2.7625,2.7829,2.8607,2.9205,3.0058,3.142,3.2139,3.2463,3.2225,3.0839,2.9586,2.8569,2.6281,2.4858,2.482,2.3816,2.3175,2.3078,2.3078,2.3078,2.3005,2.2967,2.2967,2.3005,2.2944,2.267,2.2135,2.2645,2.206,2.0619,2.1094,2.0336,1.8667,1.862,1.8221,1.7578,1.7523,1.7146,1.6539,1.7246,1.709,1.6606,1.7302,1.7578,1.7578,1.7578,1.7578,1.7578,1.7578,1.7578,1.7523,1.7523,1.7415,1.7135,1.6181,1.6364,1.6471,1.5205,1.4834,1.4824,1.4795,1.4805,1.4814,1.4795,1.5117,1.5293,1.4902,1.5146,1.5156,1.4301,1.4531,1.4648,1.4238,1.3818,1.3545,1.3516,1.3193,1.2949,1.2891,1.291,1.291,1.2881,1.2881,1.2881,1.2881,1.2881,1.2881,1.2881,1.2929,1.3248,1.3779,1.3815,1.4411,1.5543,1.6139,1.6423,1.6423,1.6466,1.6522,2.5812,0.0,2.6406,2.6944,2.6951,2.6692,0.0,0.0,0.0,0.0,0.0,2.6198,2.7365,2.7625,2.8113,2.9789,2.9789,3.0208,3.2018,3.2643,3.2896,3.2767,3.0887,2.9294,2.8463,2.6581,2.5247,2.4845,2.418,2.3602,2.3103,2.3078,2.2823,2.2187,2.185,2.1838,2.2187,2.1553,2.0961,2.0465,2.058,2.0306,1.9587,1.9321,1.8953,1.8532,1.8077,1.7731,1.7578,1.6978,1.6652,1.6549,1.6708,1.6652,1.6606,1.7302,1.7578,1.7578,1.7578,1.7578,1.7578,1.7578,1.7202,1.6765,1.6765,1.7093,1.7373,1.6563,1.6483,1.6381,1.5484,1.5264,1.5186,1.4863,1.5029,1.5176,1.4853,1.5117,1.5381,1.5283,1.5342,1.5342,1.5146,1.4932,1.4746,1.4648,1.4258,1.3877,1.3545,1.3701,1.3594,1.2949,1.3164,1.3232,1.291,1.2881,1.2881,1.2881,1.2881,1.2881,1.2881,1.3334,1.3637,1.3815,1.4236,1.4652,1.4926,1.5511,1.582,1.582,1.6281,1.6522,2.546,2.5916,2.6116,2.6462,2.6379,2.6048,2.5689,0.0,0.0,0.0,0.0,2.6019,2.732,2.8083,2.8936,3.0283,3.0746,3.1405,3.2766,3.2735,3.25,3.2311,3.0294,2.8756,2.8268,2.6391,2.5121,2.4845,2.4067,2.3268,2.2592,2.2567,2.2187,2.1365,2.0483,2.0346,2.1005,2.0341,1.9733,1.9239,1.9535,1.9253,1.8497,1.8532,1.8157,1.7584,1.7255,1.6912,1.6574,1.614,1.5979,1.5979,1.5979,1.5979,1.6036,1.6415,1.6574,1.6574,1.6574,1.6574,1.6574,1.6574,1.6301,1.5979,1.5979,1.6255,1.6528,1.6083,1.6265,1.6322,1.5584,1.541,1.5352,1.5127,1.5244,1.5352,1.5117,1.5254,1.5469,1.5674,1.5547,1.5478,1.5674,1.5352,1.5137,1.5342,1.4834,1.4424,1.4385,1.4238,1.3902,1.3506,1.3486,1.3496,1.3457,1.3105,1.2881,1.2881,1.2881,1.2881,1.2881,1.319,1.3505,1.3768,1.4376,1.4698,1.4698,1.532,1.5588,1.5632,1.6238,1.666,2.4984,2.6068,2.6821,2.6769,2.6189,2.5585,2.548,0.0,0.0,0.0,0.0,0.0,2.7604,2.8727,2.9744,3.0657,3.1943,3.299,3.3493,3.2761,3.1969,3.142,2.9551,2.8182,2.7915,2.6013,2.4755,2.4613,2.3505,2.2445,2.1634,2.1552,2.1132,2.0239,1.9071,1.8699,1.9309,1.905,1.864,1.8165,1.8574,1.8298,1.7257,1.7798,1.7424,1.6322,1.6322,0.0,1.541,1.541,1.541,1.541,1.541,1.541,1.541,1.541,1.541,1.541,1.541,1.541,1.541,1.541,1.541,1.541,1.541,1.541,1.541,1.541,1.5864,1.6208,1.5584,1.541,1.541,1.541,1.541,1.541,1.541,1.541,1.5537,1.6037,1.5762,1.5654,1.6084,1.5859,1.5732,1.6113,1.5547,1.5166,1.5381,1.4834,1.4355,1.4107,1.3877,1.3799,1.397,1.3389,1.2978,1.2978,1.291,1.291,1.2969,1.291,1.3182,1.3741,1.4186,1.4433,1.4433,1.505,1.532,1.5365,1.592,1.6497,2.5257,2.6083,2.6589,2.6226,2.5878,2.5465,2.4866,0.0,0.0,0.0,0.0,0.0,0.0,2.8981,2.9505,3.1824,3.332,3.4129,3.3935,3.3618,3.254,3.0526,2.8963,2.7888,2.7181,2.5693,2.4471,2.3779,2.2306,2.1139,2.0273,1.9875,1.9298,1.8443,1.7853,1.7311,1.6668,1.6927,1.6867,1.6477,1.6538,1.6297,1.5748,1.5818,1.575,1.5584,0.0,1.5526,1.541,1.541,1.541,1.541,1.541,1.541,1.541,1.541,1.541,1.541,1.541,1.541,1.541,1.541,1.541,1.541,1.541,1.541,1.541,1.541,1.5468,1.5526,1.541,1.541,1.541,1.541,1.541,1.541,1.541,1.541,1.5537,1.6037,1.6066,1.6103,1.6553,1.6572,1.649,1.6621,1.6514,1.6182,1.5498,1.5625,1.5352,1.4194,1.4404,1.4316,1.3662,1.3486,1.3408,1.3408,1.3076,1.3037,1.3398,1.3066,1.3096,1.354,1.3293,1.3152,1.3152,1.3779,1.4097,1.4086,1.4698,1.5017,2.4313,2.5016,2.5568,2.5734,2.5949,2.6153,2.6213,0.0,0.0,0.0,0.0,0.0,0.0,0.0,3.2108,3.4726,3.4371,3.3813,3.4008,3.2346,3.0756,2.9797,2.8381,2.7328,2.7126,2.5703,2.4347,2.3227,2.2205,2.0772,1.8993,1.8881,1.8424,1.7336,1.688,1.6527,1.6125,1.6035,1.5918,1.5713,1.5713,1.5605,1.541,1.541,1.541,1.541,0.0,1.541,1.541,1.541,1.541,1.541,1.541,1.541,1.541,1.541,1.541,1.541,1.541,1.541,1.541,1.541,1.541,1.541,1.541,1.541,1.541,1.541,1.5586,1.5703,1.5469,1.5771,1.6064,1.582,1.5947,1.6123,1.6123,1.6123,1.625,1.6689,1.6582,1.6562,1.7002,1.6885,1.6816,1.7051,1.6885,1.667,1.6504,1.624,1.583,1.5244,1.4941,1.4717,1.4551,1.4111,1.375,1.3525,1.333,1.3408,1.3828,1.3447,1.3311,1.3506,1.332,1.3105,1.2881,1.3505,1.3894,1.4125,1.4543,1.4989,2.3251,2.3984,2.4701,2.5255,0.0,2.6378,2.74,0.0,0.0,0.0,0.0,0.0,0.0,3.2362,3.408,3.5867,3.4572,3.335,3.3521,3.1226,2.9446,2.9282,2.7914,2.7031,2.7125,2.5711,2.4122,2.2507,2.1741,2.0182,1.7686,1.774,1.7419,1.6436,1.6084,1.5908,1.5908,1.5576,1.541,1.541,1.541,1.541,1.541,1.541,1.541,1.541,1.541,1.541,1.541,1.541,1.541,1.541,1.541,1.541,1.541,1.541,1.541,1.541,1.541,1.5478,1.5547,1.5449,1.5478,1.5547,1.5439,1.5488,1.5566,1.5566,1.5957,1.625,1.5703,1.6143,1.6641,1.6299,1.6484,1.6665,1.6665,1.6665,1.6865,1.7305,1.7109,1.7021,1.7451,1.7256,1.7148,1.748,1.7246,1.7119,1.7353,1.6797,1.6351,1.6145,1.5478,1.5137,1.5254,1.4668,1.415,1.3828,1.3809,1.3955,1.4268,1.3877,1.3652,1.3652,1.3555,1.3301,1.2881,1.3473,1.3882,1.4202,1.4345,1.4849,2.2727,2.367,2.4597,2.4642,2.4686,0.0,2.7141,2.7066,0.0,2.9774,0.0,0.0,0.0,3.2976,3.3283,3.2593,3.3278,3.355,3.2522,3.1641,3.0603,2.9138,2.7968,2.71,2.6634,2.5485,2.3704,2.1122,2.0018,1.8523,1.6366,1.5871,1.5596,1.5508,1.5478,1.5459,1.5459,1.543,1.541,1.541,1.541,1.541,1.541,1.541,1.541,1.541,1.541,1.541,1.541,1.541,1.541,1.541,1.541,1.541,1.541,1.541,1.541,1.541,1.541,1.5684,1.5947,1.5537,1.5684,1.5998,1.5537,1.5693,1.6076,1.6076,1.6631,1.709,1.624,1.6377,1.6665,1.6626,1.6709,1.6665,1.6665,1.6665,1.6865,1.7305,1.7363,1.7471,1.7891,1.7939,1.793,1.7959,1.7939,1.7783,1.7432,1.7324,1.6973,1.6213,1.6066,1.5664,1.4893,1.4775,1.4727,1.4697,1.4697,1.4707,1.4736,1.4316,1.4038,1.4038,1.3711,1.3301,1.2881,1.3322,1.3527,1.3557,1.3568,1.3639,2.2069,2.3625,2.5136,2.4686,2.4881,0.0,0.0,2.8637,2.9086,3.13,3.2078,0.0,0.0,3.4352,3.4931,3.3527,3.3547,3.3262,3.1822,3.0589,2.9323,2.8082,2.7231,2.6553,2.5975,2.4946,2.3325,2.0978,2.0087,1.862,1.6215,1.5908,1.5693,1.542,1.541,1.541,1.541,1.541,1.541,1.541,1.541,1.541,1.541,1.541,1.541,1.541,1.541,1.541,1.541,1.541,1.541,1.541,1.541,1.5576,1.5781,1.5508,1.5586,1.5781,1.5508,1.5693,1.6096,1.5869,1.5988,1.6084,1.6201,1.6152,1.6184,1.6406,1.6914,1.7246,1.6641,1.7002,1.7461,1.7197,1.7334,1.7529,1.7529,1.7529,1.7578,1.7744,1.7773,1.7822,1.7978,1.8008,1.8008,1.8008,1.8008,1.7959,1.7793,1.7539,1.7256,1.6914,1.6641,1.6123,1.5244,1.542,1.5459,1.5186,1.4932,1.4902,1.5166,1.4766,1.4541,1.4541,1.4385,1.4092,1.3662,1.3818,1.4033,1.4297,1.4023,1.4043,2.1949,2.3625,2.5241,0.0,0.0,0.0,2.9265,2.9729,3.0253,3.2647,3.332,3.344,3.3215,0.0,3.4889,3.2968,3.2835,3.2427,3.0747,2.9132,2.7871,2.7105,2.6389,2.5724,2.5146,2.4065,2.2515,2.05,1.9538,1.8184,1.6009,1.5859,1.5723,1.542,1.541,1.541,1.541,1.541,1.541,1.541,1.541,1.541,1.541,1.541,1.541,1.541,1.541,1.541,1.541,1.541,1.541,1.541,1.541,1.5596,1.582,1.5527,1.5596,1.583,1.5674,1.5898,1.6279,1.6279,1.6279,1.6328,1.6641,1.6523,1.6367,1.6816,1.7246,1.751,1.7217,1.7568,1.7939,1.7646,1.7803,1.8008,1.8008,1.8008,1.8008,1.8008,1.8008,1.8008,1.8008,1.8008,1.8008,1.8008,1.8008,1.8008,1.8008,1.7764,1.7529,1.7393,1.6992,1.6484,1.5879,1.5977,1.5928,1.5635,1.5215,1.5107,1.54,1.5137,1.4922,1.4785,1.4785,1.457,1.4077,1.4268,1.4492,1.4775,1.4473,1.4502,2.2503,2.364,2.4792,0.0,0.0,0.0,2.9879,3.0013,3.0507,3.3784,3.3933,3.329,3.2617,3.3051,3.2676,3.0127,3.0841,3.1067,2.9187,2.7494,2.6533,2.6508,2.5473,2.4594,2.4042,2.275,2.1231,1.944,1.8126,1.6846,1.5498,1.541,1.541,1.541,1.541,1.541,1.541,1.541,1.541,1.541,1.541,1.541,1.541,1.541,1.541,1.541,1.541,1.541,1.541,1.541,1.541,1.541,1.541,1.541,1.542,1.541,1.542,1.5488,1.5918,1.6357,1.6738,1.6738,1.6738,1.6738,1.6685,1.6685,1.6826,1.7266,1.7686,1.8008,1.8008,1.8008,1.8008,1.8008,1.8008,1.8008,1.8008,1.8008,1.8008,1.8008,1.8008,1.8008,1.8008,1.8008,1.8008,1.8008,1.8008,1.8008,1.8008,1.8008,1.7852,1.7432,1.7002,1.6685,1.6665,1.6328,1.6135,1.6125,1.5654,1.542,1.541,1.541,1.5215,1.4795,1.4795,1.458,1.4087,1.458,1.4795,1.4795,1.4795,1.4795,2.2742,2.3969,0.0,2.4986,0.0,0.0,0.0,2.9026,0.0,0.0,3.2946,3.2602,3.1943,3.2222,3.1781,2.9467,2.9659,2.9495,2.7506,2.6766,2.6176,2.5398,2.4318,2.3516,2.3414,2.186,2.0393,1.9264,1.8067,1.6992,1.5929,1.5576,1.541,1.541,1.541,1.541,1.541,1.541,1.541,1.541,1.541,1.541,1.541,1.541,1.541,1.541,1.541,1.541,1.541,1.541,1.541,1.541,1.541,1.5596,1.583,1.5527,1.5811,1.6318,1.6123,1.6562,1.7187,1.7187,1.7187,1.7246,1.7539,1.7432,1.7275,1.7705,1.791,1.8008,1.8008,1.8008,1.8008,1.8008,1.8008,1.8008,1.8008,1.8008,1.8008,1.8008,1.8008,1.8008,1.8008,1.8008,1.8008,1.8008,1.8008,1.8008,1.8008,1.8008,1.7852,1.7432,1.7529,1.7393,1.6724,1.6894,1.6719,1.6164,1.5998,1.5732,1.542,1.541,1.5352,1.5225,1.5225,1.5166,1.5029,1.5166,1.5225,1.5225,1.5225,1.5225,2.3655,2.4522,0.0,2.5689,2.6901,2.7979,2.7979,0.0,0.0,0.0,3.1898,3.1468,3.0762,3.0877,3.0435,2.8361,2.8344,2.7983,2.6405,2.5548,2.4895,2.423,2.3163,2.2355,2.2048,2.0556,1.9298,1.8467,1.7317,1.6374,1.586,1.5557,1.541,1.541,1.541,1.5332,1.5166,1.5322,1.5322,1.5166,1.5332,1.541,1.541,1.541,1.541,1.541,1.541,1.541,1.541,1.541,1.541,1.541,1.541,1.5566,1.5771,1.5508,1.5752,1.6191,1.6094,1.6416,1.6914,1.7266,1.7148,1.7002,1.7773,1.7598,1.7246,1.7842,1.8008,1.8008,1.8008,1.8008,1.8008,1.8008,1.8008,1.8008,1.8008,1.8008,1.8008,1.8008,1.8008,1.8008,1.8008,1.8008,1.8008,1.8008,1.8008,1.8008,1.8008,1.8008,1.791,1.7656,1.7861,1.7803,1.7285,1.7324,1.7158,1.6621,1.6321,1.5947,1.5684,1.5508,1.5498,1.5664,1.5498,1.5498,1.5674,1.5498,1.541,1.541,1.541,1.541,2.4956,2.5211,2.5241,2.7036,2.7993,0.0,2.8592,2.94,3.0342,3.1031,0.0,3.0018,2.9348,2.916,2.857,2.7023,2.677,2.6489,2.5428,2.4004,2.2977,2.2927,2.1988,2.1057,2.0409,1.9091,1.7964,1.7318,1.6042,1.5312,1.5352,1.5312,1.5312,1.5352,1.5312,1.5117,1.4727,1.5107,1.5107,1.4727,1.5156,1.5352,1.5352,1.5391,1.541,1.541,1.541,1.541,1.541,1.541,1.541,1.541,1.541,1.541,1.541,1.541,1.5439,1.5527,1.5928,1.6174,1.638,1.7119,1.6865,1.6465,1.7646,1.7461,1.7012,1.7793,1.8008,1.8008,1.8008,1.8008,1.8008,1.8008,1.8008,1.8008,1.8008,1.8008,1.8008,1.8008,1.8008,1.8008,1.8008,1.8008,1.8008,1.8008,1.8008,1.8008,1.8008,1.8008,1.8008,1.8008,1.8008,1.8008,1.8008,1.7656,1.7422,1.7383,1.6694,1.6213,1.6125,1.5684,1.5654,1.6115,1.5713,1.5703,1.6125,1.5664,1.5449,1.541,1.541,1.541,2.545,2.5884,0.0,0.0,2.7305,2.7934,2.8472,2.7993,2.7619,2.8293,2.8272,2.8086,2.7961,2.7304,2.6512,2.568,2.5042,2.4265,2.3138,2.2711,2.2334,2.1895,2.0785,1.9925,1.9813,1.7789,1.6405,1.6229,1.5069,1.4561,1.4902,1.46,1.457,1.4912,1.459,1.4365,1.4277,1.4365,1.4365,1.4277,1.4707,1.4922,1.4932,1.5264,1.541,1.541,1.541,1.541,1.541,1.541,1.541,1.541,1.541,1.541,1.541,1.541,1.5625,1.5937,1.6086,1.6576,1.7129,1.7324,1.748,1.7646,1.793,1.7881,1.7773,1.7959,1.8008,1.8008,1.8008,1.8008,1.8008,1.8008,1.8008,1.8008,1.8008,1.8008,1.8008,1.8008,1.8008,1.8008,1.8008,1.8008,1.8008,1.8008,1.8008,1.8008,1.8008,1.8008,1.8008,1.8008,1.8008,1.8008,1.8008,1.793,1.7734,1.7402,1.7207,1.6787,1.6154,1.5977,1.6027,1.6125,1.6318,1.6318,1.6125,1.6027,1.5752,1.541,1.541,1.541,2.5734,0.0,0.0,2.732,0.0,2.7993,2.7709,2.6629,2.5707,2.5737,2.5952,2.5959,2.5254,2.4745,2.4182,2.3534,2.3068,2.2598,2.1995,2.1694,2.1294,2.0662,1.9588,1.8602,1.7886,1.6439,1.5447,1.5039,1.4463,1.4238,1.4463,1.4204,1.4184,1.4463,1.4248,1.398,1.3786,1.398,1.398,1.3838,1.4268,1.4473,1.4492,1.5127,1.5186,1.4824,1.5234,1.5176,1.4814,1.5029,1.499,1.4824,1.5029,1.5107,1.5137,1.5342,1.5557,1.5752,1.5752,1.6055,1.6504,1.6934,1.6934,1.6924,1.7754,1.7725,1.748,1.7891,1.8008,1.8008,1.8008,1.8008,1.8008,1.8008,1.8008,1.8008,1.8008,1.8008,1.8008,1.8008,1.8008,1.8008,1.8008,1.8008,1.8008,1.8008,1.8008,1.8008,1.8008,1.8008,1.8008,1.8008,1.8008,1.8008,1.8008,1.8008,1.792,1.7695,1.75,1.708,1.6416,1.6387,1.6387,1.6387,1.6611,1.6621,1.6387,1.6172,1.584,1.541,1.541,1.541,2.5794,0.0,2.6408,2.8293,2.8651,0.0,2.7051,2.5637,2.4404,2.3678,2.3877,2.38,2.2631,2.2326,2.207,2.1453,2.1192,2.1037,2.1014,2.0553,1.9924,1.9262,1.8319,1.7226,1.5924,1.5238,1.4666,1.4023,1.3902,1.3902,1.397,1.3902,1.3902,1.397,1.3902,1.375,1.3408,1.375,1.374,1.3408,1.3828,1.397,1.4,1.4834,1.4805,1.4116,1.4883,1.4795,1.4107,1.4521,1.4463,1.4116,1.4531,1.4717,1.4824,1.5176,1.5352,1.541,1.541,1.5459,1.5644,1.6377,1.6221,1.6016,1.7461,1.7461,1.71,1.7812,1.8008,1.8008,1.8008,1.8008,1.7988,1.792,1.7959,1.8008,1.8008,1.8066,1.8096,1.8018,1.8008,1.8037,1.8105,1.8057,1.8037,1.8105,1.8057,1.8008,1.8008,1.8008,1.8008,1.8008,1.8008,1.8008,1.8008,1.8008,1.8008,1.8008,1.7686,1.7266,1.6694,1.6807,1.6768,1.6621,1.6626,1.6699,1.6621,1.624,1.584,1.541,1.541,1.541,2.5495,0.0,2.7664,0.0,2.891,2.8192,0.0,0.0,2.4102,2.2989,2.2375,2.1978,2.1772,2.1327,2.0927,2.0832,1.9974,1.9242,1.9083,1.8634,1.8052,1.7425,1.6664,1.5988,1.5363,1.4327,1.3686,1.3594,1.3252,1.3203,1.3574,1.3242,1.3213,1.3584,1.3242,1.3018,1.2969,1.3018,1.3018,1.2969,1.3389,1.3594,1.3613,1.4082,1.4194,1.4087,1.4204,1.4184,1.4087,1.4145,1.4136,1.4087,1.4145,1.4453,1.4795,1.4844,1.5098,1.541,1.541,1.5664,1.6056,1.6113,1.6592,1.7168,1.7393,1.7646,1.7861,1.7978,1.8008,1.8008,1.8008,1.8008,1.792,1.7549,1.7744,1.8008,1.8008,1.8291,1.8447,1.8076,1.8008,1.8125,1.8486,1.8252,1.8135,1.8496,1.8242,1.8008,1.8008,1.8008,1.8008,1.8008,1.8008,1.8008,1.8008,1.8008,1.8008,1.8008,1.7959,1.7568,1.6704,1.709,1.6934,1.6172,1.6533,1.6543,1.6152,1.6154,1.584,1.541,1.541,1.541,2.5779,2.7141,2.8263,0.0,2.8898,2.8383,2.6637,2.5245,2.3916,2.2353,2.1537,2.1016,2.063,2.013,1.9748,1.9748,1.9083,1.8387,1.7987,1.7707,1.7151,1.6118,1.5528,1.4934,1.4286,1.359,1.3154,1.3154,1.2988,1.2959,1.3145,1.2988,1.2969,1.3154,1.2978,1.2881,1.2881,1.2881,1.2666,1.2295,1.2899,1.2936,1.2557,1.3179,1.3437,1.3457,1.3873,1.3867,1.3447,1.3682,1.3643,1.3477,1.3902,1.4248,1.4473,1.4961,1.5254,1.541,1.541,1.5537,1.5732,1.5986,1.639,1.6738,1.7236,1.751,1.7705,1.7939,1.8008,1.8008,1.8008,1.8008,1.7969,1.7773,1.7871,1.8008,1.8008,1.8154,1.8301,1.835,1.8555,1.8789,1.8965,1.8643,1.8428,1.8533,1.8281,1.8008,1.8008,1.8213,1.8271,1.8037,1.8223,1.8262,1.8037,1.8008,1.8008,1.8008,1.8008,1.7734,1.7119,1.7051,1.6719,1.6135,1.6504,1.6514,1.6125,1.6125,1.584,1.541,1.541,1.541,0.0,0.0,2.7724,2.7894,2.8322,2.8124,0.0,0.0,2.3741,2.194,2.1115,2.0542,1.9911,1.9384,1.897,1.8821,1.8177,1.7531,1.6851,1.666,1.6124,1.4913,1.452,1.4032,1.341,1.3066,1.2881,1.2881,1.2881,1.2881,1.2881,1.2881,1.2881,1.2881,1.2881,1.2881,1.2881,1.2725,1.2452,1.208,1.2246,1.2197,1.1814,1.2344,1.2608,1.2646,1.3433,1.3457,1.29,1.3213,1.3164,1.2939,1.3574,1.3945,1.4155,1.4853,1.5225,1.541,1.541,1.541,1.5469,1.5791,1.5977,1.6262,1.6982,1.7295,1.7471,1.7891,1.8008,1.8008,1.8008,1.8008,1.7978,1.7881,1.793,1.8066,1.8291,1.8252,1.833,1.8857,1.9141,1.9316,1.9424,1.8994,1.8672,1.8789,1.8437,1.8135,1.8018,1.8379,1.8477,1.8057,1.8074,1.7983,1.7676,1.7647,1.7647,1.7647,1.7872,1.7822,1.7402,1.707,1.6631,1.6135,1.6504,1.6455,1.5898,1.5898,1.5732,1.541,1.541,1.541,0.0,2.4341,0.0,2.6553,2.6936,2.6821,0.0,2.4981,2.3538,2.1838,2.1083,2.0542,1.9911,1.9384,1.8809,1.822,1.7231,1.6243,1.5418,1.4856,1.4293,1.3688,1.3567,1.34,1.2949,1.2891,1.2881,1.2881,1.2881,1.2881,1.2881,1.2881,1.2881,1.2881,1.2881,1.2881,1.2881,1.2215,1.2215,1.2832,1.1534,1.1216,1.1814,1.1814,1.1864,1.1922,1.2656,1.292,1.2881,1.29,1.29,1.2881,1.293,1.3437,1.4087,1.4136,1.4717,1.541,1.541,1.541,1.542,1.5439,1.5723,1.6152,1.6621,1.7061,1.7471,1.7891,1.8008,1.8008,1.8008,1.8008,1.791,1.751,1.7715,1.8232,1.9043,1.8896,1.8848,1.9687,1.9541,1.9414,1.9814,1.9189,1.8779,1.9189,1.8887,1.8457,1.8057,1.8379,1.8477,1.8057,1.7235,1.6724,1.6636,1.6636,1.6636,1.6636,1.7501,1.7822,1.7402,1.7363,1.6943,1.6145,1.6504,1.6309,1.5449,1.5449,1.543,1.541,1.541,1.541,0.0,0.0,0.0,2.4531,2.4945,2.5077,2.4352,2.3748,2.3175,2.2221,2.1581,2.1029,2.0464,1.9623,1.8697,1.7712,1.6944,1.5928,1.4516,1.4115,1.379,1.3204,1.3105,1.3047,1.29,1.2881,1.2881,1.2881,1.2881,1.2881,1.2881,1.2881,1.2881,1.2881,1.2881,1.2881,1.2881,1.2197,1.1733,1.1534,1.1023,1.0712,1.0568,1.1416,1.1814,1.1814,1.2559,1.2881,1.2881,1.2881,1.2881,1.291,1.3174,1.3633,1.4116,1.4453,1.4912,1.541,1.541,1.541,1.541,1.541,1.5703,1.6154,1.625,1.6807,1.7422,1.7568,1.7803,1.8008,1.8008,1.8008,1.7969,1.7822,1.79,1.8242,1.9102,1.916,1.9228,1.9805,2.0019,2.0156,2.0303,1.9619,1.9199,1.9629,1.8857,1.8281,1.8398,1.8545,1.8477,1.8057,1.7956,1.7786,1.7529,1.7501,1.7501,1.7501,1.7794,1.7939,1.7793,1.7529,1.7236,1.6914,1.6787,1.6299,1.541,1.5693,1.5684,1.542,1.5703,1.583,2.1893,0.0,0.0,0.0,2.3184,2.3521,2.274,2.2723,2.2698,2.2146,2.1744,2.1262,2.0481,1.9682,1.869,1.7213,1.6414,1.5426,1.373,1.3505,1.3324,1.2978,1.2881,1.2881,1.2881,1.2881,1.2881,1.2881,1.2881,1.2881,1.2881,1.2881,1.2881,1.2881,1.2881,1.2881,1.2881,1.194,1.1366,1.1116,1.0661,1.021,0.9865,1.1166,1.1665,1.1516,1.2461,1.2881,1.2881,1.2881,1.2881,1.291,1.3184,1.3555,1.3955,1.4248,1.4717,1.5205,1.5205,1.5293,1.541,1.541,1.5605,1.5869,1.6076,1.6582,1.7197,1.7344,1.7686,1.8008,1.8008,1.8008,1.8008,1.8008,1.8115,1.8418,1.9131,1.9287,1.9453,2.0019,2.0361,2.0566,2.0566,1.9853,1.9434,1.9853,1.8945,1.832,1.8603,1.8769,1.8691,1.8271,1.8312,1.8176,1.7758,1.7719,1.7662,1.751,1.7862,1.8008,1.8008,1.7744,1.7529,1.7383,1.7236,1.6728,1.5859,1.6143,1.6143,1.5859,1.6152,1.6289,0.0,0.0,0.0,0.0,2.1678,2.2096,2.1581,2.1907,2.2101,2.1562,2.1475,2.1076,1.9845,1.9559,1.8818,1.6661,1.568,1.4696,1.3175,1.292,1.292,1.292,1.292,1.291,1.29,1.29,1.2891,1.2881,1.2881,1.2881,1.2881,1.2881,1.2881,1.2881,1.2881,1.2881,1.2881,1.1484,1.1116,1.1715,1.0415,0.9762,0.9814,1.1166,1.1408,1.0872,1.2304,1.2881,1.2881,1.2881,1.2881,1.2881,1.2881,1.3135,1.3506,1.3506,1.4043,1.4785,1.4785,1.5059,1.541,1.541,1.541,1.5488,1.5918,1.6357,1.6807,1.7246,1.7666,1.7998,1.8008,1.8008,1.8008,1.8008,1.833,1.876,1.9189,1.9297,1.9551,2.04,2.0566,2.0566,2.0566,1.9853,1.9434,1.9853,1.918,1.8623,1.8562,1.9004,1.9102,1.8682,1.8209,1.777,1.7307,1.727,1.7098,1.6682,1.752,1.8018,1.8008,1.8008,1.7822,1.7412,1.7803,1.7598,1.6768,1.6758,1.6685,1.6665,1.6685,1.6758,1.9445,0.0,0.0,0.0,0.0,0.0,2.084,2.1096,2.1284,2.1186,2.0911,2.0515,1.9841,1.8966,1.79,1.6663,1.6019,1.5225,1.3962,1.3789,1.3789,1.3789,1.3789,1.3662,1.3359,1.334,1.3203,1.29,1.2881,1.2881,1.2881,1.2881,1.2881,1.2881,1.2881,1.2657,1.2129,1.1225,1.0669,1.0364,0.9961,0.9562,0.9159,1.0965,1.1408,1.0872,1.2304,1.2881,1.2881,1.2881,1.2881,1.2881,1.2881,1.3135,1.3506,1.3506,1.4043,1.4785,1.4785,1.5059,1.541,1.541,1.541,1.543,1.5557,1.5898,1.6338,1.6787,1.7227,1.7627,1.793,1.8008,1.8008,1.8008,1.833,1.876,1.9189,1.9531,1.9902,2.0459,2.0566,2.0566,2.0566,1.9853,1.9434,1.9853,1.8926,1.8291,1.8523,1.874,1.8769,1.8582,1.8807,1.8864,1.8749,1.873,1.8548,1.8046,1.8317,1.833,1.8018,1.8008,1.7959,1.7842,1.7949,1.7891,1.7656,1.7353,1.7041,1.6738,1.7061,1.7363,0.0,0.0,0.0,0.0,0.0,0.0,1.9962,2.0249,2.0451,2.0437,2.0251,1.9882,1.9192,1.8411,1.7634,1.6757,1.6382,1.5739,1.4321,1.4077,1.4077,1.4077,1.4077,1.398,1.3789,1.3613,1.3408,1.3164,1.2978,1.2881,1.2881,1.2881,1.2881,1.2881,1.2881,1.2666,1.2236,1.1275,1.0618,1.021,0.9909,0.9614,0.9256,1.1015,1.1566,1.1283,1.2412,1.2881,1.2881,1.2881,1.2881,1.2881,1.2881,1.3027,1.3242,1.3242,1.3672,1.4277,1.4453,1.4795,1.5176,1.5352,1.541,1.541,1.541,1.5723,1.6152,1.6602,1.7168,1.7705,1.7949,1.8008,1.8008,1.8008,1.833,1.876,1.9189,1.9619,2.0049,2.0478,2.0566,2.0566,2.0566,2.0,1.9697,2.0127,1.9248,1.8691,1.9111,1.917,1.917,1.917,1.9561,1.9746,1.957,1.9551,1.9141,1.8095,1.8057,1.7868,1.7442,1.7432,1.7579,1.8008,1.8008,1.8008,1.8008,1.7764,1.7519,1.7275,1.7529,1.7773,0.0,0.0,0.0,0.0,1.8958,0.0,1.9046,1.9304,1.956,1.9385,1.9373,1.9102,1.8118,1.7988,1.7698,1.6933,1.6807,1.623,1.4525,1.433,1.435,1.4355,1.434,1.433,1.4233,1.3936,1.3662,1.3516,1.3125,1.2881,1.2881,1.2881,1.2881,1.2881,1.2881,1.2871,1.2774,1.1484,1.0762,1.0661,1.0064,0.9814,0.9865,1.1166,1.1774,1.185,1.2569,1.2881,1.2881,1.2881,1.2881,1.2881,1.2881,1.2881,1.2881,1.2881,1.3174,1.3633,1.4004,1.4453,1.4912,1.5234,1.5371,1.54,1.5352,1.5644,1.6094,1.6592,1.7314,1.7949,1.7998,1.8008,1.8008,1.8008,1.833,1.876,1.9189,1.9619,2.0049,2.0478,2.0566,2.0566,2.0566,2.0205,2.0049,2.0439,1.9805,1.9424,1.9795,1.9883,1.9912,1.9912,2.0226,2.0323,2.0019,1.9753,1.8948,1.7433,1.7198,1.6982,1.6648,1.6585,1.707,1.8008,1.8008,1.794,1.7862,1.794,1.8008,1.8008,1.8008,1.8008,0.0,0.0,0.0,0.0,1.8759,0.0,1.8775,1.8688,1.8401,1.7824,1.7999,1.8122,1.7611,1.7784,1.7836,1.7305,1.7256,1.6894,1.583,1.5996,1.6094,1.5732,1.6006,1.5947,1.5234,1.5088,1.4609,1.3584,1.3125,1.2881,1.2881,1.2881,1.2881,1.2881,1.2881,1.2608,1.203,1.1216,1.0517,1.0012,0.9865,0.9814,0.9865,1.1166,1.1814,1.1823,1.2559,1.2881,1.2881,1.2881,1.2881,1.2881,1.2881,1.2881,1.2881,1.2881,1.3359,1.397,1.4048,1.4639,1.5244,1.499,1.5137,1.5352,1.501,1.5205,1.5703,1.6504,1.71,1.7578,1.793,1.8008,1.8008,1.8008,1.833,1.876,1.9189,1.9619,2.0049,2.0478,2.0566,2.0566,2.0566,2.0205,1.9941,2.0029,1.9609,1.9316,1.9404,1.9707,1.9912,1.9912,1.9512,1.965,2.0362,1.8831,1.7917,1.8087,1.7052,1.6567,1.6938,1.6738,1.707,1.8008,1.8008,1.7647,1.6853,1.7647,1.8008,1.8008,1.8008,1.8008,0.0,0.0,0.0,1.7758,1.7784,0.0,0.0,1.8012,1.7741,1.6995,1.7031,1.7219,1.7076,1.7227,1.7441,1.7656,1.7695,1.7471,1.6816,1.6914,1.6973,1.6748,1.6924,1.6709,1.582,1.5537,1.4971,1.3896,1.3232,1.2969,1.3184,1.2998,1.2881,1.2881,1.2881,1.2715,1.2344,1.1674,1.0965,1.0312,0.9961,0.9961,1.0312,1.1015,1.1674,1.2344,1.2725,1.2666,1.2393,1.2774,1.2666,1.2403,1.2774,1.2881,1.2881,1.2881,1.3281,1.3848,1.4009,1.4551,1.5098,1.5098,1.5244,1.5371,1.5156,1.5547,1.6162,1.6611,1.7197,1.7744,1.7959,1.8008,1.8008,1.8008,1.8164,1.8437,1.8867,1.9297,1.9727,2.0156,2.042,2.0566,2.0566,2.0381,2.0244,2.0244,2.0059,1.9844,1.9629,1.9971,1.9918,1.9155,1.9036,1.8957,1.8948,1.79,1.7185,1.6814,1.614,1.5734,1.5585,1.5889,1.6704,1.8018,1.8008,1.7579,1.6636,1.707,1.7079,1.6585,1.6585,1.6585,1.6392,1.6195,1.6123,1.6534,1.6587,1.6692,0.0,0.0,0.0,1.6425,1.6337,1.6451,1.6527,1.668,1.6963,1.7656,1.7842,1.7803,1.7539,1.7568,1.7568,1.7402,1.7461,1.7197,1.6458,1.585,1.5186,1.4326,1.3555,1.3232,1.3496,1.3105,1.2881,1.2881,1.2881,1.2881,1.2881,1.203,1.1366,1.0813,0.9969,0.9961,1.061,1.0762,1.1484,1.2715,1.2822,1.2501,1.1864,1.2452,1.2344,1.1864,1.2608,1.2881,1.2881,1.2881,1.3203,1.3682,1.4014,1.4473,1.4951,1.5205,1.5293,1.5303,1.5391,1.5908,1.6451,1.6626,1.7236,1.7803,1.7969,1.8008,1.8008,1.8008,1.8008,1.8125,1.8545,1.8916,1.9287,1.9707,2.0137,2.0469,2.0547,2.0566,2.0566,2.0566,2.0498,2.0312,1.9961,2.0156,1.9899,1.8696,1.8563,1.8302,1.7658,1.7017,1.6327,1.5403,1.5094,1.4877,1.4577,1.552,1.6617,1.7725,1.7725,1.7148,1.607,1.607,1.572,1.5234,1.5234,1.5234,1.6076,1.5358,1.4859,1.5777,1.5586,1.5315,1.5914,0.0,1.5979,1.5584,0.0,1.6136,1.6184,0.0,0.0,1.6855,1.7207,1.7568,1.7891,1.8262,1.8213,1.7471,1.7715,1.7754,1.7285,1.6484,1.5635,1.4775,1.4258,1.3848,1.3525,1.3105,1.2881,1.2881,1.2881,1.2881,1.2881,1.1584,1.0864,1.0762,0.951,0.9263,0.9909,1.0517,1.1216,1.1972,1.2608,1.2501,1.1814,1.1873,1.1864,1.1864,1.2608,1.2881,1.2881,1.2881,1.3379,1.4019,1.4058,1.4658,1.5283,1.4961,1.4853,1.4922,1.5293,1.5478,1.5723,1.6451,1.6743,1.7051,1.7812,1.8008,1.8008,1.8008,1.8008,1.8125,1.8545,1.8601,1.8838,1.9277,1.9697,2.0107,2.0498,2.0566,2.0566,2.0566,2.0234,1.9971,1.9922,1.9629,1.9551,1.9723,1.8062,1.7446,1.8683,1.6124,1.4803,1.5569,1.4501,1.4431,1.5731,1.7018,1.7411,1.6784,1.6775,1.586,1.4027,1.4027,1.445,1.5234,1.5234,1.5234,1.4988,1.4595,1.4339,1.4461,1.4323,1.4267,1.4942,1.4968,1.4903,1.5,0.0,0.0,0.0,0.0,0.0,0.0,1.6885,1.6931,1.6825,1.6997,1.7322,1.7998,1.8271,1.8008,1.71,1.6436,1.5811,1.5195,1.4756,1.4326,1.3896,1.3477,1.3135,1.2891,1.2881,1.2881,1.2881,1.2304,1.1584,1.0813,1.0218,1.0115,1.0364,1.0269,1.0813,1.1814,1.2129,1.1633,1.072,1.194,1.1981,1.1316,1.2461,1.2881,1.2881,1.2881,1.3262,1.3809,1.4,1.4541,1.5059,1.5127,1.5146,1.5186,1.5361,1.5586,1.5918,1.6553,1.6914,1.7246,1.7852,1.8008,1.8008,1.8008,1.8008,1.8057,1.8232,1.8467,1.8691,1.8877,1.9453,1.9971,2.0156,2.04,2.0478,2.0225,2.0244,2.0107,1.9619,1.9288,1.8819,1.8113,1.6883,1.611,1.6191,1.4901,1.4328,1.4734,1.4042,1.4051,1.5111,1.5602,1.5838,1.6045,1.6045,1.5324,1.3963,1.3963,1.3859,1.352,1.352,1.352,1.414,0.0,0.0,0.0,0.0,0.0,0.0,0.0,1.4053,1.4375,1.4346,0.0,0.0,0.0,0.0,0.0,0.0,1.6181,1.5717,1.5787,1.6328,1.7579,1.7927,1.7707,1.6735,1.6655,1.6318,1.5644,1.5195,1.4717,1.4107,1.3623,1.3193,1.2891,1.2881,1.2881,1.2881,1.2715,1.199,1.0813,1.0813,1.0618,1.0261,1.0312,1.0762,1.1566,1.1922,1.1325,1.0218,1.19,1.1792,1.0669,1.2049,1.2608,1.2608,1.2832,1.3145,1.3555,1.3857,1.4326,1.4834,1.5137,1.5322,1.541,1.541,1.5723,1.6152,1.6602,1.7051,1.748,1.79,1.8008,1.8008,1.8008,1.8008,1.8008,1.8008,1.8252,1.8467,1.8467,1.9062,1.9561,1.9561,2.0019,2.0283,1.9961,2.0088,1.9866,1.8835,1.8674,1.8117,1.6727,1.5924,1.5284,1.4566,1.425,1.4088,1.4088,1.4049,1.4247,1.4717,1.469,1.4839,1.5184,1.5279,1.4793,1.3664,1.3751,1.3255,1.2305,1.2305,1.2305,0.0,0.0,0.0,1.2564,0.0,0.0,0.0,0.0,1.3525,0.0,0.0,1.2939,0.0,0.0,0.0,0.0,0.0,0.0,0.0,1.5219,1.5477,1.5411,1.614,1.6627,1.6533,1.736,1.7422,1.6194,1.5635,1.5019,1.4126,1.335,1.2891,1.2881,1.2881,1.2881,1.2881,1.2187,1.1466,1.0813,1.0813,1.0115,0.891,1.0864,1.1416,1.0914,1.2255,1.2058,1.0813,1.1566,1.1065,0.9969,1.1316,1.1814,1.1922,1.2618,1.3145,1.3506,1.3525,1.4082,1.4785,1.4805,1.5078,1.541,1.541,1.5723,1.6152,1.6602,1.7051,1.748,1.79,1.8008,1.8008,1.8008,1.8008,1.8008,1.8008,1.8018,1.8037,1.8037,1.8379,1.8601,1.8601,1.9375,1.9932,1.9912,1.958,1.887,1.7478,1.7559,1.7353,1.632,1.5575,1.5279,1.5591,1.4734,1.4088,1.4088,1.4686,1.5057,1.5042,1.5646,1.5375,1.4246,1.4468,1.3863,1.2392,1.2681,1.2667,1.2305,1.2305,1.2305,0.0,0.0,1.2675,1.2064,0.0,0.0,0.0,0.0,0.0,0.0,0.0,0.0,0.0,0.0,0.0,0.0,0.0,0.0,0.0,1.2875,1.31,1.3477,1.5208,1.6262,1.5923,1.6455,1.6369,1.5322,1.5342,1.5039,1.4126,1.4141,1.3887,1.3311,1.3301,1.3164,1.2881,1.2666,1.2187,1.1466,1.1015,1.0568,1.0115,1.0364,1.061,1.0813,1.1275,1.0981,1.021,1.0864,1.0618,0.9909,1.1266,1.1814,1.1873,1.2618,1.3145,1.3584,1.416,1.4727,1.5205,1.5205,1.5293,1.5469,1.5752,1.5947,1.6282,1.6953,1.7275,1.748,1.79,1.8008,1.8008,1.8008,1.8008,1.8008,1.8008,1.8008,1.7794,1.7217,1.7903,1.8421,1.7763,1.7924,1.8319,1.8918,1.9199,1.8759,1.7379,1.7142,1.6677,1.5748,1.4873,1.4462,1.4643,1.4334,1.4088,1.4088,1.4316,1.4331,1.413,1.4129,1.4009,1.3805,1.3715,1.3406,1.2906,1.3006,1.2792,1.2305,1.2305,1.2305,1.243,1.2554,0.0,1.1979,1.2227,0.0,1.2842,0.0,1.2141,0.0,0.0,0.0,0.0,0.0,0.0,0.0,0.0,0.0,0.0,1.1436,1.1561,1.2332,1.4224,1.5559,1.566,1.6081,1.6138,1.5537,1.5439,1.5107,1.4404,1.4482,1.4228,1.3525,1.3506,1.3311,1.2881,1.2881,1.255,1.1814,1.1366,1.0914,1.0415,1.0269,1.0261,1.0466,1.0712,1.0415,0.9865,1.0517,1.0261,0.9562,1.0914,1.1316,1.1216,1.2461,1.3145,1.3584,1.4141,1.4707,1.5166,1.501,1.5166,1.5498,1.5928,1.6172,1.6416,1.6992,1.7373,1.7598,1.7568,1.7666,1.7793,1.7793,1.7494,1.732,1.7472,1.7217,1.6793,1.6219,1.6774,1.7222,1.6712,1.6657,1.7144,1.8624,1.8493,1.7889,1.6967,1.6525,1.5893,1.4838,1.431,1.4088,1.4088,1.4088,1.4088,1.4088,1.4088,1.4001,1.3808,1.3621,1.3514,1.3487,1.3514,1.3313,1.2886,1.3206,1.2999,1.2305,1.2412,1.2405]}]]